[[[{"header":{"parameterUnit":"kt","parameterCategory":2,"dx":1,"dy":1,"la1":29.285339999999998,"la2":30.599998999999997,"lo1":-89.70041500000002,"lo2":-87.6738589999976,"nx":112,"ny":82,"refTime":"2022-10-31T06:00:00:Z","depth":0,"parameterNumber":1,"parameterNumberName":"U-component_of_WINDS"},"data":[-8.7415,-8.556,-8.3472,-8.4535,-8.0435,-7.5896,-7.5017,-7.145,-6.8371,-6.8371,-6.7062,-6.6882,-6.96,-6.6944,0.0,0.0,0.0,0.0,0.0,-6.4363,0.0,0.0,0.0,0.0,0.0,0.0,0.0,-7.6677,-7.8043,-8.1509,-8.8098,-9.1368,-9.5614,-10.1129,-10.2301,-10.2887,-10.2887,-10.2887,-10.2887,-10.2887,-10.2887,-10.2887,-10.2887,-10.2887,-10.2887,-10.2887,-10.2887,-10.2887,-10.2887,-10.2887,-10.2887,-10.2887,-10.2887,-10.2887,-10.2887,-10.2887,-10.2887,-10.2887,-10.2887,-10.2887,-10.2436,-9.9997,-10.2296,-10.4904,-9.8261,-9.9521,-10.2244,-9.7826,-9.6904,-9.7122,-9.6773,-9.3751,-9.0946,-9.0946,-8.7881,-8.4967,-8.4967,-8.4967,-8.4967,-8.4967,-8.5195,-8.5878,-8.7283,-8.7777,-8.8422,-8.9789,-9.0016,-9.0016,-9.0016,-9.0016,-9.0016,-9.0016,-9.0016,-9.0016,-9.0016,-9.0016,-9.0016,-9.0016,-9.0016,-9.0016,-9.0016,-9.0016,-9.0016,-9.0016,-9.0016,-9.0016,-9.0016,-9.0016,-9.0016,-9.0016,-9.0016,-9.0016,-8.1948,-8.0337,-7.8487,-7.9611,-7.5848,-7.1454,-7.0381,-6.7111,-6.4363,-6.4363,-6.4363,-6.4963,-6.7062,-6.5744,0.0,0.0,0.0,0.0,0.0,0.0,-6.451,0.0,0.0,0.0,0.0,0.0,-7.6677,-8.063,-8.2241,-8.5267,-9.0294,-9.3613,-9.7322,-10.1666,-10.2496,-10.2887,-10.2887,-10.2887,-10.2887,-10.2887,-10.2887,-10.2887,-10.2887,-10.2887,-10.2887,-10.2887,-10.2887,-10.2887,-10.2887,-10.2887,-10.2887,-10.2887,-10.2887,-10.2887,-10.2753,-10.1447,-10.0858,-10.1129,-10.2302,-10.2033,-10.0588,-9.799,-9.9388,-10.0924,-9.4291,-9.5492,-9.8222,-9.4115,-9.3078,-9.3078,-9.3078,-9.1102,-8.8947,-8.8947,-8.6968,-8.4967,-8.4967,-8.4967,-8.4967,-8.4967,-8.4967,-8.5499,-8.7207,-8.7511,-8.808,-8.9751,-9.0016,-9.0016,-9.0016,-9.0016,-9.0016,-9.0016,-9.0016,-9.0016,-9.0016,-9.0016,-9.0016,-9.0016,-9.0016,-9.0016,-9.0016,-9.0016,-9.0016,-9.0016,-9.0016,-9.0016,-9.0016,-9.0016,-9.0016,-9.0016,-9.0016,-9.0016,-7.7214,-7.3942,-7.1498,-7.4675,-6.9844,-6.5256,-6.8144,-6.6525,-6.4363,-6.4363,-6.4363,-6.4363,-6.4363,-6.4363,0.0,0.0,0.0,0.0,0.0,-6.3645,0.0,-6.6086,-7.0869,-7.4529,-7.5897,-8.0581,-8.4047,-8.5218,-8.7317,-9.0392,-9.4589,-9.5907,-9.8494,-10.274,-10.2887,-10.2887,-10.2887,-10.2887,-10.2887,-10.2887,-10.2887,-10.2887,-10.2887,-10.2887,-10.2887,-10.2887,-10.2753,-10.2619,-10.2619,-10.2619,-10.2619,-10.2619,-10.2619,-10.2619,-10.2168,-9.8401,-9.6979,-9.7577,-10.1312,-10.0269,-9.7117,-9.6979,-9.5777,-9.3408,-8.9315,-8.9561,-9.0204,-8.621,-8.4967,-8.4967,-8.4967,-8.4967,-8.4967,-8.4967,-8.4967,-8.4967,-8.4967,-8.4967,-8.4967,-8.4967,-8.4967,-8.5499,-8.7207,-8.7511,-8.808,-8.9751,-9.0016,-9.0016,-9.0016,-9.0016,-9.0016,-9.0016,-9.0016,-9.0016,-9.0016,-9.0016,-9.0016,-9.0016,-9.0016,-9.0016,-9.0016,-9.0016,-9.0016,-9.0016,-9.0016,-9.0016,-9.0016,-9.0016,-9.0016,-9.0016,-9.0016,-9.0016,-7.1894,-7.1015,-6.9746,-7.0625,-6.9217,-6.7403,-6.5939,-6.4914,-6.4363,-6.4363,-6.4363,0.0,0.0,0.0,-6.4265,-6.3889,0.0,-6.4182,-6.3889,-6.4768,-6.7599,-7.3407,-7.6042,-7.9068,-8.3266,-8.4291,-8.5804,-8.8488,-9.0636,-9.2686,-9.4687,-9.8055,-10.0837,-10.2838,-10.2887,-10.2887,-10.2887,-10.2887,-10.2887,-10.2887,-10.2887,-10.2887,-10.2887,-10.2887,-10.2887,-10.2753,-9.9861,-9.8722,-9.8722,-9.8722,-9.8722,-9.8722,-9.8722,-9.8722,-9.8264,-9.4428,-9.2976,-9.3585,-9.7439,-9.8127,-9.6702,-9.3866,-9.3588,-9.2964,-8.6053,-8.7283,-9.0204,-8.621,-8.4967,-8.4967,-8.4967,-8.4967,-8.4967,-8.4967,-8.4967,-8.4967,-8.4967,-8.4967,-8.4967,-8.4967,-8.4967,-8.5499,-8.7207,-8.7511,-8.808,-8.9751,-9.0016,-9.0016,-9.0016,-9.0016,-9.0016,-9.0016,-9.0016,-9.0016,-9.0016,-9.0016,-9.0016,-9.0016,-9.0016,-9.0016,-9.0016,-9.0016,-9.0016,-9.0016,-9.0016,-9.0016,-9.0016,-9.0016,-9.0016,-9.0016,-9.0016,-9.0016,-6.7686,-6.755,-6.7062,-6.7062,-6.7062,-6.6574,-6.4719,-6.4363,-6.4363,-6.4363,0.0,0.0,0.0,0.0,0.0,0.0,-6.5109,-6.633,-6.633,-6.8428,-7.1406,-7.531,-7.7165,-8.0386,-8.6194,-8.8244,-9.0343,-9.3174,-9.4931,-9.6346,-9.7469,-10.0349,-10.2252,-10.2887,-10.2887,-10.2887,-10.2887,-10.2887,-10.2887,-10.2887,-10.2887,-10.2887,-10.2887,-10.2887,-10.2887,-10.2753,-10.0588,-9.8722,-9.7301,-9.8859,-9.8585,-9.684,-9.3681,-9.3259,-9.4288,-9.0417,-8.898,-8.9556,-9.34,-9.4708,-9.4147,-9.0274,-8.8869,-8.807,-8.3705,-8.506,-8.7606,-8.5455,-8.4967,-8.4967,-8.4967,-8.4967,-8.4967,-8.4967,-8.4967,-8.4967,-8.4967,-8.4967,-8.4967,-8.4967,-8.4967,-8.5385,-8.6789,-8.7283,-8.7966,-8.9295,-8.9789,-9.0016,-9.0016,-9.0016,-9.0016,-9.0016,-9.0016,-9.0016,-9.0016,-9.0016,-9.0016,-9.0016,-9.0016,-9.0016,-9.0016,-9.0016,-9.0016,-9.0016,-9.0016,-9.0016,-9.0016,-9.0016,-9.0016,-9.0016,-9.0016,-9.0016,-6.4573,-6.4363,-6.4363,-6.4363,-6.4363,-6.4363,-6.4363,0.0,-6.4461,-6.4768,0.0,-6.451,-6.4768,0.0,0.0,-6.3645,-6.6682,-6.9217,-6.9363,-7.3846,-7.6726,-7.5994,-7.7604,-8.1118,-8.7073,-9.2002,-9.5712,-9.7859,-9.9031,-10.0153,-10.1227,-10.2301,-10.2887,-10.2887,-10.2887,-10.2887,-10.2887,-10.2887,-10.2619,-10.2168,-10.2168,-10.2168,-10.2168,-10.2168,-10.2436,-10.2753,-10.2302,-9.9997,-9.684,-10.0133,-9.9589,-9.5869,-8.8547,-8.7719,-9.0274,-8.6408,-8.5128,-8.5569,-8.9412,-9.0703,-9.013,-8.6846,-8.395,-8.186,-8.2237,-8.2993,-8.3904,-8.4739,-8.4967,-8.4967,-8.4967,-8.4967,-8.4967,-8.4967,-8.4967,-8.4967,-8.4967,-8.4967,-8.4967,-8.4967,-8.4967,-8.5233,-8.6144,-8.6979,-8.7814,-8.865,-8.9485,-9.0016,-9.0016,-9.0016,-9.0016,-9.0016,-9.0016,-9.0016,-9.0016,-9.0016,-9.0016,-9.0016,-9.0016,-9.0016,-9.0016,-9.0016,-9.0016,-9.0016,-9.0016,-9.0016,-9.0016,-9.0016,-9.0016,-9.0016,-9.0016,-9.0016,-6.4377,-6.4363,-6.4363,-6.4363,-6.4363,-6.4363,0.0,0.0,0.0,-6.7559,-6.6086,-6.5109,-6.7608,-6.6037,-6.5402,-6.8672,-6.9844,-7.0674,-7.1552,-7.9898,-8.6487,-8.8049,-8.8586,-9.0001,-9.2979,-9.4199,-9.5712,-9.7859,-9.9031,-10.0153,-10.1227,-10.2301,-10.2887,-10.2887,-10.2887,-10.2887,-10.2887,-10.2887,-10.1312,-9.8264,-9.8264,-9.8264,-9.8264,-9.8264,-9.9997,-10.2619,-9.9589,-9.6008,-9.2596,-9.3303,-9.3162,-9.1985,-8.7574,-8.6115,-8.6261,-8.2581,-8.1161,-8.1762,-8.5422,-8.6846,-8.67,-8.601,-8.5397,-8.4427,-8.2089,-8.2537,-8.3904,-8.4739,-8.4967,-8.4967,-8.4967,-8.4967,-8.4967,-8.4967,-8.4967,-8.4967,-8.4967,-8.4967,-8.4967,-8.4967,-8.4967,-8.5233,-8.6144,-8.6979,-8.7814,-8.865,-8.9485,-9.0016,-9.0016,-9.0016,-9.0016,-9.0016,-9.0016,-9.0016,-9.0016,-9.0016,-9.0016,-9.0016,-9.0016,-9.0016,-9.0016,-9.0016,-9.0016,-9.0016,-9.0016,-9.0016,-9.0016,-9.0016,-9.0016,-9.0016,-9.0016,-9.0016,-6.4363,-6.4363,-6.4363,-6.4363,-6.4363,0.0,0.0,-6.5451,-6.5646,-7.0478,-6.8916,-6.7843,-7.165,-7.1015,-7.082,-7.3553,-7.5408,-7.7167,-7.9215,-8.4193,-8.8195,-8.9806,-9.0489,-9.1856,-9.454,-9.5273,-9.6249,-9.7859,-9.9568,-10.0934,-10.2008,-10.2594,-10.2887,-10.2887,-10.2887,-10.2887,-10.2887,-10.2887,-10.0858,-9.7117,-9.7117,-9.6147,-9.4288,-9.4288,-9.6425,-9.9861,-9.799,-9.4988,-9.1559,-9.3444,-9.3118,-9.0846,-8.5169,-8.3988,-8.5275,-8.1461,-8.0032,-8.0334,-8.2321,-8.2879,-8.2879,-8.2879,-8.2879,-8.2659,-8.1095,-8.1778,-8.3373,-8.4587,-8.4967,-8.4967,-8.4967,-8.4967,-8.4967,-8.4967,-8.4967,-8.4967,-8.4967,-8.4967,-8.4967,-8.4967,-8.4967,-8.5081,-8.5537,-8.6676,-8.7663,-8.808,-8.9219,-9.0016,-9.0016,-9.0016,-9.0016,-9.0016,-9.0016,-9.0016,-9.0016,-9.0016,-9.0016,-9.0016,-9.0016,-9.0016,-9.0016,-9.0016,-9.0016,-9.0016,-9.0016,-9.0016,-9.0016,-9.0016,-9.0016,-9.0016,-9.0016,-9.0016,-6.4363,-6.4363,-6.4363,-6.4363,-6.4363,0.0,-6.7511,-6.6622,-6.6867,-7.2675,-7.1991,-7.1601,-7.5749,-7.614,-7.6433,-7.8141,-8.0686,-8.351,-8.717,-8.7854,-8.8391,-8.9513,-9.0441,-9.2051,-9.4833,-9.6102,-9.7078,-9.7957,-10.0056,-10.1764,-10.2838,-10.2887,-10.2887,-10.2887,-10.2887,-10.2887,-10.2887,-10.2887,-10.0858,-9.7117,-9.6425,-9.4428,-9.1274,-9.056,-9.2411,-9.6008,-9.6008,-9.4288,-9.1559,-9.4007,-9.2694,-8.8589,-8.2471,-8.1872,-8.4284,-8.1161,-8.0032,-8.0032,-8.0032,-8.0032,-8.0032,-8.0032,-8.0032,-8.0032,-8.0032,-8.1171,-8.2765,-8.4094,-8.4701,-8.4967,-8.4967,-8.4967,-8.4967,-8.4967,-8.4967,-8.4967,-8.4967,-8.4967,-8.4967,-8.4967,-8.4967,-8.4967,-8.4967,-8.6258,-8.7321,-8.7511,-8.8802,-8.9827,-8.9979,-9.0016,-9.0016,-9.0016,-9.0016,-9.0016,-9.0016,-9.0016,-9.0016,-9.0016,-9.0016,-9.0016,-9.0016,-9.0016,-9.0016,-9.0016,-9.0016,-9.0016,-9.0016,-9.0016,-9.0016,-9.0016,-9.0016,-9.0016,-6.4363,-6.4363,-6.4363,-6.4363,-6.4363,0.0,-6.4768,-6.6769,-6.946,-7.3163,-7.4383,-7.5847,-7.9215,-7.8239,-7.8239,-8.2192,-8.3119,-8.5169,-9.0225,-9.1856,-9.2832,-9.3955,-9.4199,-9.4784,-9.6102,-9.7225,-9.7859,-9.8006,-10.0056,-10.1764,-10.2838,-10.2887,-10.2887,-10.2887,-10.2887,-10.2887,-10.2887,-10.2887,-10.0858,-9.7117,-9.3726,-9.1701,-9.1274,-8.7864,-8.8444,-9.1985,-9.1985,-9.1701,-9.1131,-8.8154,-8.4727,-8.12,-8.0485,-8.0334,-8.0597,-8.0183,-8.0032,-8.0032,-8.0032,-8.0032,-8.0032,-8.0032,-8.0032,-8.0032,-8.0032,-8.1171,-8.2499,-8.2689,-8.3828,-8.4967,-8.4967,-8.4967,-8.4967,-8.4967,-8.4967,-8.4967,-8.4967,-8.4967,-8.4967,-8.4967,-8.4967,-8.4967,-8.4967,-8.5802,-8.6676,-8.7397,-8.8308,-8.9181,-8.9903,-9.0016,-9.0016,-9.0016,-9.0016,-9.0016,-9.0016,-9.0016,-9.0016,-9.0016,-9.0016,-9.0016,-9.0016,-9.0016,-9.0016,-9.0016,-9.0016,-9.0016,-9.0016,-9.0016,-9.0016,-9.0016,-9.0016,-9.0016,-6.4363,-6.4363,-6.4363,-6.4363,0.0,0.0,-6.6671,-6.8624,-7.141,-7.6528,-7.8532,-8.0484,-8.434,-8.434,-8.4535,-8.6926,-8.7854,-8.9464,-9.2979,-9.3808,-9.4492,-9.5614,-9.5761,-9.5907,-9.6346,-9.7371,-9.8299,-9.8933,-10.0397,-10.1764,-10.2838,-10.2887,-10.2887,-10.2887,-10.2887,-10.2887,-10.2887,-10.0588,-9.8722,-9.7117,-9.0989,-8.8154,-8.8009,-8.4176,-8.4431,-8.8154,-8.8154,-8.8154,-8.7864,-8.4028,-8.273,-8.3177,-8.0899,-8.0032,-8.0032,-8.0032,-8.0032,-8.0032,-8.0032,-8.0032,-8.0032,-8.0032,-8.0032,-8.0032,-8.0032,-8.1171,-8.2461,-8.2461,-8.3676,-8.4967,-8.4967,-8.4967,-8.4967,-8.4967,-8.4967,-8.4967,-8.4967,-8.4967,-8.4967,-8.4967,-8.4967,-8.4967,-8.4967,-8.5688,-8.66,-8.7397,-8.8232,-8.9105,-8.9903,-9.0016,-9.0016,-9.0016,-9.0016,-9.0016,-9.0016,-9.0016,-9.0016,-9.0016,-9.0016,-9.0016,-9.0016,-9.0016,-9.0016,-9.0016,-9.0016,-9.0016,-9.0016,-9.0016,-9.0016,-9.0016,-9.0016,-9.0016,-6.4363,0.0,0.0,0.0,0.0,0.0,-7.0088,-7.2187,-7.4822,-7.9752,-8.2387,-8.4791,-8.7854,-8.8684,-8.922,-9.0294,-9.1612,-9.3027,-9.4589,-9.5077,-9.5565,-9.6298,-9.6395,-9.6395,-9.6395,-9.7664,-9.8787,-9.9616,-10.0934,-10.2057,-10.2838,-10.2887,-10.2887,-10.2887,-10.2887,-10.2302,-10.1312,-9.8585,-9.6702,-9.5546,-8.8836,-8.5716,-8.5569,-8.1723,-8.1612,-8.4136,-8.4136,-8.4136,-8.4028,-8.1161,-8.1762,-8.3879,-8.1161,-8.0032,-8.0032,-8.0032,-8.0032,-8.0032,-8.0032,-8.0032,-8.0032,-8.0032,-8.0032,-8.0032,-8.0032,-8.1171,-8.2461,-8.2461,-8.3676,-8.4967,-8.4967,-8.4967,-8.4967,-8.4967,-8.4967,-8.4967,-8.4967,-8.4967,-8.4967,-8.4967,-8.4967,-8.4967,-8.4967,-8.5499,-8.622,-8.7055,-8.789,-8.8726,-8.9561,-8.9865,-9.0016,-9.0016,-9.0016,-9.0016,-9.0016,-9.0016,-9.0016,-9.0016,-9.0016,-9.0016,-9.0016,-9.0016,-9.0016,-9.0016,-9.0016,-9.0016,-9.0016,-9.0016,-9.0016,-9.0016,-9.0016,-8.9865,0.0,0.0,0.0,-6.8096,-6.8876,-6.9997,-7.4383,-7.7799,-8.0435,-8.1761,-8.5378,-8.8293,-8.8391,-8.9269,-9.0343,-9.1417,-9.332,-9.4736,-9.4908,-9.5712,-9.6346,-9.6395,-9.6395,-9.6395,-9.6395,-9.8347,-9.9665,-9.9665,-10.1618,-10.2838,-10.2887,-10.2887,-10.2887,-10.2887,-10.2887,-10.0994,-9.7439,-9.7255,-9.5267,-9.1416,-8.7574,-8.5716,-8.5569,-8.1723,-8.0183,-8.0334,-8.0334,-8.0334,-8.0183,-8.0183,-8.0183,-8.0183,-8.0183,-8.0032,-8.0032,-8.0032,-8.0032,-8.0032,-8.0032,-8.0032,-8.0032,-8.0032,-8.0032,-8.0032,-8.0032,-8.1171,-8.2461,-8.2461,-8.3676,-8.4967,-8.4967,-8.4967,-8.4967,-8.4967,-8.4967,-8.4967,-8.4967,-8.4967,-8.4967,-8.4967,-8.4967,-8.4967,-8.4967,-8.4967,-8.5309,-8.622,-8.7017,-8.7852,-8.8726,-8.9523,-9.0016,-9.0016,-9.0016,-9.0016,-9.0016,-9.0016,-9.0016,-9.0016,-9.0016,-9.0016,-9.0016,-9.0016,-9.0016,-9.0016,-9.0016,-9.0016,-9.0016,-9.0016,-9.0016,-9.0016,-9.0016,-8.9599,-6.4363,-6.5842,-6.7657,-6.8729,-7.063,-7.287,-7.5066,-7.858,-8.1704,-8.2885,-8.6438,-8.9464,-8.9464,-9.0343,-9.1661,-9.3467,-9.4345,-9.5077,-9.5761,-9.62,-9.6395,-9.6395,-9.6395,-9.6688,-9.742,-9.8787,-9.9958,-10.069,-10.2057,-10.2887,-10.2887,-10.2887,-10.2887,-10.2887,-10.2887,-10.0994,-9.7255,-9.4568,-9.2694,-9.1274,-8.5022,-8.3286,-8.5569,-8.1723,-8.0032,-8.0032,-8.0032,-8.0032,-8.0032,-8.0032,-8.0032,-8.0032,-8.0032,-8.0032,-8.0032,-8.0032,-8.0032,-8.0032,-8.0032,-8.0032,-8.0032,-8.0032,-8.0032,-8.0032,-8.0032,-8.0791,-8.1778,-8.2309,-8.3297,-8.4284,-8.4815,-8.4967,-8.4967,-8.4967,-8.4967,-8.4967,-8.4967,-8.4967,-8.4967,-8.4967,-8.4967,-8.4967,-8.4967,-8.4967,-8.5271,-8.6182,-8.7017,-8.7814,-8.8688,-8.9485,-9.0016,-9.0016,-9.0016,-9.0016,-9.0016,-9.0016,-9.0016,-9.0016,-9.0016,-9.0016,-9.0016,-9.0016,-9.0016,-9.0016,-9.0016,-9.0016,-9.0016,-9.0016,-9.0016,-9.0016,-9.0016,-8.9561,-6.5695,-6.7413,-6.9558,-7.1898,-7.4286,-7.6774,-7.9068,-8.1997,-8.4584,-8.5657,-8.8098,-9.0148,-9.0538,-9.1758,-9.3223,-9.4589,-9.5126,-9.5614,-9.6298,-9.6395,-9.6395,-9.6395,-9.6395,-9.6834,-9.7908,-9.9031,-10.0105,-10.1227,-10.2301,-10.2302,-10.0858,-10.2033,-10.2168,-10.0858,-10.0858,-9.9589,-9.7255,-9.1985,-8.8733,-8.7324,-8.2471,-8.1311,-8.3583,-8.1161,-8.0032,-8.0032,-8.0032,-8.0032,-8.0032,-8.0032,-8.0032,-8.0032,-8.0032,-8.0032,-8.0032,-8.0032,-8.0032,-8.0032,-8.0032,-8.0032,-8.0032,-8.0032,-8.0032,-8.0032,-8.0032,-8.0601,-8.1436,-8.2234,-8.3069,-8.3942,-8.4739,-8.4967,-8.4967,-8.4967,-8.4967,-8.4967,-8.4967,-8.4967,-8.4967,-8.4967,-8.4967,-8.4967,-8.4967,-8.4967,-8.5157,-8.5726,-8.6524,-8.7397,-8.8232,-8.9067,-8.9675,-8.9979,-9.0016,-9.0016,-9.0016,-9.0016,-9.0016,-9.0016,-9.0016,-9.0016,-9.0016,-9.0016,-9.0016,-9.0016,-9.0016,-9.0016,-9.0016,-9.0016,-9.0016,-8.9979,-8.9713,-8.9295,-6.8144,-6.9265,-7.102,-7.7311,-7.9648,-8.1598,-8.5901,-8.7659,-8.8732,-8.9806,-9.005,-9.0441,-9.1514,-9.3418,-9.4833,-9.4882,-9.5761,-9.6395,-9.6395,-9.6395,-9.6395,-9.6395,-9.6395,-9.6834,-9.7957,-9.908,-10.0153,-10.1276,-10.2301,-10.1177,-9.7439,-10.0588,-10.0858,-9.6979,-9.684,-9.684,-9.684,-8.9412,-8.3879,-8.0032,-8.0032,-8.0032,-8.0032,-8.0032,-8.0032,-8.0032,-8.0032,-8.0032,-8.0032,-8.0032,-8.0032,-8.0032,-8.0032,-8.0032,-8.0032,-8.0032,-8.0032,-8.0032,-8.0032,-8.0032,-8.0032,-8.0032,-8.0032,-8.0032,-8.0032,-8.0563,-8.136,-8.2196,-8.2993,-8.3866,-8.4663,-8.4929,-8.4967,-8.4967,-8.4967,-8.4967,-8.4967,-8.4967,-8.4967,-8.4967,-8.4967,-8.4967,-8.4967,-8.4967,-8.4967,-8.4967,-8.5726,-8.66,-8.7359,-8.8232,-8.9105,-8.9865,-8.9979,-9.0016,-9.0016,-9.0016,-9.0016,-9.0016,-9.0016,-9.0016,-9.0016,-9.0016,-9.0016,-9.0016,-9.0016,-9.0016,-9.0016,-9.0016,-8.9979,-8.9941,-8.9143,-8.8726,-6.8144,-7.2531,-7.6872,-7.9258,-8.1948,-8.4633,-8.7366,-8.8195,-8.8732,-8.9806,-9.0685,-9.1514,-9.2539,-9.3857,-9.5077,-9.5858,-9.6249,-9.6395,-9.6395,-9.6395,-9.6395,-9.6395,-9.6395,-9.7176,-9.908,-9.9519,-10.0446,-10.235,-10.274,-10.1177,-9.7439,-9.8127,-9.684,-9.3021,-9.2835,-9.2835,-9.2835,-8.8154,-8.3879,-8.0032,-8.0032,-8.0032,-8.0032,-8.0032,-8.0032,-8.0032,-8.0032,-8.0032,-8.0032,-8.0032,-8.0032,-8.0032,-8.0032,-8.0032,-8.0032,-8.0032,-8.0032,-8.0032,-8.0032,-8.0032,-8.0032,-8.0032,-8.0032,-8.0032,-8.0032,-8.0183,-8.0525,-8.1322,-8.2158,-8.2993,-8.3828,-8.4511,-8.4967,-8.4967,-8.4967,-8.4967,-8.4967,-8.4967,-8.4967,-8.4967,-8.4967,-8.4967,-8.4967,-8.4967,-8.4967,-8.4967,-8.5726,-8.6372,-8.66,-8.789,-8.8878,-8.9067,-8.9637,-9.0016,-9.0016,-9.0016,-9.0016,-9.0016,-9.0016,-9.0016,-9.0016,-9.0016,-9.0016,-9.0016,-9.0016,-9.0016,-9.0016,-9.0016,-8.9713,-8.9105,-8.8878,-8.8118,-6.8144,-7.375,-7.9361,-8.185,-8.4144,-8.6292,-8.8,-8.8781,-8.9318,-8.9904,-9.1222,-9.2442,-9.3027,-9.4443,-9.5712,-9.6298,-9.6395,-9.6395,-9.6395,-9.6395,-9.6395,-9.6395,-9.6395,-9.7274,-9.947,-9.8137,-9.8029,-10.0126,-10.0316,-9.799,-9.2411,-9.5406,-9.4708,-8.9022,-8.8836,-8.8836,-8.8836,-8.5169,-8.2172,-8.0032,-8.0032,-8.0032,-8.0032,-8.0032,-8.0032,-8.0032,-8.0032,-8.0032,-8.0032,-8.0032,-8.0032,-8.0032,-8.0032,-8.0032,-8.0032,-8.0032,-8.0032,-8.0032,-8.0032,-8.0032,-8.0032,-8.0032,-8.0032,-8.0032,-8.0032,-8.0032,-8.0183,-8.1019,-8.1854,-8.2651,-8.3524,-8.436,-8.4967,-8.4967,-8.4967,-8.4967,-8.4967,-8.4967,-8.4967,-8.4967,-8.4967,-8.4967,-8.4967,-8.4967,-8.4967,-8.4967,-8.5385,-8.584,-8.6258,-8.7131,-8.7966,-8.8726,-8.9181,-8.9637,-8.9979,-9.0016,-9.0016,-9.0016,-9.0016,-9.0016,-9.0016,-9.0016,-9.0016,-9.0016,-9.0016,-9.0016,-9.0016,-8.9637,-8.9219,-8.8764,-8.8042,-8.7207,-6.8876,-7.4042,-7.9801,-8.4242,-8.6048,-8.7073,-8.8342,-8.9367,-9.0001,-9.0001,-9.1661,-9.3125,-9.3125,-9.4931,-9.6395,-9.6395,-9.6395,-9.6395,-9.6395,-9.6395,-9.6395,-9.6395,-9.6395,-9.7274,-9.947,-9.6153,-9.4763,-9.6978,-9.6702,-9.3259,-8.6115,-9.1985,-9.2411,-8.5128,-8.4981,-8.4981,-8.4981,-8.1762,-8.0032,-8.0032,-8.0032,-8.0032,-8.0032,-8.0032,-8.0032,-8.0032,-8.0032,-8.0032,-8.0032,-8.0032,-8.0032,-8.0032,-8.0032,-8.0032,-8.0032,-8.0032,-8.0032,-8.0032,-8.0032,-8.0032,-8.0032,-8.0032,-8.0032,-8.0032,-8.0032,-8.0032,-8.0183,-8.0905,-8.1664,-8.2499,-8.3335,-8.417,-8.4815,-8.4929,-8.4967,-8.4967,-8.4967,-8.4967,-8.4967,-8.4967,-8.4967,-8.4967,-8.4967,-8.4967,-8.4967,-8.4967,-8.4967,-8.5233,-8.603,-8.622,-8.6865,-8.8308,-8.865,-8.9067,-8.9789,-8.9941,-9.0016,-9.0016,-9.0016,-9.0016,-9.0016,-9.0016,-9.0016,-9.0016,-8.9903,-8.9827,-8.9827,-8.9029,-8.8574,-8.8422,-8.6979,-8.622,-7.2919,-7.5847,-7.9996,-8.5169,-8.6585,-8.7268,-8.9269,-8.9904,-9.0001,-9.0001,-9.1661,-9.3125,-9.3125,-9.4931,-9.6395,-9.6395,-9.6395,-9.6395,-9.6395,-9.6395,-9.6395,-9.6395,-9.6395,-9.7274,-9.947,-9.6153,-9.4763,-9.6978,-9.4147,-9.0417,-8.601,-8.6992,-8.5716,-8.1161,-8.1049,-8.1049,-8.1049,-8.0485,-8.0032,-8.0032,-8.0032,-8.0032,-8.0032,-8.0032,-8.0032,-8.0032,-8.0032,-8.0032,-8.0032,-8.0032,-8.0032,-8.0032,-8.0032,-8.0032,-8.0032,-8.0032,-8.0032,-8.0032,-8.0032,-8.0032,-8.0032,-8.0032,-8.0032,-8.0032,-8.0032,-8.0032,-8.007,-8.0183,-8.0829,-8.1664,-8.2461,-8.3335,-8.4132,-8.4777,-8.4967,-8.4967,-8.4967,-8.4967,-8.4967,-8.4967,-8.4967,-8.4967,-8.4967,-8.4967,-8.4967,-8.4967,-8.4967,-8.5005,-8.5157,-8.584,-8.641,-8.6713,-8.7966,-8.884,-8.8991,-8.9637,-9.0016,-9.0016,-9.0016,-9.0016,-9.0016,-9.0016,-9.0016,-9.0016,-8.9333,-8.8991,-8.8991,-8.8156,-8.7397,-8.6713,-8.6448,-8.5916,-7.5505,-7.7555,-7.9801,-8.3998,-8.5901,-8.7317,-8.9513,-9.0001,-8.9074,-8.5657,-8.8928,-9.2002,-9.088,-9.3369,-9.5761,-9.6298,-9.6395,-9.6395,-9.6395,-9.6395,-9.5719,-9.3803,-9.5292,-9.6591,-9.6802,-9.3262,-9.1858,-9.3968,-9.056,-8.67,-8.3028,-8.4727,-8.4028,-8.0183,-8.0032,-8.0032,-8.0032,-8.0032,-8.0032,-8.0032,-8.0032,-8.0032,-8.0032,-8.0032,-8.0032,-8.0032,-8.0032,-8.0032,-8.0032,-8.0032,-8.0032,-8.0032,-8.0032,-8.0032,-8.0032,-8.0032,-8.0032,-8.0032,-8.0032,-8.0032,-8.0032,-8.0032,-8.0032,-8.0032,-8.0032,-8.0032,-8.0032,-8.0032,-8.0639,-8.1436,-8.2272,-8.3107,-8.3942,-8.4739,-8.4967,-8.4967,-8.4967,-8.4967,-8.4967,-8.4967,-8.4967,-8.4967,-8.4967,-8.4967,-8.4967,-8.4967,-8.4967,-8.4967,-8.4967,-8.5347,-8.5802,-8.6258,-8.7017,-8.7852,-8.8726,-8.9143,-8.9561,-8.9979,-9.0016,-9.0016,-9.0016,-8.9181,-8.8688,-8.8688,-8.8346,-8.8118,-8.8118,-8.7283,-8.6676,-8.6296,-8.5802,-8.5385,-7.5505,-7.7702,-7.9361,-8.1899,-8.4633,-8.7122,-8.8635,-8.8976,-8.7512,-8.2436,-8.6716,-9.1124,-8.9416,-9.2246,-9.5077,-9.5907,-9.6249,-9.6395,-9.6395,-9.5719,-9.4232,-9.1403,-9.291,-9.3888,-9.3078,-8.9412,-8.7972,-9.0001,-8.6741,-8.3137,-8.0183,-8.2879,-8.3177,-8.0183,-8.0032,-8.0032,-8.0032,-8.0032,-8.0032,-8.0032,-8.0032,-8.0032,-8.0032,-8.0032,-8.0032,-8.0032,-8.0032,-8.0032,-8.0032,-8.0032,-8.0032,-8.0032,-8.0032,-8.0032,-8.0032,-8.0032,-8.0032,-8.0032,-8.0032,-8.0032,-8.0032,-8.0032,-8.0032,-8.0032,-8.0032,-8.0032,-8.0032,-8.0032,-8.0487,-8.1171,-8.2006,-8.2841,-8.3676,-8.4511,-8.4815,-8.4967,-8.4967,-8.4967,-8.4967,-8.4967,-8.4967,-8.4967,-8.4967,-8.4967,-8.4967,-8.4967,-8.4967,-8.4967,-8.4967,-8.4967,-8.5233,-8.5916,-8.6182,-8.6827,-8.8156,-8.8422,-8.8802,-8.9447,-8.9485,-8.9485,-8.9485,-8.8232,-8.7511,-8.7511,-8.7359,-8.7245,-8.7245,-8.641,-8.603,-8.5992,-8.5271,-8.4967,-7.0533,-7.4189,-7.8824,-7.9117,-8.3022,-8.6536,-8.5755,-8.5609,-8.5413,-8.4828,-8.8391,-9.1444,-9.1249,-9.3223,-9.4833,-9.4931,-9.5761,-9.6395,-9.6395,-9.3549,-9.1403,-9.0969,-8.8492,-8.7302,-8.8961,-8.5664,-8.4188,-8.6138,-8.273,-8.0447,-8.0032,-8.0485,-8.0485,-8.0032,-8.0032,-8.0032,-8.0032,-8.0032,-8.0032,-8.0032,-8.0032,-8.0032,-8.0032,-8.0032,-8.0032,-8.0032,-8.0032,-8.0032,-8.0032,-8.0032,-8.0032,-8.0032,-8.0032,-8.0032,-8.0032,-8.0032,-8.0032,-8.0032,-8.0032,-8.0032,-8.0032,-8.0032,-8.0032,-8.0032,-8.0032,-8.0032,-8.0032,-8.0032,-8.0107,-8.0335,-8.1171,-8.1968,-8.2803,-8.3638,-8.4398,-8.4967,-8.4967,-8.4967,-8.4967,-8.4967,-8.4967,-8.4967,-8.4967,-8.4967,-8.4967,-8.4967,-8.4967,-8.4967,-8.4967,-8.4967,-8.5005,-8.5081,-8.5802,-8.6372,-8.6524,-8.7207,-8.7663,-8.7739,-8.7739,-8.7739,-8.7739,-8.7587,-8.7511,-8.7511,-8.6789,-8.641,-8.641,-8.5499,-8.5081,-8.5081,-8.5005,-8.4967,-7.1703,-7.531,-7.8776,-7.8776,-8.1314,-8.3754,-8.3315,-8.3705,-8.3803,-8.2534,-8.6731,-9.0245,-8.8928,-8.9953,-9.1807,-9.4394,-9.4101,-9.3414,-9.3137,-9.1918,-8.9364,-8.4999,-8.5176,-8.5685,-8.5356,-8.3875,-8.3614,-8.5553,-8.2172,-8.0032,-8.0032,-8.0032,-8.0032,-8.0032,-8.0032,-8.0032,-8.0032,-8.0032,-8.0032,-8.0032,-8.0032,-8.0032,-8.0032,-8.0032,-8.0032,-8.0032,-8.0032,-8.0032,-8.0032,-8.0032,-8.0032,-8.0032,-8.0032,-8.0032,-8.0032,-8.0032,-8.0032,-8.0032,-8.0032,-8.0032,-8.0032,-8.0032,-8.0032,-8.0032,-8.0032,-8.0032,-8.0032,-8.0032,-8.0032,-8.0221,-8.1057,-8.1854,-8.2537,-8.2879,-8.36,-8.436,-8.4853,-8.4967,-8.4967,-8.4967,-8.4967,-8.4967,-8.4967,-8.4967,-8.4967,-8.4967,-8.4967,-8.4967,-8.4967,-8.4967,-8.4967,-8.4967,-8.5271,-8.5688,-8.6258,-8.66,-8.7017,-8.7473,-8.7511,-8.7055,-8.603,-8.5954,-8.5954,-8.5954,-8.565,-8.5499,-8.5499,-8.5119,-8.4967,-8.4967,-8.4967,-8.4967,-7.0674,-7.409,-7.7067,-7.614,-7.8727,-8.1558,-8.1957,-8.2152,-8.1948,-8.1411,-8.595,-8.9269,-8.6731,-8.717,-8.9025,-9.2344,-9.1017,-8.9779,-9.0764,-8.9103,-8.5934,-8.088,-8.1565,-8.2311,-8.166,-8.1391,-8.1965,-8.3868,-8.1612,-8.0032,-8.0032,-8.0032,-8.0032,-8.0032,-8.0032,-8.0032,-8.0032,-8.0032,-8.0032,-8.0032,-8.0032,-8.0032,-8.0032,-8.0032,-8.0032,-8.0032,-8.0032,-8.0032,-8.0032,-8.0032,-8.0032,-8.0032,-8.0032,-8.0032,-8.0032,-8.0032,-8.0032,-8.0032,-8.0032,-8.0032,-8.0032,-8.0032,-8.0032,-8.0032,-8.0032,-8.0032,-8.0032,-8.0032,-8.0032,-8.0183,-8.0753,-8.1512,-8.2158,-8.2423,-8.3107,-8.3942,-8.4777,-8.4967,-8.4967,-8.4967,-8.4967,-8.4967,-8.4967,-8.4967,-8.4967,-8.4967,-8.4967,-8.4967,-8.4967,-8.4967,-8.4967,-8.4967,-8.4967,-8.5195,-8.584,-8.5916,-8.6144,-8.6713,-8.6751,-8.622,-8.5005,-8.4967,-8.4967,-8.4967,-8.4967,-8.4967,-8.4967,-8.4967,-8.4967,-8.4967,-8.4967,-8.4967,-6.5256,-6.9063,-7.3163,-6.9899,-7.4725,-8.0679,-8.181,-8.0337,-7.9703,-8.2875,-8.6975,-8.9025,-8.5755,-8.6048,-8.7122,-8.8293,-8.6312,-8.6147,-9.0414,-8.4865,-8.0331,-8.0331,-7.726,-7.5808,-7.7374,-7.7564,-7.8395,-8.0069,-8.0032,-8.0032,-8.0032,-8.0032,-8.0032,-8.0032,-8.0032,-8.0032,-8.0032,-8.0032,-8.0032,-8.0032,-8.0032,-8.0032,-8.0032,-8.0032,-8.0032,-8.0032,-8.0032,-8.0032,-8.0032,-8.0032,-8.0032,-8.0032,-8.0032,-8.0032,-8.0032,-8.0032,-8.0032,-8.0032,-8.0032,-8.0032,-8.0032,-8.0032,-8.0032,-8.0032,-8.0032,-8.0032,-8.0032,-8.0032,-8.0032,-8.0032,-8.0032,-8.0639,-8.1474,-8.2272,-8.3107,-8.3942,-8.4777,-8.4967,-8.4967,-8.4967,-8.4967,-8.4967,-8.4967,-8.4967,-8.4967,-8.4967,-8.4967,-8.4967,-8.4967,-8.4967,-8.4967,-8.4967,-8.4967,-8.4967,-8.4967,-8.4967,-8.4967,-8.4967,-8.4967,-8.4967,-8.4967,-8.4967,-8.4967,-8.4967,-8.4967,-8.4967,-8.4967,-8.4967,-8.4967,-8.4967,-8.4967,-8.4967,-6.4656,-6.7403,-7.0825,-7.2089,-7.4725,-7.7165,-7.7607,-8.0435,-8.2583,-8.0679,-8.3119,-8.5511,-8.5218,-8.5999,-8.7805,-9.1124,-8.7683,-8.5238,-8.7168,-8.3291,-7.9406,-7.7019,-7.5651,-7.5665,-7.7374,-7.7564,-7.8247,-7.9918,-8.0032,-8.0032,-8.0032,-8.0032,-8.0032,-8.0032,-8.0032,-8.0032,-8.0032,-8.0032,-8.0032,-8.0032,-8.0032,-8.0032,-8.0032,-8.0032,-8.0032,-8.0032,-8.0032,-8.0032,-8.0032,-8.0032,-8.0032,-8.0032,-8.0032,-8.0032,-8.0032,-8.0032,-8.0032,-8.0032,-8.0032,-8.0032,-8.0032,-8.0032,-8.0032,-8.0032,-8.0032,-8.0032,-8.0032,-8.0032,-8.0032,-8.0032,-8.0032,-8.0221,-8.0639,-8.1436,-8.2272,-8.3107,-8.3942,-8.4549,-8.4967,-8.4967,-8.4967,-8.4967,-8.4967,-8.4967,-8.4967,-8.4967,-8.4967,-8.4967,-8.4967,-8.4967,-8.4967,-8.4967,-8.4967,-8.4967,-8.4967,-8.4967,-8.4967,-8.4967,-8.4967,-8.4967,-8.4967,-8.4967,-8.4967,-8.4967,-8.4967,-8.4967,-8.4967,-8.4967,-8.4967,-8.4967,-8.4967,-8.4967,-6.4621,-6.6622,-6.946,-7.1459,-7.2626,-7.3748,-7.6238,-7.9215,-8.0777,-7.8092,-8.0728,-8.3754,-8.4437,-8.5413,-8.7268,-9.0782,-8.6083,-8.2925,-8.541,-8.1428,-7.754,-7.5265,-7.4982,-7.5665,-7.7374,-7.7564,-7.8247,-7.9918,-8.0032,-8.0032,-8.0032,-8.0032,-8.0032,-8.0032,-8.0032,-8.0032,-8.0032,-8.0032,-8.0032,-8.0032,-8.0032,-8.0032,-8.0032,-8.0032,-8.0032,-8.0032,-8.0032,-8.0032,-8.0032,-8.0032,-8.0032,-8.0032,-8.0032,-8.0032,-8.0032,-8.0032,-8.0032,-8.0032,-8.0032,-8.0032,-8.0032,-8.0032,-8.0032,-8.0032,-8.0032,-8.0032,-8.0032,-8.0032,-8.0032,-8.0032,-8.0032,-8.0032,-8.0259,-8.1057,-8.1892,-8.2689,-8.3562,-8.4398,-8.4967,-8.4967,-8.4967,-8.4967,-8.4967,-8.4967,-8.4967,-8.4967,-8.4967,-8.4967,-8.4967,-8.4967,-8.4967,-8.4967,-8.4967,-8.4967,-8.4967,-8.4967,-8.4967,-8.4967,-8.4967,-8.4967,-8.4967,-8.4967,-8.4967,-8.4967,-8.4967,-8.4967,-8.4967,-8.4967,-8.4967,-8.4967,-8.4967,-8.4967,-6.5109,-6.6476,-6.8778,-6.9217,-6.9168,-7.0582,-7.6677,-7.6677,-7.5408,-7.5017,-7.9122,-8.268,-8.2827,-8.3656,-8.5059,-8.7625,-8.238,-7.9813,-8.4616,-7.9406,-7.4982,-7.4982,-7.4982,-7.5628,-7.7298,-7.7526,-7.8209,-7.9804,-7.9994,-8.0032,-8.0032,-8.0032,-8.0032,-8.0032,-8.0032,-8.0032,-8.0032,-8.0032,-8.0032,-8.0032,-8.0032,-8.0032,-8.0032,-8.0032,-8.0032,-8.0032,-8.0032,-8.0032,-8.0032,-8.0032,-8.0032,-8.0032,-8.0032,-8.0032,-8.0032,-8.0032,-8.0032,-8.0032,-8.0032,-8.0032,-8.0032,-8.0032,-8.0032,-8.0032,-8.0032,-8.0032,-8.0032,-8.0032,-8.0032,-8.0032,-8.0032,-8.0032,-8.0221,-8.0981,-8.1778,-8.2613,-8.3448,-8.4284,-8.4891,-8.4929,-8.4967,-8.4967,-8.4967,-8.4967,-8.4967,-8.4967,-8.4967,-8.4967,-8.4967,-8.4967,-8.4967,-8.4967,-8.4967,-8.4967,-8.4967,-8.4967,-8.4967,-8.4967,-8.4967,-8.4967,-8.4967,-8.4967,-8.4967,-8.4967,-8.4967,-8.4967,-8.4967,-8.4967,-8.4967,-8.4967,-8.4967,-8.4967,-6.4524,-6.4865,-6.6622,-7.1552,-7.0825,-6.9412,-7.0923,-7.287,-7.3114,-6.9014,-7.1113,-7.4284,-7.5847,-7.6335,-7.7953,-8.2641,-8.2189,-8.1198,-8.0684,-7.7385,-7.4982,-7.4982,-7.4982,-7.54,-7.6425,-7.7146,-7.7981,-7.9006,-7.9652,-8.0032,-8.0032,-8.0032,-8.0032,-8.0032,-8.0032,-8.0032,-8.0032,-8.0032,-8.0032,-8.0032,-8.0032,-8.0032,-8.0032,-8.0032,-8.0032,-8.0032,-8.0032,-8.0032,-8.0032,-8.0032,-8.0032,-8.0032,-8.0032,-8.0032,-8.0032,-8.0032,-8.0032,-8.0032,-8.0032,-8.0032,-8.0032,-8.0032,-8.0032,-8.0032,-8.0032,-8.0032,-8.0032,-8.0032,-8.0032,-8.0032,-8.0032,-8.0032,-8.007,-8.0297,-8.0943,-8.1778,-8.2575,-8.3448,-8.4208,-8.4815,-8.4967,-8.4967,-8.4967,-8.4967,-8.4967,-8.4967,-8.4967,-8.4967,-8.4967,-8.4967,-8.4967,-8.4967,-8.4967,-8.4967,-8.4967,-8.4967,-8.4967,-8.4967,-8.4967,-8.4967,-8.4967,-8.4967,-8.4967,-8.4967,-8.4967,-8.4967,-8.4967,-8.4967,-8.4967,-8.4967,-8.4967,-8.4967,-6.4363,-6.4363,-6.55,-7.0429,-6.9258,-6.7257,-6.8681,-6.9307,-6.8672,-6.5744,-6.8175,-7.1303,-7.2821,-7.5994,-7.899,-8.0781,-7.9617,-7.8231,-7.762,-7.5142,-7.3274,-7.3274,-7.4299,-7.5324,-7.6121,-7.7032,-7.7905,-7.8703,-7.9538,-8.0032,-8.0032,-8.0032,-8.0032,-8.0032,-8.0032,-8.0032,-8.0032,-8.0032,-8.0032,-8.0032,-8.0032,-8.0032,-8.0032,-8.0032,-8.0032,-8.0032,-8.0032,-8.0032,-8.0032,-8.0032,-8.0032,-8.0032,-8.0032,-8.0032,-8.0032,-8.0032,-8.0032,-8.0032,-8.0032,-8.0032,-8.0032,-8.0032,-8.0032,-8.0032,-8.0032,-8.0032,-8.0032,-8.0032,-8.0032,-8.0032,-8.0032,-8.0032,-8.0032,-8.0032,-8.0639,-8.1474,-8.2309,-8.3145,-8.398,-8.4815,-8.4967,-8.4967,-8.4967,-8.4967,-8.4967,-8.4967,-8.4967,-8.4967,-8.4967,-8.4967,-8.4967,-8.4967,-8.4967,-8.4967,-8.4967,-8.4967,-8.4967,-8.4967,-8.4967,-8.4967,-8.4967,-8.4967,-8.4967,-8.4967,-8.4967,-8.4967,-8.4967,-8.4967,-8.4967,-8.4967,-8.4967,-8.4967,-6.4363,-6.4363,-6.4963,-6.7608,-6.633,-6.5012,-6.7657,-6.6232,-6.4363,-6.4363,-6.7247,-7.013,-7.1113,-7.6677,-8.0874,-8.0135,-7.5902,-7.3043,-7.3888,-7.2432,-7.1299,-7.1299,-7.3463,-7.5248,-7.5931,-7.6956,-7.783,-7.8513,-7.95,-8.0032,-8.0032,-8.0032,-8.0032,-8.0032,-8.0032,-8.0032,-8.0032,-8.0032,-8.0032,-8.0032,-8.0032,-8.0032,-8.0032,-8.0032,-8.0032,-8.0032,-8.0032,-8.0032,-8.0032,-8.0032,-8.0032,-8.0032,-8.0032,-8.0032,-8.0032,-8.0032,-8.0032,-8.0032,-8.0032,-8.0032,-8.0032,-8.0032,-8.0032,-8.0032,-8.0032,-8.0032,-8.0032,-8.0032,-8.0032,-8.0032,-8.0032,-8.0032,-8.0032,-8.0032,-8.0563,-8.1284,-8.212,-8.2955,-8.379,-8.4625,-8.4853,-8.4967,-8.4967,-8.4967,-8.4967,-8.4967,-8.4967,-8.4967,-8.4967,-8.4967,-8.4967,-8.4967,-8.4967,-8.4967,-8.4967,-8.4967,-8.4967,-8.4967,-8.4967,-8.4967,-8.4967,-8.4967,-8.4967,-8.4967,-8.4967,-8.4967,-8.4967,-8.4967,-8.4967,-8.4967,-8.4967,-8.4967,-6.4363,-6.4363,-6.451,-6.4914,-6.467,-6.4426,-6.4914,-6.467,-6.4363,-6.4363,-6.4901,-6.5683,-6.6671,-6.8575,-7.1943,-7.7995,-7.2671,-6.7538,-6.6603,-6.9328,-7.1299,-7.1299,-7.3463,-7.502,-7.5172,-7.6615,-7.7602,-7.7716,-7.9158,-8.0032,-8.0032,-8.0032,-8.0032,-8.0032,-8.0032,-8.0032,-8.0032,-8.0032,-8.0032,-8.0032,-8.0032,-8.0032,-8.0032,-8.0032,-8.0032,-8.0032,-8.0032,-8.0032,-8.0032,-8.0032,-8.0032,-8.0032,-8.0032,-8.0032,-8.0032,-8.0032,-8.0032,-8.0032,-8.0032,-8.0032,-8.0032,-8.0032,-8.0032,-8.0032,-8.0032,-8.0032,-8.0032,-8.0032,-8.0032,-8.0032,-8.0032,-8.0032,-8.0032,-8.0032,-8.0145,-8.0449,-8.1246,-8.2082,-8.2917,-8.3752,-8.4474,-8.4967,-8.4967,-8.4967,-8.4967,-8.4967,-8.4967,-8.4967,-8.4967,-8.4967,-8.4967,-8.4967,-8.4967,-8.4967,-8.4967,-8.4967,-8.4967,-8.4967,-8.4967,-8.4967,-8.4967,-8.4967,-8.4967,-8.4967,-8.4967,-8.4967,-8.4967,-8.4967,-8.4967,-8.4967,-8.4967,-8.4967,-6.4363,-6.4363,-6.4363,-6.4363,-6.4363,-6.4363,-6.4363,-6.4363,-6.4363,-6.4363,-6.4363,-6.4621,-6.5695,-6.8184,-7.0359,-7.1245,-7.0191,-6.8247,-6.5456,-6.8624,-7.1299,-7.1299,-7.3463,-7.4982,-7.4982,-7.6539,-7.7564,-7.7564,-7.9082,-8.0032,-8.0032,-8.0032,-8.0032,-8.0032,-8.0032,-8.0032,-8.0032,-8.0032,-8.0032,-8.0032,-8.0032,-8.0032,-8.0032,-8.0032,-8.0032,-8.0032,-8.0032,-8.0032,-8.0032,-8.0032,-8.0032,-8.0032,-8.0032,-8.0032,-8.0032,-8.0032,-8.0032,-8.0032,-8.0032,-8.0032,-8.0032,-8.0032,-8.0032,-8.0032,-8.0032,-8.0032,-8.0032,-8.0032,-8.0032,-8.0032,-8.0032,-8.0032,-8.0032,-8.0032,-8.0032,-8.0259,-8.1057,-8.155,-8.2196,-8.3486,-8.4018,-8.4436,-8.4891,-8.4967,-8.4967,-8.4967,-8.4967,-8.4967,-8.4967,-8.4967,-8.4967,-8.4967,-8.4967,-8.4967,-8.4967,-8.4967,-8.4967,-8.4967,-8.4967,-8.4967,-8.4967,-8.4967,-8.4967,-8.4967,-8.4967,-8.4967,-8.4967,-8.4967,-8.4967,-8.4967,-8.4967,-8.4967,-6.5207,0.0,-6.5598,-6.6378,-6.5988,-6.5402,0.0,-6.4817,-6.4363,-6.4363,-6.4363,-6.4573,-6.5353,-6.8128,-6.9288,-6.6382,-6.7344,-6.7976,-6.6473,-6.7845,-6.9287,-7.0274,-7.259,-7.4109,-7.4109,-7.6197,-7.7564,-7.7564,-7.9082,-8.0032,-8.0032,-8.0032,-8.0032,-8.0032,-8.0032,-8.0032,-8.0032,-8.0032,-8.0032,-8.0032,-8.0032,-8.0032,-8.0032,-8.0032,-8.0032,-8.0032,-8.0032,-8.0032,-8.0032,-8.0032,-8.0032,-8.0032,-8.0032,-8.0032,-8.0032,-8.0032,-8.0032,-8.0032,-8.0032,-8.0032,-8.0032,-8.0032,-8.0032,-8.0032,-8.0032,-8.0032,-8.0032,-8.0032,-8.0032,-8.0032,-8.0032,-8.0032,-8.0032,-8.0032,-8.0032,-8.0183,-8.0829,-8.1133,-8.1702,-8.3145,-8.36,-8.398,-8.4815,-8.4967,-8.4967,-8.4967,-8.4967,-8.4967,-8.4967,-8.4967,-8.4967,-8.4967,-8.4967,-8.4967,-8.4967,-8.4967,-8.4967,-8.4967,-8.4967,-8.4967,-8.4967,-8.4967,-8.4967,-8.4967,-8.4967,-8.4967,-8.4967,-8.4967,-8.4967,-8.4967,-8.4967,-8.4967,0.0,-6.8681,-6.9363,-7.2431,-7.0966,-6.8681,-6.8681,-6.6427,0.0,-6.4363,-6.4363,-6.4412,-6.4461,-6.4359,-6.5037,-6.7722,-6.3444,-6.209,-6.8728,-6.5154,-6.3403,-6.7275,-6.9971,-7.1527,-7.1527,-7.5172,-7.7564,-7.7564,-7.9082,-8.0032,-8.0032,-8.0032,-8.0032,-8.0032,-8.0032,-8.0032,-8.0032,-8.0032,-8.0032,-8.0032,-8.0032,-8.0032,-8.0032,-8.0032,-8.0032,-8.0032,-8.0032,-8.0032,-8.0032,-8.0032,-8.0032,-8.0032,-8.0032,-8.0032,-8.0032,-8.0032,-8.0032,-8.0032,-8.0032,-8.0032,-8.0032,-8.0032,-8.0032,-8.0032,-8.0032,-8.0032,-8.0032,-8.0032,-8.0032,-8.0032,-8.0032,-8.0032,-8.0032,-8.0032,-8.0032,-8.0032,-8.0107,-8.0715,-8.1512,-8.2385,-8.3183,-8.398,-8.4815,-8.4967,-8.4967,-8.4967,-8.4967,-8.4967,-8.4967,-8.4967,-8.4967,-8.4967,-8.4967,-8.4967,-8.4967,-8.4967,-8.4967,-8.4967,-8.4967,-8.4967,-8.4967,-8.4967,-8.4967,-8.4967,-8.4967,-8.4967,-8.4967,-8.4967,-8.4967,-8.4967,-8.4967,-8.4967,-6.8681,-7.0435,-7.2382,-7.3602,-7.2967,-7.1459,-6.946,-6.8047,-6.672,-6.4719,-6.4363,-6.4363,-6.4363,-6.3947,-6.3473,-6.3069,-6.0662,-6.0703,-6.6096,-6.497,-6.5718,-7.1451,-7.1641,-7.1907,-7.3426,-7.4527,-7.5817,-7.7412,-7.9082,-8.0032,-8.0032,-8.0032,-8.0032,-8.0032,-8.0032,-8.0032,-8.0032,-8.0032,-8.0032,-8.0032,-8.0032,-8.0032,-8.0032,-8.0032,-8.0032,-8.0032,-8.0032,-8.0032,0.0,-8.0032,-8.0032,-8.0032,-8.0032,-8.0032,-8.0032,-8.0032,-8.0032,-8.0032,-8.0032,-8.0032,-8.0032,-8.0032,-8.0032,-8.0032,-8.0032,-8.0032,-8.0032,-8.0032,-8.0032,-8.0032,-8.0032,-8.0032,-8.0032,-8.0032,-8.0032,-8.0032,-8.0032,-8.0297,-8.0753,-8.155,-8.2385,-8.3221,-8.4056,-8.4625,-8.4967,-8.4967,-8.4967,-8.4967,-8.4967,-8.4967,-8.4967,-8.4967,-8.4967,-8.4967,-8.4967,-8.4967,-8.4967,-8.4967,-8.4967,-8.4967,-8.4967,-8.4967,-8.4967,-8.4967,-8.4967,-8.4967,-8.4967,-8.4967,-8.4967,-8.4967,-8.4967,-8.4967,-7.1508,-7.3748,-7.5652,-7.6677,-7.6189,-7.4578,-7.1264,-6.9753,-6.8096,-6.4963,-6.4363,-6.4461,-6.4719,-6.3432,-6.1868,-6.0407,-5.8724,-5.9402,-6.4252,-6.4959,-6.7161,-7.3122,-7.2325,-7.1945,-7.3653,-7.4489,-7.5665,-7.7412,-7.9082,-8.0032,-8.0032,-8.0032,-8.0032,-8.0032,-8.0032,-8.0032,-8.0032,-8.0032,-8.0032,-8.0032,-8.0032,-8.0032,-8.0032,-8.0032,-8.0032,-8.0032,-8.0032,-8.0032,-8.0032,-8.0032,-8.0032,-8.0032,-8.0032,-8.0032,-8.0032,-8.0032,-8.0032,-8.0032,-8.0032,-8.0032,-8.0032,-8.0032,-8.0032,-8.0032,-8.0032,-8.0032,-8.0032,-8.0032,-8.0032,-8.0032,-8.0032,-8.0032,-8.0032,-8.0032,-8.0032,-8.0032,-8.0032,-8.0032,-8.0297,-8.1095,-8.1702,-8.2423,-8.3562,-8.4208,-8.4663,-8.4929,-8.4967,-8.4967,-8.4967,-8.4967,-8.4967,-8.4967,-8.4967,-8.4967,-8.4967,-8.4967,-8.4967,-8.4967,-8.4967,-8.4967,-8.4967,-8.4967,-8.4967,-8.4967,-8.4967,-8.4967,-8.4967,-8.4967,-8.4967,-8.4967,-8.4967,-8.4967,-7.697,-7.8776,-7.9556,-8.2729,-8.1167,-7.7946,-7.4627,-7.1313,-6.8144,-6.4963,-6.4412,-6.4621,-6.5695,-6.251,-6.0038,-6.0991,-5.768,-5.7366,-6.401,-6.4997,-6.6592,-7.0806,-7.1299,-7.1299,-7.1299,-7.5058,-7.7526,-7.7564,-7.9082,-8.0032,-8.0032,-8.0032,-8.0032,-8.0032,-8.0032,-8.0032,-8.0032,-8.0032,-8.0032,-8.0032,-8.0032,-8.0032,-8.0032,-8.0032,-8.0032,-8.0032,-8.0032,-8.0032,-8.0032,-8.0032,-8.0032,-8.0032,-8.0032,-8.0032,-8.0032,-8.0032,-8.0032,-8.0032,-8.0032,-8.0032,-8.0032,-8.0032,-8.0032,-8.0032,-8.0032,-8.0032,-8.0032,-8.0032,-8.0032,-8.0032,-8.0032,-8.0032,-8.0032,-8.0032,-8.0032,-8.0032,-8.0032,-8.0032,-8.0297,-8.1095,-8.1246,-8.1778,-8.3448,-8.3714,-8.4018,-8.4815,-8.4967,-8.4967,-8.4967,-8.4967,-8.4967,-8.4967,-8.4967,-8.4967,-8.4967,-8.4967,-8.4967,-8.4967,-8.4967,-8.4967,-8.4967,-8.4967,-8.4967,-8.4967,-8.4967,-8.4967,-8.4967,-8.4967,-8.4967,-8.4967,-8.4967,-8.4967,-7.5408,-7.8629,-8.2339,-8.3315,-8.2827,-8.0679,-7.5115,-7.3163,-7.1113,-6.6378,-6.5402,-6.5181,-6.4391,-6.2322,-6.0244,-5.8702,-5.8009,-5.934,-6.4276,-6.6516,-6.9211,-7.3388,-7.3881,-7.3198,-7.1451,-7.3995,-7.6235,-7.745,-7.8551,-7.9386,-7.9994,-8.0032,-8.0032,-8.0032,-8.0032,-8.0032,-8.0032,-8.0032,-8.0032,-8.0032,-8.0032,-8.0032,-8.0032,-8.0032,-8.0032,-8.0032,-8.0032,-8.0032,-8.0032,-8.0032,-8.0032,-8.0032,-8.0032,-8.0032,-8.0032,-8.0032,-8.0032,-8.0032,-8.0032,-8.0032,-8.0032,-8.0032,-8.0032,-8.0032,-8.0032,-8.0032,-8.0032,-8.0032,-8.0032,-8.0032,-8.0032,-8.0032,-8.0032,-8.0032,-8.0032,-8.0032,-8.0032,-8.0032,-8.0107,-8.0335,-8.0867,-8.1398,-8.1892,-8.2955,-8.3828,-8.4056,-8.4587,-8.4967,-8.4967,-8.4967,-8.4967,-8.4967,-8.4967,-8.4967,-8.4967,-8.4967,-8.4967,-8.4967,-8.4967,-8.4967,-8.4967,-8.4967,-8.4967,-8.4967,-8.4967,-8.4967,-8.4967,-8.4967,-8.4967,-8.4967,-8.4967,-8.4967,-7.7897,-8.0581,-8.3656,-8.4096,-8.4193,-8.2583,-7.6579,-7.5213,-7.3553,-6.7745,-6.5695,-6.5083,-6.5637,-6.2377,-5.9595,-5.9483,-5.8192,-5.9037,-6.4238,-6.6288,-6.9173,-7.4375,-7.4982,-7.4413,-7.2894,-7.4109,-7.5552,-7.6918,-7.8095,-7.9006,-7.95,-7.9842,-8.0032,-8.0032,-8.0032,-8.0032,-8.0032,-8.0032,-8.0032,-8.0032,-8.0032,-8.0032,-8.0032,-8.0032,-8.0032,-8.0032,-8.0032,-8.0032,-8.0032,-8.0032,-8.0032,-8.0032,-8.0032,-8.0032,-8.0032,-8.0032,-8.0032,-8.0032,-8.0032,-8.0032,-8.0032,-8.0032,-8.0032,-8.0032,-8.0032,-8.0032,-8.0032,-8.0032,-8.0032,-8.0032,-8.0032,-8.0032,-8.0032,-8.0032,-8.0032,-8.0032,-8.0032,-8.0032,-8.0032,-8.0032,-8.0449,-8.0867,-8.1208,-8.2082,-8.2955,-8.3638,-8.417,-8.4587,-8.4929,-8.4967,-8.4967,-8.4967,-8.4967,-8.4967,-8.4967,-8.4967,-8.4967,-8.4967,-8.4967,-8.4967,-8.4967,-8.4967,-8.4967,-8.4967,-8.4967,-8.4967,-8.4967,-8.4967,-8.4967,-8.4967,-8.4967,-8.4967,-8.2387,-8.3315,-8.3803,-8.4877,-8.5121,-8.3754,-7.8385,-7.7165,-7.5359,-6.8965,-6.5462,-6.4759,-6.821,-6.2821,-5.8832,-6.2101,-5.8945,-5.8277,-6.4466,-6.5567,-6.8072,-7.4261,-7.4982,-7.4982,-7.4982,-7.4982,-7.5286,-7.6045,-7.7602,-7.8551,-7.8665,-7.9538,-8.0032,-8.0032,-8.0032,-8.0032,-8.0032,-8.0032,-8.0032,-8.0032,-8.0032,-8.0032,-8.0032,-8.0032,-8.0032,-8.0032,-8.0032,-8.0032,-8.0032,-8.0032,-8.0032,-8.0032,-8.0032,-8.0032,-8.0032,-8.0032,-8.0032,-8.0032,-8.0032,-8.0032,-8.0032,-8.0032,-8.0032,-8.0032,-8.0032,-8.0032,-8.0032,-8.0032,-8.0032,-8.0032,-8.0032,-8.0032,-8.0032,-8.0032,-8.0032,-8.0032,-8.0032,-8.0032,-8.0032,-8.0032,-8.0032,-8.0259,-8.1019,-8.1208,-8.1778,-8.3297,-8.3638,-8.4018,-8.4739,-8.4929,-8.4967,-8.4967,-8.4967,-8.4967,-8.4967,-8.4967,-8.4967,-8.4967,-8.4967,-8.4967,-8.4967,-8.4967,-8.4967,-8.4967,-8.4967,-8.4967,-8.4967,-8.4967,-8.4967,-8.4967,-8.4967,-8.4967,-8.0289,-8.1606,-8.3803,-8.4877,-8.5121,-8.3754,-7.8385,-7.7165,-7.5554,-6.9802,-6.655,-6.5297,-6.6876,-6.4038,-6.1669,-6.2468,-6.38,-6.5529,-6.7693,-7.0198,-7.2628,-7.4754,-7.4982,-7.4982,-7.4982,-7.4982,-7.5058,-7.521,-7.6197,-7.707,-7.7792,-7.9234,-8.0032,-8.0032,-8.0032,-8.0032,-8.0032,-8.0032,-8.0032,-8.0032,-8.0032,-8.0032,-8.0032,-8.0032,-8.0032,-8.0032,-8.0032,-8.0032,-8.0032,-8.0032,-8.0032,-8.0032,-8.0032,-8.0032,-8.0032,-8.0032,-8.0032,-8.0032,-8.0032,-8.0032,-8.0032,-8.0032,-8.0032,-8.0032,-8.0032,-8.0032,-8.0032,-8.0032,-8.0032,-8.0032,-8.0032,-8.0032,-8.0032,-8.0032,-8.0032,-8.0032,-8.0032,-8.0032,-8.0032,-8.0032,-8.0032,-8.0107,-8.0259,-8.0829,-8.136,-8.174,-8.2917,-8.379,-8.398,-8.4549,-8.4967,-8.4967,-8.4967,-8.4967,-8.4967,-8.4967,-8.4967,-8.4967,-8.4967,-8.4967,-8.4967,-8.4967,-8.4967,-8.4967,-8.4967,-8.4967,-8.4967,-8.4967,-8.4967,-8.4967,-8.4967,-8.4967,-8.1509,-8.229,-8.39,-8.5511,-8.5901,-8.458,-7.9681,-7.767,-7.5078,-6.9111,-6.583,-6.4131,-6.4627,-6.3555,-6.2641,-6.2581,-6.4276,-6.6402,-6.849,-7.0616,-7.2704,-7.4754,-7.4982,-7.4982,-7.4982,-7.4982,-7.4982,-7.4982,-7.5741,-7.6425,-7.688,-7.8133,-7.9196,-8.0032,-8.0032,-8.0032,-8.0032,-8.0032,-8.0032,-8.0032,-8.0032,-8.0032,-8.0032,-8.0032,-8.0032,-8.0032,-8.0032,-8.0032,-8.0032,-8.0032,-8.0032,-8.0032,-8.0032,-8.0032,-8.0032,-8.0032,-8.0032,-8.0032,-8.0032,-8.0032,-8.0032,-8.0032,-8.0032,-8.0032,-8.0032,-8.0032,-8.0032,-8.0032,-8.0032,-8.0032,-8.0032,-8.0032,-8.0032,-8.0032,-8.0032,-8.0032,-8.0032,-8.0032,-8.0032,-8.0032,-8.0032,-8.0032,-8.0032,-8.0373,-8.0791,-8.1208,-8.2006,-8.2841,-8.3638,-8.3752,-8.3752,-8.3752,-8.4132,-8.436,-8.436,-8.4739,-8.4967,-8.4967,-8.4967,-8.4967,-8.4967,-8.4967,-8.4967,-8.4967,-8.4967,-8.4777,-8.436,-8.436,-8.417,-8.3752,-8.3752,-8.3752,-8.3412,-8.3559,-8.3998,-8.5999,-8.6134,-8.4759,-8.0772,-7.7969,-7.4462,-6.8508,-6.526,-6.3502,-6.3808,-6.3565,-6.3405,-6.3953,-6.4731,-6.6288,-6.9249,-7.035,-7.1907,-7.464,-7.4982,-7.4982,-7.4982,-7.4982,-7.4982,-7.4982,-7.559,-7.6045,-7.6197,-7.6918,-7.8095,-7.9766,-7.9804,-7.988,-8.0032,-8.0032,-8.0032,-8.0032,-8.0032,-8.0032,-8.0032,-8.0032,-8.0032,-8.0032,-8.0032,-8.0032,-8.0032,-8.0032,-8.0032,-8.0032,-8.0032,-8.0032,-8.0032,-8.0032,-8.0032,-8.0032,-8.0032,-8.0032,-8.0032,-8.0032,-8.0032,-8.0032,-8.0032,-8.0032,-8.0032,-8.0032,-8.0032,-8.0032,-8.0032,-8.0032,-8.0032,-8.0032,-8.0032,-8.0032,-8.0032,-8.0032,-8.0032,-8.0032,-8.0032,-8.0032,-8.0032,-8.0032,-8.0259,-8.0943,-8.1171,-8.174,-8.3145,-8.2689,-8.2309,-8.2461,-8.3107,-8.3524,-8.3524,-8.4132,-8.4511,-8.4511,-8.4511,-8.4511,-8.4511,-8.4511,-8.4511,-8.4511,-8.4511,-8.4208,-8.3524,-8.3524,-8.3145,-8.2461,-8.2461,-8.2461,-8.2778,-8.3559,-8.3852,-8.5023,-8.3923,-8.1794,-7.9279,-7.7021,-7.4344,-7.0576,-6.7823,-6.6631,-6.8723,-6.7352,-6.6788,-6.9722,-7.0806,-7.1755,-7.2894,-7.3805,-7.4489,-7.4944,-7.4982,-7.4982,-7.4982,-7.4982,-7.4982,-7.4982,-7.5096,-7.5476,-7.6159,-7.6311,-7.7146,-7.8893,-7.8931,-7.9272,-8.0032,-8.0032,-8.0032,-8.0032,-8.0032,-8.0032,-8.0032,-8.0032,-8.0032,-8.0032,-8.0032,-8.0032,-8.0032,-8.0032,-8.0032,-8.0032,-8.0032,-8.0032,-8.0032,-8.0032,-8.0032,-8.0032,-8.0032,-8.0032,-8.0032,-8.0032,-8.0032,-8.0032,-8.0032,-8.0032,-8.0032,-8.0032,-8.0032,-8.0032,-8.0032,-8.0032,-8.0032,-8.0032,-8.0032,-8.0032,-8.0032,-8.0032,-8.0032,-8.0032,-8.0032,-8.0032,-8.0032,-8.0032,-8.007,-8.0183,-8.0791,-8.1322,-8.155,-8.1474,-8.1702,-8.2385,-8.2575,-8.2651,-8.2651,-8.2727,-8.2803,-8.2803,-8.2803,-8.2803,-8.2803,-8.2803,-8.2803,-8.2803,-8.2803,-8.2727,-8.2651,-8.2651,-8.2575,-8.2461,-8.2461,-8.2461,-8.268,-8.3559,-8.3803,-8.4877,-8.3125,-8.0545,-7.886,-7.5265,-7.1442,-6.8683,-6.7233,-6.6356,-6.6017,-6.7269,-6.8509,-6.8444,-7.073,-7.2628,-7.297,-7.4147,-7.4982,-7.4982,-7.4982,-7.4982,-7.4982,-7.4982,-7.4982,-7.4982,-7.4982,-7.5134,-7.5514,-7.5969,-7.6539,-7.7298,-7.8247,-7.8969,-7.931,-7.9804,-8.0032,-8.0032,-8.0032,-8.0032,-8.0032,-8.0032,-8.0032,-8.0032,-8.0032,-8.0032,-8.0032,-8.0032,-8.0032,-8.0032,-8.0032,-8.0032,-8.0032,-8.0032,-8.0032,-8.0032,-8.0032,-8.0032,-8.0032,-8.0032,-8.0032,-8.0032,-8.0032,-8.0032,-8.0032,-8.0032,-8.0032,-8.0032,-8.0032,-8.0032,-8.0032,-8.0032,-8.0032,-8.0032,-8.0032,-8.0032,-8.0032,-8.0032,-8.0032,-8.0032,-8.0032,-8.0032,-8.0032,-8.0032,-8.0335,-8.0563,-8.0563,-8.0563,-8.0715,-8.1057,-8.1512,-8.1778,-8.1778,-8.2196,-8.2461,-8.2461,-8.2461,-8.2461,-8.2461,-8.2461,-8.2461,-8.2461,-8.2461,-8.2234,-8.1778,-8.1778,-8.024,-7.7555,-7.9982,-7.852,-8.1216,-8.1754,-8.1552,-8.3142,-8.0814,-7.7737,-7.6676,-7.2988,-6.9199,-6.7373,-6.7093,-6.6729,-6.4793,-6.7605,-6.9558,-6.7847,-7.0123,-7.2325,-7.2742,-7.3881,-7.4754,-7.4944,-7.4982,-7.4982,-7.4982,-7.4982,-7.4982,-7.4982,-7.4982,-7.4982,-7.4982,-7.5552,-7.5969,-7.6197,-7.745,-7.8323,-7.8779,-7.9386,-7.9804,-8.0032,-8.0032,-8.0032,-8.0032,-8.0032,-8.0032,-8.0032,-8.0032,-8.0032,-8.0032,-8.0032,-8.0032,-8.0032,-8.0032,-8.0032,-8.0032,-8.0032,-8.0032,-8.0032,-8.0032,-8.0032,-8.0032,-8.0032,-8.0032,-8.0032,-8.0032,-8.0032,-8.0032,-8.0032,-8.0032,-8.0032,-8.0032,-8.0032,-8.0032,-8.0032,-8.0032,-8.0032,-8.0032,-8.0032,-8.0032,-8.0032,-8.0032,-8.0032,-8.0032,-8.0032,-8.0032,-8.0032,-8.0032,-8.0032,-8.0032,-8.0032,-8.0032,-8.0032,-8.0563,-8.0943,-8.0943,-8.1512,-8.1854,-8.1854,-8.1854,-8.1854,-8.1854,-8.1854,-8.1854,-8.1854,-8.1854,-8.155,-8.0943,-8.0943,-7.9036,-7.5428,-7.8592,-7.669,-7.7263,-7.6756,-7.5253,-7.848,-7.5274,-7.1435,-7.1395,-7.0084,-6.8863,-6.8642,-6.9304,-6.976,-6.9629,-6.9875,-7.0217,-7.1016,-7.1224,-7.1869,-7.3426,-7.3729,-7.4071,-7.4906,-7.4982,-7.4982,-7.4982,-7.4982,-7.4982,-7.4982,-7.4982,-7.4982,-7.4982,-7.502,-7.54,-7.6197,-7.6273,-7.7108,-7.8741,-7.8817,-7.9234,-8.0032,-8.0032,-8.0032,-8.0032,-8.0032,-8.0032,-8.0032,-8.0032,-8.0032,-8.0032,-8.0032,-8.0032,-8.0032,-8.0032,-8.0032,-8.0032,-8.0032,-8.0032,-8.0032,-8.0032,-8.0032,-8.0032,-8.0032,-8.0032,-8.0032,-8.0032,-8.0032,-8.0032,-8.0032,-8.0032,-8.0032,-8.0032,-8.0032,-8.0032,-8.0032,-8.0032,-8.0032,-8.0032,-8.0032,-8.0032,-8.0032,-8.0032,-8.0032,-8.0032,-8.0032,-8.0032,-8.0032,-8.0032,-8.0032,-8.0032,-8.0032,-8.0032,-8.0032,-8.007,-8.0107,-8.0107,-8.0145,-8.0145,-8.0145,-8.0145,-8.0145,-8.0145,-8.0145,-8.0145,-8.0145,-8.0145,-8.0145,-8.0107,-8.0107,-8.007,-7.9729,-8.0032,-7.988,-7.7019,-7.6415,-7.4808,-7.8119,-7.4402,-7.0254,-7.0785,-6.9007,-6.7313,-6.7807,-6.8642,-6.9211,-6.9211,-6.9667,-7.0123,-7.0426,-7.092,-7.1489,-7.2059,-7.3046,-7.3843,-7.4147,-7.464,-7.4982,-7.4982,-7.4982,-7.4982,-7.4982,-7.4982,-7.4982,-7.4982,-7.4982,-7.5134,-7.54,-7.5931,-7.6501,-7.7108,-7.7678,-7.8399,-7.9234,-7.9766,-8.0032,-8.0032,-8.0032,-8.0032,-8.0032,-8.0032,-8.0032,-8.0032,-8.0032,-8.0032,-8.0032,-8.0032,-8.0032,-8.0032,-8.0032,-8.0032,-8.0032,-8.0032,-8.0032,-8.0032,-8.0032,-8.0032,-8.0032,-8.0032,-8.0032,-8.0032,-8.0032,-8.0032,-8.0032,-8.0032,-8.0032,-8.0032,-8.0032,-8.0032,-8.0032,-8.0032,-8.0032,-8.0032,-8.0032,-8.0032,-8.0032,-8.0032,-8.0032,-8.0032,-8.0032,-8.0032,-8.0032,-8.0032,-8.0032,-8.0032,-8.0032,-8.0032,-8.0032,-8.0032,-8.0032,-8.0032,-8.0032,-8.0032,-8.0032,-8.0032,-8.0032,-8.0032,-8.0032,-8.0032,-8.0032,-8.0032,-8.0032,-7.7337,-7.2116,-7.4777,-7.1615,-7.4041,-7.3941,-7.2973,-7.5125,-7.2597,-6.9406,-6.9004,-6.7598,-6.6402,-6.6933,-6.7731,-6.8452,-6.8756,-6.9249,-6.9705,-6.9971,-7.0502,-7.0958,-7.1261,-7.2211,-7.3084,-7.3653,-7.4223,-7.4678,-7.4944,-7.4982,-7.4982,-7.4982,-7.4982,-7.4982,-7.4982,-7.4982,-7.4982,-7.4982,-7.5514,-7.5931,-7.6197,-7.6804,-7.7526,-7.8361,-7.8931,-7.9348,-7.9614,-7.9918,-8.0032,-8.0032,-8.0032,-8.0032,-8.0032,-8.0032,-8.0032,-8.0032,-8.0032,-8.0032,-8.0032,-8.0032,-8.0032,-8.0032,-8.0032,-8.0032,-8.0032,-8.0032,-8.0032,-8.0032,-8.0032,-8.0032,-8.0032,-8.0032,-8.0032,-8.0032,-8.0032,-8.0032,-8.0032,-8.0032,-8.0032,-8.0032,-8.0032,-8.0032,-8.0032,-8.0032,-8.0032,-8.0032,-8.0032,-8.0032,-8.0032,-8.0032,-8.0032,-8.0032,-8.0032,-8.0032,-8.0032,-8.0032,-8.0032,-8.0032,-8.0032,-8.0032,-8.0032,-8.0032,-8.0032,-8.0032,-8.0032,-8.0032,-7.9388,-7.7947,-7.7947,-7.7185,-7.5888,-7.5888,-7.2891,-6.7514,-7.0369,-6.7041,-6.8291,-6.9059,-6.9192,-6.9551,-6.963,-6.8804,-6.5778,-6.5729,-6.6299,-6.6337,-6.6857,-6.7693,-6.8566,-6.8756,-6.9059,-6.9857,-7.0009,-7.0312,-7.1148,-7.1261,-7.1869,-7.3463,-7.3691,-7.4033,-7.483,-7.4944,-7.4944,-7.4944,-7.4982,-7.4982,-7.4982,-7.4982,-7.4982,-7.4982,-7.4982,-7.5362,-7.6159,-7.6159,-7.6615,-7.7526,-7.7526,-7.7943,-7.8779,-7.9576,-7.9994,-7.9994,-7.9994,-8.0032,-8.0032,-8.0032,-8.0032,-8.0032,-8.0032,-8.0032,-8.0032,-8.0032,-8.0032,-8.0032,-8.0032,-8.0032,-8.0032,-8.0032,-8.0032,-8.0032,-8.0032,-8.0032,-8.0032,-8.0032,-8.0032,-8.0032,-8.0032,-8.0032,-8.0032,-8.0032,-8.0032,-8.0032,-8.0032,-8.0032,-8.0032,-8.0032,-8.0032,-8.0032,-8.0032,-8.0032,-8.0032,-8.0032,-8.0032,-8.0032,-8.0032,-8.0032,-8.0032,-8.0032,-8.0032,-8.0032,-8.0032,-8.0032,-8.0032,-8.0032,-8.0032,-7.988,-7.988,-7.9729,-7.7794,-7.3509,-7.3663,-7.1615,-6.7514,-6.7514,-6.7514,-6.7199,-6.7199,-6.7199,-7.1698,-6.9201,-6.7494,-7.4571,-7.2907,-6.921,-6.8481,-6.8525,-6.7999,-6.5794,-6.5984,-6.663,-6.6895,-6.7958,-6.887,-6.9097,-6.9629,-7.0085,-7.0312,-7.0882,-7.1451,-7.1907,-7.3008,-7.3577,-7.3236,-7.3729,-7.4071,-7.4071,-7.464,-7.4982,-7.4982,-7.4982,-7.4982,-7.4982,-7.4982,-7.5096,-7.5324,-7.5324,-7.5741,-7.6577,-7.6577,-7.7032,-7.7905,-7.8133,-7.8551,-7.912,-7.912,-7.9462,-8.0032,-8.0032,-8.0032,-8.0032,-8.0032,-8.0032,-8.0032,-8.0032,-8.0032,-8.0032,-8.0032,-8.0032,-8.0032,-8.0032,-8.0032,-8.0032,-8.0032,-8.0032,-8.0032,-8.0032,-8.0032,-8.0032,-8.0032,-8.0032,-8.0032,-8.0032,-8.0032,-8.0032,-8.0032,-8.0032,-8.0032,-8.0032,-8.0032,-8.0032,-8.0032,-8.0032,-8.0032,-8.0032,-8.0032,-8.0032,-8.0032,-8.0032,-8.0032,-8.0032,-8.0032,-8.0032,-8.0032,-8.0032,-8.0032,-8.0032,-7.7148,-7.5428,-7.5428,-7.2581,-7.0369,-6.9242,-7.2081,-7.1615,-6.7514,-7.0525,-6.8772,-6.2784,-6.2784,-6.1211,-6.9014,-6.7798,-6.7411,-7.1878,-7.1091,-6.9051,-6.7777,-6.7579,-6.7122,-6.5342,-6.5377,-6.5794,-6.6174,-6.7047,-6.7845,-6.8186,-6.8946,-6.9515,-6.9515,-7.0236,-7.0882,-7.1224,-7.2135,-7.2514,-7.2021,-7.2742,-7.335,-7.3691,-7.4185,-7.4602,-7.4944,-7.4982,-7.4982,-7.4982,-7.4982,-7.4982,-7.4982,-7.4982,-7.521,-7.5703,-7.5703,-7.6159,-7.6994,-7.6994,-7.745,-7.8247,-7.8247,-7.8551,-7.9006,-7.9006,-7.9196,-7.95,-7.95,-7.9728,-7.9956,-7.9272,-7.9006,-7.9044,-7.9386,-7.95,-7.9576,-7.9918,-8.0032,-8.0032,-8.0032,-8.0032,-8.0032,-8.0032,-8.0032,-8.0032,-8.0032,-8.0032,-8.0032,-8.0032,-8.0032,-8.0032,-8.0032,-8.0032,-8.0032,-8.0032,-8.0032,-8.0032,-8.0032,-8.0032,-8.0032,-8.0032,-8.0032,-8.0032,-8.0032,-8.0032,-8.0032,-8.0032,-8.0032,-8.0032,-8.0032,-8.0032,-8.0032,-8.0032,-7.7794,-7.6347,-7.6347,-7.2271,-6.9242,-6.7514,-6.8144,-6.641,-6.2144,-6.4667,-6.3264,-5.8496,-5.8496,-5.709,-6.3304,-6.5415,-6.8052,-6.5824,-6.7068,-6.811,0.0,-6.4991,-6.5049,-6.4909,-6.469,-6.4716,-6.5564,-6.5814,-6.606,-6.6782,-6.7883,-6.868,-6.8794,-6.9439,-7.016,-7.092,-7.0996,-7.1034,-7.1148,-7.1869,-7.2666,-7.3388,-7.3539,-7.3919,-7.4678,-7.4792,-7.483,-7.483,-7.4944,-7.4982,-7.4982,-7.4982,-7.4982,-7.4982,-7.4982,-7.5362,-7.6083,-7.6083,-7.6501,-7.726,-7.7374,-7.7412,-7.7412,-7.7526,-7.7981,-7.8627,-7.8627,-7.9082,-7.9576,-7.8095,-7.7564,-7.764,-7.8399,-7.8627,-7.8741,-7.95,-7.9766,-7.9766,-7.9766,-7.9804,-7.988,-7.988,-7.9956,-8.0032,-8.0032,-8.0032,-8.0032,-8.0032,-8.0032,-8.0032,-8.0032,-8.0032,-8.0032,-8.0032,-8.0032,-8.0032,-8.0032,-8.0032,-8.0032,-8.0032,-8.0032,-8.0032,-8.0032,-8.0032,-8.0032,-8.0032,-8.0032,-8.0032,-8.0032,-8.0032,-8.0032,-8.0032,-7.9729,-7.9085,-7.8744,-7.4624,-7.0369,-6.6094,-6.2784,-5.8982,-5.4857,-5.5348,-5.5348,-5.4857,-5.4857,-5.4805,0.0,0.0,0.0,0.0,0.0,0.0,0.0,-6.7092,-6.6683,-6.5049,-6.3155,-6.1823,-6.1982,-6.2738,-6.3289,-6.3441,-6.587,-6.7958,-6.8718,-6.8946,-6.9097,-6.9249,-6.9287,-6.9553,-7.0198,-7.1034,-7.1565,-7.1755,-7.2362,-7.2818,-7.297,-7.3615,-7.3957,-7.3957,-7.464,-7.4982,-7.4982,-7.4982,-7.4982,-7.4982,-7.4982,-7.5058,-7.521,-7.521,-7.5324,-7.5514,-7.6197,-7.6463,-7.6539,-7.726,-7.764,-7.7792,-7.7792,-7.7905,-7.7981,-7.7678,-7.7564,-7.7564,-7.7716,-7.7792,-7.783,-7.7981,-7.8019,-7.8019,-7.8019,-7.8475,-7.9006,-7.9006,-7.95,-8.0032,-8.0032,-8.0032,-8.0032,-8.0032,-8.0032,-8.0032,-8.0032,-8.0032,-8.0032,-8.0032,-8.0032,-8.0032,-8.0032,-8.0032,-8.0032,-8.0032,-8.0032,-8.0032,-8.0032,-8.0032,-8.0032,-8.0032,-8.0032,-8.0032,-8.0032,-8.0032,-8.0032,-8.0032,-7.6842,-7.3355,-7.0057,-6.5777,-6.1503,-5.7415,-5.9762,-5.8982,-5.4857,-5.82,-5.8038,-5.4857,-5.4857,-5.4388,0.0,0.0,0.0,0.0,0.0,0.0,0.0,0.0,0.0,0.0,0.0,-6.1763,-6.1166,0.0,-6.332,-6.2118,-6.4693,-6.7009,-6.7465,-6.7883,-6.811,-6.811,-6.8528,-6.8946,-6.9363,-7.016,-7.0844,-7.1261,-7.1679,-7.2059,-7.2476,-7.2894,-7.3122,-7.3122,-7.3919,-7.4337,-7.4337,-7.4792,-7.4982,-7.4982,-7.4982,-7.4982,-7.4982,-7.4982,-7.4982,-7.502,-7.54,-7.559,-7.5628,-7.6083,-7.6501,-7.6842,-7.6425,-7.6273,-7.6273,-7.6273,-7.6273,-7.6311,-7.6729,-7.688,-7.6956,-7.7412,-7.7564,-7.7564,-7.7564,-7.783,-7.8171,-7.8171,-7.8475,-7.8779,-7.8779,-7.9082,-7.9386,-7.9386,-7.9728,-8.0032,-8.0032,-8.0032,-8.0032,-8.0032,-8.0032,-8.0032,-8.0032,-8.0032,-8.0032,-8.0032,-8.0032,-8.0032,-8.0032,-8.0032,-7.9538,-7.8247,-7.9272,-7.95,-7.8247,-7.931,-8.0032,-8.0032,-7.8099,-7.5888,-7.3853,-6.7672,-6.3083,-6.0716,-5.8505,-5.6332,-5.4023,-5.6034,-5.6034,-5.4023,-5.4023,-5.3711,0.0,0.0,0.0,0.0,0.0,0.0,0.0,0.0,0.0,0.0,0.0,0.0,0.0,0.0,0.0,-6.0745,-6.3213,-6.5491,-6.6136,-6.6668,-6.7047,-6.7199,-6.7845,-6.8376,-6.8528,-6.9135,-6.9895,-7.073,-7.0806,-7.1148,-7.1983,-7.2173,-7.2249,-7.2249,-7.3046,-7.3501,-7.3501,-7.4147,-7.4489,-7.4527,-7.4678,0.0,-7.4754,-7.4906,-7.4982,-7.4982,-7.4982,-7.4982,-7.4982,-7.4982,-7.5362,-7.5855,-7.4906,-7.4489,-7.4489,-7.4489,-7.4602,-7.483,-7.5514,-7.5817,-7.6083,-7.6804,-7.707,-7.707,-7.707,-7.7146,0.0,-7.7298,-7.7412,-7.7564,-7.7564,-7.8057,-7.8551,-7.8551,-7.9044,-7.9538,-7.9538,-7.9538,-7.9614,-7.9766,-7.9804,-7.9842,-7.9994,-7.8898,-7.7771,-7.7434,-7.7396,-7.7768,-7.8551,-7.9006,-7.8178,-7.5374,-7.7248,-7.7621,-7.4839,-7.669,-7.8409,-7.8896,-7.9087,-7.8972,-7.8222,-7.0695,-6.5791,-6.4042,-5.6565,-5.2641,-5.2511,-5.2511,-5.2825,-5.2979,-5.2457,-5.2423,0.0,0.0,0.0,0.0,0.0,0.0,0.0,0.0,0.0,0.0,0.0,0.0,0.0,0.0,0.0,0.0,-6.01,-6.2871,-6.5832,-6.5681,-6.5529,-6.6288,-6.644,-6.682,-6.7541,-6.7693,-6.811,-6.9022,-6.9097,-6.9439,-7.0274,-7.0996,0.0,0.0,0.0,-7.2628,-7.2628,-7.2742,-7.278,-7.278,-7.3501,-7.3843,-7.3881,-7.464,-7.4982,-7.4982,-7.4982,-7.4982,-7.4982,-7.4982,-7.5058,-7.4982,-7.3388,-7.278,-7.278,-7.278,-7.3236,-7.3881,-7.3957,0.0,0.0,-7.5248,-7.5286,-7.5286,-7.5286,-7.5779,-7.6349,-7.6349,-7.6918,-7.7564,-7.7564,-7.7602,-7.7678,-7.7678,-7.7754,-7.783,-7.783,-7.783,-7.8057,-7.8779,-7.8893,-7.9158,-7.9918,-7.4654,-6.9725,-6.829,-6.8075,-6.9334,-7.2959,-7.5286,-7.5159,-7.118,-7.2937,0.0,-6.8756,-7.0125,-7.2124,-7.4328,-7.5873,-7.498,-7.124,-6.6067,-6.0784,-5.5354,-5.0812,-4.9291,-5.0897,-5.0897,-5.1525,-5.3033,-5.0413,-5.0108,0.0,0.0,0.0,0.0,0.0,0.0,0.0,0.0,0.0,0.0,0.0,0.0,0.0,0.0,0.0,0.0,-6.0158,-6.158,-6.2491,-6.2757,-6.3479,-6.5263,-6.5946,-6.6364,-6.6706,-6.7161,-6.7617,-6.7996,-6.7996,-6.8186,-6.8528,-6.9363,-6.9819,-6.9819,-7.111,-7.1793,-7.1793,-7.2249,-7.2514,-7.2514,-7.2856,-7.3008,-7.3008,-7.3388,-7.3539,-7.3539,-7.3539,-7.3539,-7.3539,-7.3539,-7.3539,-7.3463,0.0,0.0,0.0,0.0,-7.2704,-7.3008,-7.3008,-7.3236,-7.3539,-7.3539,-7.3539,-7.3539,-7.3539,-7.3767,-7.4033,-7.4033,-7.4678,-7.5324,-7.5324,-7.6045,-7.6766,-7.6766,-7.7184,-7.7564,-7.7564,-7.7564,-7.764,-7.7981,-7.8057,0.0,-7.2448,-7.0999,-6.9409,-6.6531,-6.7917,-6.9215,-6.8658,-6.9525,-6.9951,-6.952,-7.163,-7.3103,-7.2635,-7.4057,0.0,0.0,0.0,-7.1635,-6.7722,-6.7714,0.0,0.0,0.0,-5.0379,-5.4219,-5.1041,0.0,0.0,-4.8937,-4.827,0.0,0.0,0.0,0.0,0.0,0.0,0.0,0.0,0.0,0.0,0.0,0.0,0.0,0.0,0.0,0.0,-5.8953,-5.9734,-5.985,-6.044,-6.1694,-6.3706,-6.5111,-6.587,-6.587,-6.6402,-6.6857,-6.7085,-6.7123,-6.7199,-6.7427,-6.8072,-6.8414,-6.8414,-6.9591,-7.035,-7.0578,-7.1186,-7.1603,-7.1831,-7.2059,-7.2173,-7.2173,-7.24,-7.2514,-7.2514,-7.2514,-7.2514,-7.2514,-7.2514,-7.2514,-7.2438,-7.1983,-7.1831,-7.1831,-7.1831,-7.1831,-7.1831,-7.2097,-7.2325,-7.2514,-7.2514,-7.2514,-7.2514,-7.2514,-7.2514,-7.2514,-7.2514,-7.2932,-7.3388,-7.3388,-7.4261,-7.5172,-7.5172,-7.5703,-7.6235,-7.6463,-7.6501,-7.6325,-7.5719,-7.5125,-7.2318,-6.4971,-6.6214,-6.6654,-6.2403,-6.43,-6.5526,-6.3803,-6.4201,-6.4767,-6.5194,-6.7655,-6.9285,-6.9838,-7.1445,-7.186,-7.0944,-6.9576,-6.8797,-6.8608,-6.8626,-6.8005,-6.6492,-5.3992,-4.9779,0.0,0.0,0.0,0.0,0.0,0.0,0.0,0.0,0.0,0.0,0.0,0.0,0.0,0.0,0.0,0.0,0.0,0.0,0.0,0.0,0.0,0.0,0.0,0.0,-5.9166,-5.9897,-6.0403,-6.1277,-6.3516,-6.4997,-6.4997,-6.5035,-6.5377,-6.6212,-6.625,-6.663,-6.7389,-6.7465,-6.7503,-6.7503,-6.7541,-6.7996,-6.887,-6.8908,-6.9325,-7.0123,-7.092,-7.1299,-7.1337,-7.2135,-7.2514,-7.2514,-7.2514,-7.2514,-7.2514,-7.2514,-7.2514,-7.2362,-7.073,-7.0085,-7.0085,-7.0085,-7.0085,-7.0198,-7.1034,-7.1831,-7.2514,-7.2514,-7.2514,-7.2514,-7.2514,-7.2514,-7.2514,-7.2514,-7.2514,-7.2552,-7.2552,-7.259,-7.2628,-7.2628,-7.2628,-7.2894,-7.3653,-7.3843,-7.3173,-7.1042,-6.8905,-6.5466,-5.9696,-5.9209,-5.7836,-5.258,-5.2246,0.0,-5.7938,-6.0511,-6.0439,-5.6491,-5.8181,-5.8069,-5.422,-5.5378,-5.8988,-6.5175,-6.3346,-6.6193,-7.5583,-6.6589,-6.0914,-6.0043,-4.9842,-4.5245,-4.6642,0.0,0.0,0.0,0.0,0.0,0.0,0.0,0.0,0.0,0.0,0.0,0.0,0.0,0.0,0.0,0.0,0.0,0.0,0.0,0.0,0.0,0.0,0.0,0.0,-5.6149,-5.7632,-6.0138,-6.1201,-6.1922,-6.2453,-6.2491,-6.2643,-6.2909,-6.4466,-6.5529,-6.5794,-6.6326,-6.663,-6.663,-6.7161,-6.7579,-6.7883,-6.7921,-6.8034,-6.8338,-6.8604,-6.8756,-6.8756,-6.9667,-7.0047,-7.0085,-7.0616,-7.0844,-7.0844,-7.0844,-7.0198,-6.9097,-6.8528,-6.8338,-6.8338,-6.8338,-6.8338,-6.8338,-6.8642,-6.8908,-6.9173,-6.9173,-6.9173,-6.9173,-6.9173,-6.9173,-6.9173,-6.9173,-6.9971,-7.0844,-7.0844,-7.1679,-7.2514,-7.2514,-7.2514,-7.1866,-6.9801,-6.9316,-6.904,-6.8269,-6.5409,-6.2371,-6.0353,-5.8191,-5.623,-5.4277,-5.4455,-5.4512,-5.328,-5.4082,-5.5591,-5.7354,-5.8268,-6.0516,-6.4902,-6.2976,-6.2299,-6.4533,-6.0656,-5.8534,-5.9104,-5.8078,-5.5992,-5.2982,-5.3808,-5.0949,-4.3889,0.0,0.0,0.0,0.0,0.0,0.0,0.0,0.0,0.0,0.0,0.0,0.0,0.0,0.0,0.0,0.0,0.0,0.0,0.0,0.0,0.0,0.0,0.0,0.0,0.0,0.0,-5.915,-6.0365,0.0,-6.0821,-6.0821,-6.0593,-5.9948,-6.139,-6.2681,-6.3592,-6.4162,-6.4845,-6.5756,-6.6288,-6.6706,-6.7009,-6.7009,-6.7161,-6.7465,-6.7465,-6.7465,-6.7465,-6.8072,-6.83,-6.8338,-6.887,-6.9097,-6.9097,-6.9097,-6.8452,-6.7351,-6.6478,-6.6136,-6.6136,-6.6136,-6.6136,-6.625,-6.7161,-6.7465,-6.7465,-6.7465,-6.7465,-6.7275,-6.6402,-6.6136,-6.5946,-6.5073,-6.625,-6.7769,-6.7769,-6.9211,-7.0692,-7.0692,-7.0692,-7.0174,-6.8488,-6.805,-6.7185,-6.3981,-6.1331,-5.9131,-5.8121,-5.6275,-5.4454,-5.319,-5.3554,-5.3059,-5.0599,-5.046,-5.1941,-5.5378,-5.5739,-5.8071,-6.3833,-6.1339,-6.0039,-6.1388,-5.6666,-5.4072,-5.4368,-5.3432,-5.2809,-5.2954,-5.4342,-5.2196,0.0,0.0,0.0,0.0,0.0,0.0,0.0,0.0,0.0,0.0,0.0,0.0,0.0,0.0,0.0,0.0,0.0,0.0,0.0,0.0,0.0,0.0,0.0,0.0,0.0,0.0,0.0,-5.8087,-6.0631,0.0,0.0,0.0,0.0,-5.7398,-5.7398,-5.8391,-6.0821,-6.0973,-6.215,-6.4655,-6.4769,-6.5225,-6.6174,-6.6174,-6.6554,-6.7313,-6.7313,-6.7313,-6.7313,-6.7389,-6.7389,-6.7389,-6.7427,-6.7465,-6.7427,-6.7237,-6.7123,-6.6895,-6.4542,-6.3554,-6.3441,-6.3441,-6.3441,-6.3782,-6.6136,-6.7047,-6.7123,-6.7123,-6.7123,-6.6706,-6.4352,-6.3516,0.0,0.0,-6.1656,-6.3516,-6.363,-6.5453,-6.7275,-6.7427,-6.7465,-6.7883,-6.9252,-6.9593,-6.705,-5.8686,-5.6936,-5.6128,-5.3785,0.0,-5.234,-5.0066,-4.9514,-4.9543,-4.9769,-4.9699,-4.981,-5.0356,-5.0408,-5.0767,-5.1467,-5.0871,-5.2163,-5.6107,-5.2043,-5.2986,-6.0685,-5.2649,-5.1377,-5.8523,-5.1471,0.0,0.0,0.0,0.0,0.0,0.0,0.0,0.0,0.0,0.0,0.0,0.0,0.0,0.0,0.0,0.0,0.0,0.0,0.0,0.0,0.0,0.0,0.0,0.0,0.0,0.0,-5.2817,-5.3753,-5.6554,-5.5809,-5.5392,0.0,0.0,0.0,0.0,0.0,0.0,-5.6569,-5.7176,-5.8657,-6.1239,-6.1884,-6.3213,-6.5263,-6.5301,-6.5415,-6.5605,-6.5605,-6.5605,-6.5605,-6.625,-6.6554,-6.6592,-6.7199,-6.7465,-6.7199,-6.4124,-6.2833,-6.2795,-6.215,-6.0745,-5.9075,-5.9075,-5.9075,-5.9188,-5.9796,-6.1277,-6.2833,-6.2833,-6.2833,-6.2719,-6.2074,0.0,0.0,0.0,0.0,-6.0441,-6.234,-6.3782,-6.5149,-6.7009,-6.7465,-6.6774,-6.4557,-6.3976,-6.3592,-6.2189,-5.9818,-5.7968,-5.8278,-5.3815,0.0,-5.5426,-5.2214,-4.9981,-5.1911,-5.0617,-4.9655,-4.981,-4.981,-5.1029,-5.4227,-5.1651,-5.1544,-5.5587,-5.1565,-5.0876,-5.5035,-5.2557,-5.2083,-5.4163,0.0,0.0,0.0,0.0,0.0,0.0,0.0,0.0,0.0,0.0,0.0,0.0,0.0,0.0,0.0,0.0,0.0,0.0,0.0,0.0,0.0,0.0,0.0,0.0,0.0,0.0,0.0,-5.116,-5.2981,-5.5699,-5.4803,-5.422,0.0,0.0,0.0,0.0,0.0,0.0,0.0,0.0,0.0,-5.7746,-5.8619,-6.0251,-6.2795,-6.3175,-6.3896,-6.4959,-6.4959,-6.4959,-6.4997,-6.5453,-6.5681,-6.5643,-6.4997,-6.4731,-6.4542,-6.2226,-6.1277,-6.1049,0.0,0.0,0.0,0.0,-5.5088,-5.4936,-5.5999,-5.8049,-5.9948,-5.8885,0.0,0.0,0.0,0.0,0.0,0.0,0.0,-5.7936,-5.9378,-6.1998,-6.4617,-6.6022,-6.6364,-6.5937,-6.4242,-6.1557,-5.9311,-5.8801,-5.6777,-5.5196,-5.5037,-5.1437,0.0,0.0,0.0,-4.8649,-4.9287,-4.8831,-4.8668,-4.9161,-4.9213,-5.0176,-5.2748,-5.0645,-5.0112,-5.2001,-4.9578,-4.8564,-5.0034,-4.982,-5.0603,0.0,0.0,0.0,0.0,0.0,0.0,0.0,0.0,0.0,0.0,0.0,0.0,0.0,0.0,0.0,0.0,0.0,0.0,0.0,0.0,0.0,0.0,0.0,0.0,0.0,0.0,0.0,0.0,0.0,-5.1734,-5.499,0.0,0.0,0.0,0.0,0.0,0.0,0.0,0.0,0.0,0.0,0.0,0.0,0.0,-5.6797,-5.934,-6.01,-6.1504,-6.3668,-6.3782,-6.382,-6.382,-6.3934,-6.3972,-6.3858,-6.1466,0.0,-6.0859,-6.0213,0.0,0.0,0.0,0.0,0.0,0.0,0.0,0.0,0.0,0.0,0.0,0.0,0.0,0.0,0.0,0.0,0.0,0.0,0.0,0.0,0.0,0.0,-6.3782,-6.42,-6.4314,-6.439,-6.4693,-6.0176,-5.53,-5.2681,-5.1572,-5.0627,0.0,0.0,0.0,0.0,0.0,0.0,-4.5652,-4.6334,-4.7317,-4.8304,-4.8408,-4.8616,-4.9109,-4.8694,-4.82,-4.7707,-4.7261,-4.7136,-4.6965,-4.7253,0.0,0.0,0.0,0.0,0.0,0.0,0.0,0.0,0.0,0.0,0.0,0.0,0.0,0.0,0.0,0.0,0.0,0.0,0.0,0.0,0.0,0.0,0.0,0.0,0.0,0.0,0.0,0.0,0.0,0.0,0.0,0.0,0.0,0.0,0.0,0.0,0.0,0.0,0.0,0.0,0.0,0.0,0.0,0.0,0.0,0.0,0.0,0.0,0.0,0.0,-5.7404,-5.7746,-5.7746,-5.8467,-5.8771,-5.8695,-5.6873,-5.7252,-5.8809,-5.4708,0.0,0.0,0.0,0.0,0.0,0.0,0.0,0.0,0.0,0.0,0.0,0.0,0.0,0.0,0.0,0.0,0.0,0.0,0.0,0.0,0.0,0.0,-5.7442,-6.0251,-6.0897,-6.0176,-5.7518,0.0,0.0,0.0,0.0,0.0,0.0,0.0,0.0,0.0,0.0,0.0,-5.04,-4.8088,-4.6434,-4.6642,-4.6642,-4.6694,-4.6798,-4.672,-4.6616,-4.6512,-4.7157,-4.8532,0.0,0.0,0.0,0.0,0.0,0.0,0.0,0.0,0.0,0.0,0.0,0.0,0.0,0.0,0.0,0.0,0.0,0.0,0.0,0.0,0.0,0.0,0.0,0.0,0.0,0.0,0.0,0.0,0.0,0.0,0.0,0.0,0.0,0.0,0.0,0.0,0.0,0.0,0.0,0.0,0.0,0.0,0.0,0.0,0.0,0.0,0.0,0.0,0.0,0.0,0.0,0.0,0.0,0.0,0.0,0.0,0.0,0.0,-5.5316,-5.3494,0.0,0.0,0.0,0.0,0.0,0.0,0.0,0.0,0.0,0.0,0.0,0.0,0.0,0.0,0.0,0.0,0.0,0.0,0.0,0.0,0.0,0.0,0.0,0.0,0.0,0.0,0.0,0.0,0.0,0.0,0.0,0.0,0.0,0.0,0.0,0.0,0.0,0.0,0.0,0.0,-4.7809,-4.664,-4.5889,-4.6175,-4.6201,-4.6201,-4.6201,-4.6201,-4.5681,-4.4487,-4.4881,0.0,0.0,0.0,0.0,0.0,0.0,0.0,0.0,0.0,0.0,0.0,0.0,0.0,0.0,0.0,0.0,0.0,0.0,0.0,0.0,0.0,0.0,0.0,0.0,0.0,0.0,0.0,0.0,0.0,0.0,0.0,0.0,0.0,0.0,0.0,0.0,0.0,0.0,0.0,0.0,0.0,0.0,0.0,0.0,0.0,0.0,0.0,0.0,0.0,0.0,0.0,0.0,0.0,0.0,0.0,0.0,0.0,0.0,0.0,-5.338,-4.9849,0.0,0.0,0.0,0.0,0.0,0.0,0.0,0.0,0.0,0.0,0.0,0.0,0.0,0.0,0.0,0.0,0.0,0.0,0.0,0.0,0.0,0.0,0.0,0.0,0.0,0.0,0.0,0.0,0.0,0.0,0.0,0.0,0.0,0.0,0.0,0.0,0.0,0.0,0.0,0.0,-4.4868,-4.5008,-4.5318,-4.5785,-4.5837,-4.5837,-4.5837,-4.5837,-4.5145,-4.3563,-4.3563,0.0,0.0,0.0,0.0,0.0,0.0,0.0,0.0,0.0,0.0,0.0,0.0,0.0,0.0,0.0,0.0,0.0,0.0,0.0,0.0,0.0,0.0,0.0,0.0,0.0,0.0,0.0,0.0,0.0,0.0,0.0,0.0,0.0,0.0,0.0,0.0,0.0,0.0,0.0,0.0,0.0,0.0,0.0,0.0,0.0,0.0,0.0,0.0,0.0,0.0,0.0,0.0,0.0,0.0,0.0,0.0,0.0,0.0,0.0,0.0,0.0,0.0,0.0,0.0,0.0,0.0,0.0,0.0,0.0,0.0,0.0,0.0,0.0,0.0,0.0,0.0,0.0,0.0,0.0,0.0,0.0,0.0,0.0,0.0,0.0,0.0,0.0,0.0,0.0,0.0,0.0,0.0,0.0,0.0,0.0,0.0,0.0,0.0,0.0,0.0,0.0,-4.6832,-4.5612,-4.4539,-4.4724,-4.4724,-4.4724,-4.4724,-4.4724,-4.4991,-4.5525,0.0,0.0,0.0,0.0,0.0,0.0,0.0,0.0,0.0,0.0,0.0,0.0,0.0,0.0,0.0,0.0,0.0,0.0,0.0,0.0,0.0,0.0,0.0,0.0,0.0,0.0,0.0,0.0,0.0,0.0,0.0,0.0,0.0,0.0,0.0,0.0,0.0,0.0,0.0,0.0,0.0,0.0,0.0,0.0,0.0,0.0,0.0,0.0,0.0,0.0,0.0,0.0,0.0,0.0,0.0,0.0,0.0,0.0,0.0,0.0,0.0,0.0,0.0,0.0,0.0,0.0,0.0,0.0,0.0,0.0,0.0,0.0,0.0,0.0,0.0,0.0,0.0,0.0,0.0,0.0,0.0,0.0,0.0,0.0,0.0,0.0,0.0,0.0,0.0,0.0,0.0,0.0,0.0,0.0,0.0,0.0,0.0,0.0,0.0,0.0,0.0,0.0,-4.6374,-4.5401,-4.4568,-4.4568,-4.4568,-4.4568,-4.4568,-4.4568,-4.4533,-4.4407,0.0,0.0,0.0,0.0,0.0,0.0,0.0,0.0,0.0,0.0,0.0,0.0,0.0,0.0,0.0,0.0,0.0,0.0,0.0,0.0,0.0,0.0,0.0,0.0,0.0,0.0,0.0,0.0,0.0,0.0,0.0,0.0,0.0,0.0,0.0,0.0,0.0,0.0,0.0,0.0,0.0,0.0,0.0,0.0,0.0,0.0,0.0,0.0,0.0,0.0,0.0,0.0,0.0,0.0,0.0,0.0,0.0,0.0,0.0,0.0,0.0,0.0,0.0,0.0,0.0,0.0,0.0,0.0,0.0,0.0,0.0,0.0,0.0,0.0,0.0,0.0,0.0,0.0,0.0,0.0,0.0,0.0,0.0,0.0,0.0,0.0,0.0,0.0,0.0,0.0,0.0,0.0,0.0,0.0,0.0,0.0,0.0,0.0,0.0,0.0,0.0,0.0,-4.5969,-4.5137,-4.4568,-4.4568,-4.4568,-4.4568,-4.4568,-4.4099,-4.3597,-4.3126,0.0,0.0,0.0,0.0,0.0,0.0,0.0,0.0,0.0,0.0,0.0,0.0,0.0,0.0,0.0,0.0,0.0,0.0,0.0,0.0,0.0,0.0,0.0,0.0,0.0,0.0,0.0,0.0,0.0,0.0,0.0,0.0,0.0,0.0,0.0,0.0,0.0,0.0,0.0,0.0,0.0,0.0,0.0,0.0,0.0,0.0,0.0,0.0,0.0,0.0,0.0,0.0,0.0,0.0,0.0,0.0,0.0,0.0,0.0,0.0,0.0,0.0,0.0,0.0,0.0,0.0,0.0,0.0,0.0,0.0,0.0,0.0,0.0,0.0,0.0,0.0,0.0,0.0,0.0,0.0,0.0,0.0,0.0,0.0,0.0,0.0,0.0,0.0,0.0,0.0,0.0,0.0,0.0,0.0,0.0,0.0,0.0,0.0,0.0,0.0,0.0,0.0,-4.5969,-4.5137,-4.4568,-4.4568,-4.4568,-4.4568,-4.4568,-4.3031,-4.2126,0.0,0.0,0.0,0.0,0.0,0.0,0.0,0.0,0.0,0.0,0.0,0.0,0.0,0.0,0.0,0.0,0.0,0.0,0.0,0.0,0.0,0.0,0.0,0.0,0.0,0.0,0.0,0.0,0.0,0.0,0.0,0.0,0.0,0.0,0.0,0.0,0.0,0.0,0.0,0.0,0.0,0.0,0.0,0.0,0.0,0.0,0.0,0.0,0.0,0.0,0.0,0.0,0.0,0.0,0.0,0.0,0.0,0.0,0.0,0.0,0.0,0.0,0.0,0.0,0.0,0.0,0.0,0.0,0.0,0.0,0.0,0.0,0.0,0.0,0.0,0.0,0.0,0.0,0.0,0.0,0.0,0.0,0.0,0.0,0.0,0.0,0.0,0.0,0.0,0.0,0.0,0.0,0.0,0.0,0.0,0.0,0.0,0.0,0.0,0.0,0.0,0.0,0.0,-4.4877,-4.3402,-4.2721,-4.4279,-4.4568,-4.4568,-4.4568,-4.4073,-4.3383,-4.2468,0.0,0.0,0.0,0.0,0.0,0.0,0.0,0.0,0.0,0.0,0.0,0.0,0.0,0.0,0.0,0.0,0.0,0.0,0.0,0.0,0.0,0.0,0.0,0.0,0.0,0.0,0.0,0.0,0.0,0.0,0.0,0.0,0.0,0.0,0.0,0.0,0.0,0.0,0.0,0.0,0.0,0.0,0.0,0.0,0.0,0.0,0.0,0.0,0.0,0.0,0.0,0.0,0.0,0.0,0.0,0.0,0.0,0.0,0.0,0.0,0.0,0.0,0.0,0.0,0.0,0.0,0.0,0.0,0.0,0.0,0.0,0.0,0.0,0.0,0.0,0.0,0.0,0.0,0.0,0.0,0.0,0.0,0.0,0.0,0.0,0.0,0.0,0.0,0.0,0.0,0.0,0.0,0.0,0.0,0.0,0.0,0.0,0.0,0.0,0.0,0.0,0.0,0.0,-4.2279,-4.2305,-4.3941,-4.4123,-4.4123,-4.4123,-4.3526,-4.2351,-4.0375,0.0,0.0,0.0,0.0,0.0,0.0,0.0,0.0,0.0,0.0,0.0,0.0,0.0,0.0,0.0,0.0,0.0,0.0,0.0,0.0,0.0,0.0,0.0,0.0,0.0,0.0,0.0,0.0,0.0,0.0,0.0,0.0,0.0,0.0,0.0,0.0,0.0,0.0,0.0,0.0,0.0,0.0,0.0,0.0,0.0,0.0,0.0,0.0,0.0,0.0,0.0,0.0,0.0,0.0,0.0,0.0,0.0,0.0,0.0,0.0,0.0,0.0,0.0,0.0,0.0,0.0,0.0,0.0,0.0,0.0,0.0,0.0,0.0,0.0,0.0,0.0,0.0,0.0,0.0,0.0,0.0,0.0,0.0,0.0,0.0,0.0,0.0,0.0,0.0,0.0,0.0,0.0,0.0,0.0,0.0,0.0,0.0,0.0,0.0,0.0,0.0,0.0,0.0,-4.1629,-4.2773,-4.3448,-4.3526,-4.3526,-4.3526,-4.2071,-3.989,-3.6981,-3.7631,0.0,0.0,0.0,0.0,0.0,0.0,0.0,0.0,0.0,0.0,0.0,0.0,0.0,0.0,0.0,0.0,0.0,0.0,0.0,0.0,0.0,0.0,0.0,0.0,0.0,0.0,0.0,0.0,0.0,0.0,0.0,0.0,0.0,0.0,0.0,0.0,0.0,0.0,0.0,0.0,0.0,0.0,0.0,0.0,0.0,0.0,0.0,0.0,0.0,0.0,0.0,0.0,0.0,0.0,0.0,0.0,0.0,0.0,0.0,0.0,0.0,0.0,0.0,0.0,0.0,0.0,0.0,0.0,0.0,0.0,0.0,0.0,0.0,0.0,0.0,0.0,0.0,0.0,0.0,0.0,0.0,0.0,0.0,0.0,0.0,0.0,0.0,0.0,0.0,0.0,0.0,0.0,0.0,0.0,0.0,0.0,0.0,0.0,0.0,0.0,0.0,0.0,-4.1322,-4.0851,-4.2747,-4.2928,-4.2928,-4.2928,-4.2565,-4.0747,-3.7007,-4.0301,0.0,0.0,0.0,0.0,0.0,0.0,0.0,0.0,0.0,0.0,0.0,0.0,0.0,0.0,0.0,0.0,0.0,0.0,0.0,0.0,0.0,0.0,0.0,0.0,0.0,0.0,0.0,0.0,0.0,0.0,0.0,0.0,0.0,0.0,0.0,0.0,0.0,0.0,0.0,0.0,0.0,0.0,0.0,0.0,0.0,0.0,0.0,0.0,0.0,0.0,0.0,0.0,0.0,0.0,0.0,0.0,0.0,0.0,0.0,0.0,0.0,0.0,0.0,0.0,0.0,0.0,0.0,0.0,0.0,0.0,0.0,0.0,0.0,0.0,0.0,0.0,0.0,0.0,0.0,0.0,0.0,0.0,0.0,0.0,0.0,0.0,0.0,0.0,0.0,0.0,0.0,0.0,0.0,0.0,0.0,0.0,0.0,0.0,0.0,0.0,0.0,0.0,-4.1995,-4.1897,-4.4321,-4.3218,-4.2357,-4.2357,-4.2357,-4.113,-3.8232,-4.115,0.0,0.0,0.0,0.0,0.0,0.0,0.0,0.0,0.0,0.0,0.0,0.0,0.0,0.0,0.0,0.0,0.0,0.0,0.0,0.0,0.0,0.0,0.0,0.0,0.0,0.0,0.0,0.0,0.0,0.0,0.0,0.0,0.0,0.0,0.0,0.0,0.0,0.0,0.0,0.0,0.0,0.0,0.0,0.0,0.0,0.0,0.0,0.0,0.0,0.0,0.0,0.0,0.0,0.0,0.0,0.0,0.0,0.0,0.0,0.0,0.0,0.0,0.0,0.0,0.0,0.0,0.0,0.0,0.0,0.0,0.0,0.0,0.0,0.0,0.0,0.0,0.0,0.0,0.0,0.0,0.0,0.0,0.0,0.0,0.0,0.0,0.0,0.0,0.0,0.0,0.0,0.0,0.0,0.0,0.0,0.0,0.0,0.0,0.0,0.0,0.0,0.0,0.0,-4.4039,-4.5708,-4.3538,-4.1885,-4.1885,-4.1885,-4.1124,-3.9509,0.0,0.0,0.0,0.0,0.0,0.0,0.0,0.0,0.0,0.0,0.0,0.0,0.0,0.0,0.0,0.0,0.0,0.0,0.0,0.0,0.0,0.0,0.0,0.0,0.0,0.0,0.0,0.0,0.0,0.0,0.0,0.0,0.0,0.0,0.0,0.0,0.0,0.0,0.0,0.0,0.0,0.0,0.0,0.0,0.0,0.0,0.0,0.0,0.0,0.0,0.0,0.0,0.0,0.0,0.0,0.0,0.0,0.0,0.0,0.0,0.0,0.0,0.0,0.0,0.0,0.0,0.0,0.0,0.0,0.0,0.0,0.0,0.0,0.0,0.0,0.0,0.0,0.0,0.0,0.0,0.0,0.0,0.0,0.0,0.0,0.0,0.0,0.0,0.0,0.0,0.0,0.0,0.0,0.0,0.0,0.0,0.0,0.0,0.0,0.0,0.0,0.0,0.0,0.0,-4.4439,-4.2897,-4.1818,-4.1162,-4.1162,-4.1162,-4.0697,-3.9587,0.0,0.0,0.0,0.0,0.0,0.0,0.0,0.0,0.0,0.0,0.0,0.0,0.0,0.0]}],[{"header":{"parameterUnit":"kt","parameterCategory":2,"dx":1,"dy":1,"la1":29.285339999999998,"la2":30.599998999999997,"lo1":-89.70041500000002,"lo2":-87.6738589999976,"nx":112,"ny":82,"refTime":"2022-10-31T06:00:00:Z","depth":0,"parameterNumber":2,"parameterNumberName":"V-component_of_WINDS"},"data":[10.4177,10.1966,9.9258,10.0745,9.5859,9.0449,8.9204,8.4962,8.1301,8.1301,7.9921,7.9179,8.0953,7.8728,0.0,0.0,0.0,0.0,0.0,7.6535,0.0,0.0,0.0,0.0,0.0,0.0,0.0,9.138,9.3009,9.7138,10.4991,10.8888,11.3949,12.0521,12.1917,12.2615,12.2615,12.2615,12.2615,12.2615,12.2615,12.2615,12.2615,12.2615,12.2615,12.2615,12.2615,12.2615,12.2615,12.2615,12.2615,12.2615,12.2615,12.2615,12.2615,12.2615,12.2615,12.2615,12.2615,12.2615,12.2893,12.4594,12.5763,12.7258,13.1887,13.3883,13.5068,13.7464,13.8393,13.8704,13.8207,14.064,14.31,14.31,14.518,14.7167,14.7167,14.7167,14.7167,14.7167,14.7562,14.8745,15.1179,15.2033,15.3151,15.5519,15.5913,15.5913,15.5913,15.5913,15.5913,15.5913,15.5913,15.5913,15.5913,15.5913,15.5913,15.5913,15.5913,15.5913,15.5913,15.5913,15.5913,15.5913,15.5913,15.5913,15.5913,15.5913,15.5913,15.5913,15.5913,15.5913,9.7662,9.5742,9.333,9.4667,9.0192,8.5156,8.3876,7.9979,7.6535,7.6535,7.6535,7.742,7.9921,7.8351,0.0,0.0,0.0,0.0,0.0,0.0,7.671,0.0,0.0,0.0,0.0,0.0,9.138,9.6091,9.8011,10.1617,10.7608,11.1564,11.5984,12.1161,12.215,12.2615,12.2615,12.2615,12.2615,12.2615,12.2615,12.2615,12.2615,12.2615,12.2615,12.2615,12.2615,12.2615,12.2615,12.2615,12.2615,12.2615,12.2615,12.2615,12.2728,12.3613,12.3996,12.3775,12.3005,12.3228,12.4215,12.5986,12.7785,13.0052,13.4661,13.6694,13.8021,14.0853,14.1631,14.1631,14.1631,14.3001,14.444,14.444,14.5817,14.7167,14.7167,14.7167,14.7167,14.7167,14.7167,14.8088,15.1047,15.1573,15.2559,15.5453,15.5913,15.5913,15.5913,15.5913,15.5913,15.5913,15.5913,15.5913,15.5913,15.5913,15.5913,15.5913,15.5913,15.5913,15.5913,15.5913,15.5913,15.5913,15.5913,15.5913,15.5913,15.5913,15.5913,15.5913,15.5913,15.5913,9.202,8.7926,8.502,8.8797,8.3237,7.7769,8.1391,7.9281,7.6535,7.6535,7.6535,7.6535,7.6535,7.6535,0.0,0.0,0.0,0.0,0.0,7.5849,0.0,7.8758,8.4458,8.8821,9.025,9.6033,10.0163,10.1559,10.406,10.7725,11.2727,11.4298,11.738,12.2441,12.2615,12.2615,12.2615,12.2615,12.2615,12.2615,12.2615,12.2615,12.2615,12.2615,12.2615,12.2615,12.2728,12.284,12.284,12.284,12.284,12.284,12.284,12.284,12.3116,12.5665,12.6671,12.6306,12.3724,12.4375,12.6565,12.6671,13.0325,13.5276,13.8193,14.0921,14.3658,14.6355,14.7167,14.7167,14.7167,14.7167,14.7167,14.7167,14.7167,14.7167,14.7167,14.7167,14.7167,14.7167,14.7167,14.8088,15.1047,15.1573,15.2559,15.5453,15.5913,15.5913,15.5913,15.5913,15.5913,15.5913,15.5913,15.5913,15.5913,15.5913,15.5913,15.5913,15.5913,15.5913,15.5913,15.5913,15.5913,15.5913,15.5913,15.5913,15.5913,15.5913,15.5913,15.5913,15.5913,15.5913,8.568,8.4633,8.312,8.4167,8.2672,8.0328,7.8583,7.7362,7.6535,7.6535,7.6535,0.0,0.0,0.0,7.6419,7.614,0.0,7.6489,7.614,7.7187,8.0561,8.7483,9.0624,9.423,9.9232,10.0454,10.2257,10.5456,10.8016,11.0459,11.2843,11.6857,12.0172,12.2557,12.2615,12.2615,12.2615,12.2615,12.2615,12.2615,12.2615,12.2615,12.2615,12.2615,12.2615,12.2728,12.4703,12.551,12.551,12.551,12.551,12.551,12.551,12.551,12.5772,12.8489,12.945,12.9104,12.6413,12.588,12.6882,12.89,13.1812,13.5581,14.0425,14.2432,14.3658,14.6355,14.7167,14.7167,14.7167,14.7167,14.7167,14.7167,14.7167,14.7167,14.7167,14.7167,14.7167,14.7167,14.7167,14.8088,15.1047,15.1573,15.2559,15.5453,15.5913,15.5913,15.5913,15.5913,15.5913,15.5913,15.5913,15.5913,15.5913,15.5913,15.5913,15.5913,15.5913,15.5913,15.5913,15.5913,15.5913,15.5913,15.5913,15.5913,15.5913,15.5913,15.5913,15.5913,15.5913,15.5913,8.0487,8.0503,7.9921,7.9921,7.9921,7.9339,7.7129,7.6535,7.6535,7.6535,0.0,0.0,0.0,0.0,0.0,0.0,7.7594,7.9049,7.9049,8.155,8.5098,8.9751,9.1962,9.5801,10.2722,10.5165,10.7667,11.104,11.3134,11.4821,11.6159,11.9591,12.1859,12.2615,12.2615,12.2615,12.2615,12.2615,12.2615,12.2615,12.2615,12.2615,12.2615,12.2615,12.2615,12.2728,12.4215,12.551,12.6519,12.5402,12.5617,12.6776,12.8941,12.9247,12.8592,13.125,13.2229,13.1839,12.9145,12.8283,12.8695,13.1349,13.4584,13.791,14.1749,14.3329,14.437,14.6533,14.7167,14.7167,14.7167,14.7167,14.7167,14.7167,14.7167,14.7167,14.7167,14.7167,14.7167,14.7167,14.7167,14.7891,15.0324,15.1179,15.2362,15.4664,15.5519,15.5913,15.5913,15.5913,15.5913,15.5913,15.5913,15.5913,15.5913,15.5913,15.5913,15.5913,15.5913,15.5913,15.5913,15.5913,15.5913,15.5913,15.5913,15.5913,15.5913,15.5913,15.5913,15.5913,15.5913,15.5913,7.6955,7.6535,7.6535,7.6535,7.6535,7.6535,7.6535,0.0,7.6652,7.7187,0.0,7.671,7.7187,0.0,0.0,7.5849,7.9645,8.2672,8.2847,8.8006,9.1438,9.0566,9.2485,9.6673,10.3769,10.9644,11.4065,11.6624,11.802,11.9358,12.0638,12.1917,12.2615,12.2615,12.2615,12.2615,12.2615,12.2615,12.284,12.3116,12.3116,12.3116,12.3116,12.3116,12.2893,12.2728,12.3005,12.4594,12.6776,12.4485,12.492,12.7512,13.2519,13.3159,13.1349,13.4014,13.492,13.4641,13.1937,13.1053,13.1447,13.3731,13.6994,14.0367,14.208,14.3748,14.5326,14.6773,14.7167,14.7167,14.7167,14.7167,14.7167,14.7167,14.7167,14.7167,14.7167,14.7167,14.7167,14.7167,14.7167,14.7628,14.9206,15.0652,15.2099,15.3546,15.4993,15.5913,15.5913,15.5913,15.5913,15.5913,15.5913,15.5913,15.5913,15.5913,15.5913,15.5913,15.5913,15.5913,15.5913,15.5913,15.5913,15.5913,15.5913,15.5913,15.5913,15.5913,15.5913,15.5913,15.5913,15.5913,7.6722,7.6535,7.6535,7.6535,7.6535,7.6535,0.0,0.0,0.0,8.0693,7.8758,7.7594,8.0751,7.87,7.7943,8.1841,8.3237,8.4225,8.5272,9.5219,10.3071,10.4933,10.5573,10.7259,11.0808,11.2262,11.4065,11.6624,11.802,11.9358,12.0638,12.1917,12.2615,12.2615,12.2615,12.2615,12.2615,12.2615,12.3724,12.5772,12.5772,12.5772,12.5772,12.5772,12.4594,12.284,12.492,12.7408,12.9815,12.9308,12.941,13.0156,13.3255,13.4202,13.4108,13.6761,13.7784,13.7429,13.4734,13.3731,13.3825,13.436,13.502,13.6433,14.0057,14.2959,14.5326,14.6773,14.7167,14.7167,14.7167,14.7167,14.7167,14.7167,14.7167,14.7167,14.7167,14.7167,14.7167,14.7167,14.7167,14.7628,14.9206,15.0652,15.2099,15.3546,15.4993,15.5913,15.5913,15.5913,15.5913,15.5913,15.5913,15.5913,15.5913,15.5913,15.5913,15.5913,15.5913,15.5913,15.5913,15.5913,15.5913,15.5913,15.5913,15.5913,15.5913,15.5913,15.5913,15.5913,15.5913,15.5913,7.6535,7.6535,7.6535,7.6535,7.6535,0.0,0.0,7.8002,7.8234,8.3993,8.2131,8.0852,8.5389,8.4633,8.44,8.7657,8.9669,9.1761,9.4405,10.0338,10.5107,10.7027,10.7841,10.947,11.2669,11.3541,11.4705,11.6624,11.866,12.0289,12.1568,12.2266,12.2615,12.2615,12.2615,12.2615,12.2615,12.2615,12.3996,12.6565,12.6565,12.7303,12.8592,12.8592,12.7093,12.4703,12.5986,12.8076,13.0456,12.9206,12.9348,13.0954,13.4984,13.5723,13.4827,13.7607,13.8619,13.8444,13.7006,13.658,13.658,13.658,13.658,13.6891,13.9055,14.1644,14.4405,14.651,14.7167,14.7167,14.7167,14.7167,14.7167,14.7167,14.7167,14.7167,14.7167,14.7167,14.7167,14.7167,14.7167,14.7365,14.8154,15.0126,15.1836,15.2559,15.4532,15.5913,15.5913,15.5913,15.5913,15.5913,15.5913,15.5913,15.5913,15.5913,15.5913,15.5913,15.5913,15.5913,15.5913,15.5913,15.5913,15.5913,15.5913,15.5913,15.5913,15.5913,15.5913,15.5913,15.5913,15.5913,7.6535,7.6535,7.6535,7.6535,7.6535,0.0,8.0635,7.9398,7.9688,8.661,8.5796,8.5331,9.0275,9.074,9.1089,9.3125,9.5945,9.9523,10.3886,10.47,10.534,10.6678,10.7783,10.9702,11.3018,11.453,11.5694,11.6741,11.9242,12.1278,12.2557,12.2615,12.2615,12.2615,12.2615,12.2615,12.2615,12.2615,12.3996,12.6565,12.7093,12.8489,13.0656,13.1152,12.9854,12.7408,12.7408,12.8592,13.0456,12.8798,12.9652,13.2583,13.6916,13.7274,13.5539,13.7784,13.8619,13.8619,13.8619,13.8619,13.8619,13.8619,13.8619,13.8619,13.8619,14.0591,14.3353,14.5655,14.6707,14.7167,14.7167,14.7167,14.7167,14.7167,14.7167,14.7167,14.7167,14.7167,14.7167,14.7167,14.7167,14.7167,14.7167,14.9403,15.1244,15.1573,15.3809,15.5584,15.5847,15.5913,15.5913,15.5913,15.5913,15.5913,15.5913,15.5913,15.5913,15.5913,15.5913,15.5913,15.5913,15.5913,15.5913,15.5913,15.5913,15.5913,15.5913,15.5913,15.5913,15.5913,15.5913,15.5913,7.6535,7.6535,7.6535,7.6535,7.6535,0.0,7.7187,7.9572,8.2963,8.7192,8.8646,9.0391,9.4405,9.3241,9.3241,9.7953,9.9058,10.1501,10.7765,10.947,11.0633,11.1971,11.2262,11.296,11.453,11.5868,11.6624,11.6799,11.9242,12.1278,12.2557,12.2615,12.2615,12.2615,12.2615,12.2615,12.2615,12.2615,12.3996,12.6565,12.9002,13.0356,13.0656,13.3064,13.2679,13.0156,13.0156,13.0356,13.0755,13.2872,13.5262,13.785,13.8356,13.8444,13.8203,13.8531,13.8619,13.8619,13.8619,13.8619,13.8619,13.8619,13.8619,13.8619,13.8619,14.0591,14.2893,14.3222,14.5195,14.7167,14.7167,14.7167,14.7167,14.7167,14.7167,14.7167,14.7167,14.7167,14.7167,14.7167,14.7167,14.7167,14.7167,14.8614,15.0126,15.1376,15.2954,15.4466,15.5716,15.5913,15.5913,15.5913,15.5913,15.5913,15.5913,15.5913,15.5913,15.5913,15.5913,15.5913,15.5913,15.5913,15.5913,15.5913,15.5913,15.5913,15.5913,15.5913,15.5913,15.5913,15.5913,15.5913,7.6535,7.6535,7.6535,7.6535,0.0,0.0,7.9456,8.1782,8.5292,9.1405,9.359,9.5917,10.0512,10.0512,10.0745,10.3595,10.47,10.662,11.0808,11.1796,11.2611,11.3949,11.4123,11.4298,11.4821,11.6043,11.7148,11.7904,11.9649,12.1278,12.2557,12.2615,12.2615,12.2615,12.2615,12.2615,12.2615,12.4215,12.551,12.6565,13.0855,13.2872,13.2968,13.5695,13.5447,13.2872,13.2872,13.2872,13.3064,13.5787,13.667,13.6399,13.8026,13.8619,13.8619,13.8619,13.8619,13.8619,13.8619,13.8619,13.8619,13.8619,13.8619,13.8619,13.8619,14.0591,14.2827,14.2827,14.4931,14.7167,14.7167,14.7167,14.7167,14.7167,14.7167,14.7167,14.7167,14.7167,14.7167,14.7167,14.7167,14.7167,14.7167,14.8417,14.9995,15.1376,15.2823,15.4335,15.5716,15.5913,15.5913,15.5913,15.5913,15.5913,15.5913,15.5913,15.5913,15.5913,15.5913,15.5913,15.5913,15.5913,15.5913,15.5913,15.5913,15.5913,15.5913,15.5913,15.5913,15.5913,15.5913,15.5913,7.6535,0.0,0.0,0.0,0.0,0.0,8.3527,8.6029,8.917,9.5044,9.8185,10.0827,10.47,10.5689,10.6329,10.7608,10.9179,11.0866,11.2727,11.3309,11.389,11.4763,11.4879,11.4879,11.4879,11.6392,11.7729,11.8718,12.0289,12.1627,12.2557,12.2615,12.2615,12.2615,12.2615,12.3005,12.3724,12.5617,12.6882,12.766,13.2326,13.4548,13.4641,13.7363,13.7518,13.5631,13.5631,13.5631,13.5787,13.7784,13.7429,13.5879,13.7784,13.8619,13.8619,13.8619,13.8619,13.8619,13.8619,13.8619,13.8619,13.8619,13.8619,13.8619,13.8619,14.0591,14.2827,14.2827,14.4931,14.7167,14.7167,14.7167,14.7167,14.7167,14.7167,14.7167,14.7167,14.7167,14.7167,14.7167,14.7167,14.7167,14.7167,14.8088,14.9337,15.0784,15.2231,15.3677,15.5124,15.565,15.5913,15.5913,15.5913,15.5913,15.5913,15.5913,15.5913,15.5913,15.5913,15.5913,15.5913,15.5913,15.5913,15.5913,15.5913,15.5913,15.5913,15.5913,15.5913,15.5913,15.5913,15.565,0.0,0.0,0.0,8.1333,8.2265,8.3604,8.8646,9.2718,9.5859,9.7224,10.1524,10.5224,10.534,10.6387,10.7667,10.8946,11.1215,11.2902,11.2856,11.4065,11.4821,11.4879,11.4879,11.4879,11.4879,11.7206,11.8776,11.8776,12.1103,12.2557,12.2615,12.2615,12.2615,12.2615,12.2615,12.3886,12.6413,12.6459,12.7868,13.0556,13.3255,13.4548,13.4641,13.7363,13.8531,13.8444,13.8444,13.8444,13.8531,13.8531,13.8531,13.8531,13.8531,13.8619,13.8619,13.8619,13.8619,13.8619,13.8619,13.8619,13.8619,13.8619,13.8619,13.8619,13.8619,14.0591,14.2827,14.2827,14.4931,14.7167,14.7167,14.7167,14.7167,14.7167,14.7167,14.7167,14.7167,14.7167,14.7167,14.7167,14.7167,14.7167,14.7167,14.7167,14.7759,14.9337,15.0718,15.2165,15.3677,15.5058,15.5913,15.5913,15.5913,15.5913,15.5913,15.5913,15.5913,15.5913,15.5913,15.5913,15.5913,15.5913,15.5913,15.5913,15.5913,15.5913,15.5913,15.5913,15.5913,15.5913,15.5913,15.519,7.6535,7.8467,8.0809,8.209,8.4361,8.6843,8.946,9.3648,9.7371,9.856,10.3013,10.662,10.662,10.7667,10.9237,11.1389,11.2436,11.3309,11.4123,11.4647,11.4879,11.4879,11.4879,11.5228,11.6101,11.7729,11.9125,11.9998,12.1627,12.2615,12.2615,12.2615,12.2615,12.2615,12.2615,12.3886,12.6459,12.8386,12.9652,13.0656,13.5077,13.6243,13.4641,13.7363,13.8619,13.8619,13.8619,13.8619,13.8619,13.8619,13.8619,13.8619,13.8619,13.8619,13.8619,13.8619,13.8619,13.8619,13.8619,13.8619,13.8619,13.8619,13.8619,13.8619,13.8619,13.9934,14.1644,14.2564,14.4274,14.5984,14.6904,14.7167,14.7167,14.7167,14.7167,14.7167,14.7167,14.7167,14.7167,14.7167,14.7167,14.7167,14.7167,14.7167,14.7693,14.9272,15.0718,15.2099,15.3612,15.4993,15.5913,15.5913,15.5913,15.5913,15.5913,15.5913,15.5913,15.5913,15.5913,15.5913,15.5913,15.5913,15.5913,15.5913,15.5913,15.5913,15.5913,15.5913,15.5913,15.5913,15.5913,15.5124,7.8292,8.0518,8.308,8.5874,8.8727,9.1496,9.423,9.772,10.0803,10.2083,10.4991,10.7434,10.7899,10.9353,11.1098,11.2727,11.3367,11.3949,11.4763,11.4879,11.4879,11.4879,11.4879,11.5403,11.6682,11.802,11.93,12.0638,12.1917,12.3005,12.3996,12.3228,12.3116,12.3996,12.3996,12.492,12.6459,13.0156,13.2486,13.3509,13.6916,13.7696,13.6061,13.7784,13.8619,13.8619,13.8619,13.8619,13.8619,13.8619,13.8619,13.8619,13.8619,13.8619,13.8619,13.8619,13.8619,13.8619,13.8619,13.8619,13.8619,13.8619,13.8619,13.8619,13.8619,13.9605,14.1052,14.2433,14.3879,14.5392,14.6773,14.7167,14.7167,14.7167,14.7167,14.7167,14.7167,14.7167,14.7167,14.7167,14.7167,14.7167,14.7167,14.7167,14.7496,14.8482,14.9863,15.1376,15.2823,15.4269,15.5321,15.5847,15.5913,15.5913,15.5913,15.5913,15.5913,15.5913,15.5913,15.5913,15.5913,15.5913,15.5913,15.5913,15.5913,15.5913,15.5913,15.5913,15.5913,15.5847,15.5387,15.4664,8.1391,8.2731,8.4826,9.2136,9.5131,9.746,10.2373,10.4467,10.5747,10.7027,10.7318,10.7783,10.9063,11.1331,11.3018,11.3076,11.4123,11.4879,11.4879,11.4879,11.4879,11.4879,11.4879,11.5403,11.6741,11.8078,11.9358,12.0696,12.1917,12.3834,12.6413,12.4215,12.3996,12.6671,12.6776,12.6776,12.6776,13.1937,13.5879,13.8619,13.8619,13.8619,13.8619,13.8619,13.8619,13.8619,13.8619,13.8619,13.8619,13.8619,13.8619,13.8619,13.8619,13.8619,13.8619,13.8619,13.8619,13.8619,13.8619,13.8619,13.8619,13.8619,13.8619,13.8619,13.8619,13.9539,14.092,14.2367,14.3748,14.526,14.6641,14.7102,14.7167,14.7167,14.7167,14.7167,14.7167,14.7167,14.7167,14.7167,14.7167,14.7167,14.7167,14.7167,14.7167,14.7167,14.8482,14.9995,15.131,15.2823,15.4335,15.565,15.5847,15.5913,15.5913,15.5913,15.5913,15.5913,15.5913,15.5913,15.5913,15.5913,15.5913,15.5913,15.5913,15.5913,15.5913,15.5913,15.5847,15.5782,15.4401,15.3677,8.1391,8.6631,9.1613,9.4666,9.7662,10.0861,10.4118,10.5107,10.5747,10.7027,10.8074,10.9063,11.0284,11.1855,11.3309,11.4239,11.4705,11.4879,11.4879,11.4879,11.4879,11.4879,11.4879,11.581,11.8078,11.8602,11.9707,12.1976,12.2441,12.3834,12.6413,12.588,12.6776,12.9512,12.9551,12.9551,12.9551,13.2872,13.5879,13.8619,13.8619,13.8619,13.8619,13.8619,13.8619,13.8619,13.8619,13.8619,13.8619,13.8619,13.8619,13.8619,13.8619,13.8619,13.8619,13.8619,13.8619,13.8619,13.8619,13.8619,13.8619,13.8619,13.8619,13.8619,13.8619,13.8882,13.9474,14.0854,14.2301,14.3748,14.5195,14.6378,14.7167,14.7167,14.7167,14.7167,14.7167,14.7167,14.7167,14.7167,14.7167,14.7167,14.7167,14.7167,14.7167,14.7167,14.8482,14.96,14.9995,15.2231,15.394,15.4269,15.5256,15.5913,15.5913,15.5913,15.5913,15.5913,15.5913,15.5913,15.5913,15.5913,15.5913,15.5913,15.5913,15.5913,15.5913,15.5913,15.5387,15.4335,15.394,15.2625,8.1391,8.8087,9.4579,9.7546,10.0279,10.2839,10.4875,10.5805,10.6445,10.7143,10.8714,11.0168,11.0866,11.2553,11.4065,11.4763,11.4879,11.4879,11.4879,11.4879,11.4879,11.4879,11.4879,11.5926,11.8544,11.9846,12.1597,12.4198,12.4434,12.5986,12.9854,12.7764,12.8283,13.2292,13.2326,13.2326,13.2326,13.4984,13.7095,13.8619,13.8619,13.8619,13.8619,13.8619,13.8619,13.8619,13.8619,13.8619,13.8619,13.8619,13.8619,13.8619,13.8619,13.8619,13.8619,13.8619,13.8619,13.8619,13.8619,13.8619,13.8619,13.8619,13.8619,13.8619,13.8619,13.8619,13.8882,14.0328,14.1775,14.3156,14.4668,14.6115,14.7167,14.7167,14.7167,14.7167,14.7167,14.7167,14.7167,14.7167,14.7167,14.7167,14.7167,14.7167,14.7167,14.7167,14.7891,14.868,14.9403,15.0916,15.2362,15.3677,15.4466,15.5256,15.5847,15.5913,15.5913,15.5913,15.5913,15.5913,15.5913,15.5913,15.5913,15.5913,15.5913,15.5913,15.5913,15.5256,15.4532,15.3743,15.2494,15.1047,8.2265,8.8436,9.5103,10.0396,10.2548,10.3769,10.5282,10.6503,10.7259,10.7259,10.9237,11.0982,11.0982,11.3134,11.4879,11.4879,11.4879,11.4879,11.4879,11.4879,11.4879,11.4879,11.4879,11.5926,11.8544,12.1152,12.3777,12.6384,12.6882,12.9247,13.4202,13.0156,12.9854,13.492,13.5013,13.5013,13.5013,13.7429,13.8619,13.8619,13.8619,13.8619,13.8619,13.8619,13.8619,13.8619,13.8619,13.8619,13.8619,13.8619,13.8619,13.8619,13.8619,13.8619,13.8619,13.8619,13.8619,13.8619,13.8619,13.8619,13.8619,13.8619,13.8619,13.8619,13.8619,13.8619,13.8882,14.0131,14.1446,14.2893,14.434,14.5786,14.6904,14.7102,14.7167,14.7167,14.7167,14.7167,14.7167,14.7167,14.7167,14.7167,14.7167,14.7167,14.7167,14.7167,14.7167,14.7628,14.9009,14.9337,15.0455,15.2954,15.3546,15.4269,15.5519,15.5782,15.5913,15.5913,15.5913,15.5913,15.5913,15.5913,15.5913,15.5913,15.5716,15.5584,15.5584,15.4203,15.3414,15.3151,15.0652,14.9337,8.6901,9.0391,9.5335,10.1501,10.3188,10.4002,10.6387,10.7143,10.7259,10.7259,10.9237,11.0982,11.0982,11.3134,11.4879,11.4879,11.4879,11.4879,11.4879,11.4879,11.4879,11.4879,11.4879,11.5926,11.8544,12.1152,12.3777,12.6384,12.8695,13.125,13.436,13.3636,13.4548,13.7784,13.7938,13.7938,13.7938,13.8356,13.8619,13.8619,13.8619,13.8619,13.8619,13.8619,13.8619,13.8619,13.8619,13.8619,13.8619,13.8619,13.8619,13.8619,13.8619,13.8619,13.8619,13.8619,13.8619,13.8619,13.8619,13.8619,13.8619,13.8619,13.8619,13.8619,13.8619,13.8619,13.8684,13.8882,14.0,14.1446,14.2827,14.434,14.5721,14.6838,14.7167,14.7167,14.7167,14.7167,14.7167,14.7167,14.7167,14.7167,14.7167,14.7167,14.7167,14.7167,14.7167,14.7233,14.7496,14.868,14.9666,15.0192,15.2362,15.3875,15.4138,15.5256,15.5913,15.5913,15.5913,15.5913,15.5913,15.5913,15.5913,15.5913,15.4729,15.4138,15.4138,15.2691,15.1376,15.0192,14.9732,14.8811,8.9984,9.2427,9.5103,10.0105,10.2373,10.406,10.6678,10.7259,10.6154,10.2083,10.598,10.9644,10.8306,11.1273,11.4123,11.4763,11.4879,11.4879,11.4879,11.4879,11.5345,11.6616,11.5599,11.6397,12.0343,12.3202,12.5854,12.845,13.1152,13.3825,13.649,13.5262,13.5787,13.8531,13.8619,13.8619,13.8619,13.8619,13.8619,13.8619,13.8619,13.8619,13.8619,13.8619,13.8619,13.8619,13.8619,13.8619,13.8619,13.8619,13.8619,13.8619,13.8619,13.8619,13.8619,13.8619,13.8619,13.8619,13.8619,13.8619,13.8619,13.8619,13.8619,13.8619,13.8619,13.8619,13.8619,13.8619,13.9671,14.1052,14.2498,14.3945,14.5392,14.6773,14.7167,14.7167,14.7167,14.7167,14.7167,14.7167,14.7167,14.7167,14.7167,14.7167,14.7167,14.7167,14.7167,14.7167,14.7167,14.7825,14.8614,14.9403,15.0718,15.2165,15.3677,15.4401,15.5124,15.5847,15.5913,15.5913,15.5913,15.4466,15.3612,15.3612,15.302,15.2625,15.2625,15.1179,15.0126,14.9469,14.8614,14.7891,8.9984,9.2601,9.4579,9.7604,10.0861,10.3828,10.5631,10.6038,10.4293,9.8244,10.3573,10.8597,10.6561,10.9935,11.3309,11.4298,11.4705,11.4879,11.4879,11.5345,11.6367,11.8315,11.7329,11.8298,12.296,12.5931,12.86,13.126,13.3889,13.6334,13.8531,13.658,13.6399,13.8531,13.8619,13.8619,13.8619,13.8619,13.8619,13.8619,13.8619,13.8619,13.8619,13.8619,13.8619,13.8619,13.8619,13.8619,13.8619,13.8619,13.8619,13.8619,13.8619,13.8619,13.8619,13.8619,13.8619,13.8619,13.8619,13.8619,13.8619,13.8619,13.8619,13.8619,13.8619,13.8619,13.8619,13.8619,13.9408,14.0591,14.2038,14.3485,14.4931,14.6378,14.6904,14.7167,14.7167,14.7167,14.7167,14.7167,14.7167,14.7167,14.7167,14.7167,14.7167,14.7167,14.7167,14.7167,14.7167,14.7167,14.7628,14.8811,14.9272,15.0389,15.2691,15.3151,15.3809,15.4927,15.4993,15.4993,15.4993,15.2823,15.1573,15.1573,15.131,15.1113,15.1113,14.9666,14.9009,14.8943,14.7693,14.7167,8.4244,8.8611,9.3939,9.4288,9.8942,10.313,10.2199,10.2024,10.1792,10.1094,10.534,10.9221,10.8988,11.1098,11.3018,11.3134,11.4123,11.4879,11.4879,11.682,11.8315,11.8553,12.0413,12.2959,12.5877,12.8509,13.1199,13.3917,13.667,13.829,13.8619,13.8356,13.8356,13.8619,13.8619,13.8619,13.8619,13.8619,13.8619,13.8619,13.8619,13.8619,13.8619,13.8619,13.8619,13.8619,13.8619,13.8619,13.8619,13.8619,13.8619,13.8619,13.8619,13.8619,13.8619,13.8619,13.8619,13.8619,13.8619,13.8619,13.8619,13.8619,13.8619,13.8619,13.8619,13.8619,13.8619,13.8619,13.875,13.9145,14.0591,14.1972,14.3419,14.4866,14.6181,14.7167,14.7167,14.7167,14.7167,14.7167,14.7167,14.7167,14.7167,14.7167,14.7167,14.7167,14.7167,14.7167,14.7167,14.7167,14.7233,14.7365,14.8614,14.96,14.9863,15.1047,15.1836,15.1968,15.1968,15.1968,15.1968,15.1705,15.1573,15.1573,15.0324,14.9666,14.9666,14.8088,14.7365,14.7365,14.7233,14.7167,8.5641,8.9751,9.3881,9.3881,9.6906,9.9814,9.9291,9.9756,9.9872,9.836,10.3362,10.755,10.598,10.7201,10.9412,11.2494,11.2145,11.2817,11.6566,11.7915,11.9673,12.2811,12.2781,12.4091,12.835,12.9775,13.1565,13.4291,13.7095,13.8619,13.8619,13.8619,13.8619,13.8619,13.8619,13.8619,13.8619,13.8619,13.8619,13.8619,13.8619,13.8619,13.8619,13.8619,13.8619,13.8619,13.8619,13.8619,13.8619,13.8619,13.8619,13.8619,13.8619,13.8619,13.8619,13.8619,13.8619,13.8619,13.8619,13.8619,13.8619,13.8619,13.8619,13.8619,13.8619,13.8619,13.8619,13.8619,13.8619,13.8947,14.0394,14.1775,14.2959,14.3551,14.48,14.6115,14.697,14.7167,14.7167,14.7167,14.7167,14.7167,14.7167,14.7167,14.7167,14.7167,14.7167,14.7167,14.7167,14.7167,14.7167,14.7167,14.7693,14.8417,14.9403,14.9995,15.0718,15.1507,15.1573,15.0784,14.9009,14.8877,14.8877,14.8877,14.8351,14.8088,14.8088,14.743,14.7167,14.7167,14.7167,14.7167,8.4225,8.8297,9.1845,9.074,9.3823,9.7197,9.7456,9.7689,9.7662,9.7022,10.2432,10.6387,10.3362,10.3886,10.6096,11.0051,11.0168,11.1862,11.7753,11.9867,12.2159,12.5743,12.53,12.6445,13.1001,13.1526,13.2777,13.5529,13.7518,13.8619,13.8619,13.8619,13.8619,13.8619,13.8619,13.8619,13.8619,13.8619,13.8619,13.8619,13.8619,13.8619,13.8619,13.8619,13.8619,13.8619,13.8619,13.8619,13.8619,13.8619,13.8619,13.8619,13.8619,13.8619,13.8619,13.8619,13.8619,13.8619,13.8619,13.8619,13.8619,13.8619,13.8619,13.8619,13.8619,13.8619,13.8619,13.8619,13.8619,13.8882,13.9868,14.1183,14.2301,14.2761,14.3945,14.5392,14.6838,14.7167,14.7167,14.7167,14.7167,14.7167,14.7167,14.7167,14.7167,14.7167,14.7167,14.7167,14.7167,14.7167,14.7167,14.7167,14.7167,14.7562,14.868,14.8811,14.9206,15.0192,15.0258,14.9337,14.7233,14.7167,14.7167,14.7167,14.7167,14.7167,14.7167,14.7167,14.7167,14.7167,14.7167,14.7167,7.7769,8.2306,8.7192,8.3487,8.9251,9.615,9.7282,9.5742,9.4986,9.8767,10.3653,10.6096,10.2199,10.2548,10.3828,10.5224,10.8509,11.2777,11.783,12.2904,12.6094,12.6094,12.8265,13.0974,13.4016,13.4344,13.5443,13.8334,13.8619,13.8619,13.8619,13.8619,13.8619,13.8619,13.8619,13.8619,13.8619,13.8619,13.8619,13.8619,13.8619,13.8619,13.8619,13.8619,13.8619,13.8619,13.8619,13.8619,13.8619,13.8619,13.8619,13.8619,13.8619,13.8619,13.8619,13.8619,13.8619,13.8619,13.8619,13.8619,13.8619,13.8619,13.8619,13.8619,13.8619,13.8619,13.8619,13.8619,13.8619,13.8619,13.8619,13.9671,14.1117,14.2498,14.3945,14.5392,14.6838,14.7167,14.7167,14.7167,14.7167,14.7167,14.7167,14.7167,14.7167,14.7167,14.7167,14.7167,14.7167,14.7167,14.7167,14.7167,14.7167,14.7167,14.7167,14.7167,14.7167,14.7167,14.7167,14.7167,14.7167,14.7167,14.7167,14.7167,14.7167,14.7167,14.7167,14.7167,14.7167,14.7167,14.7167,14.7167,7.6884,8.0328,8.4594,8.5912,8.9053,9.1962,9.2284,9.5859,9.8418,9.615,9.9058,10.1908,10.1559,10.249,10.4642,10.8597,11.0232,11.3371,12.0252,12.4067,12.6768,12.8498,12.9396,13.1056,13.4016,13.4344,13.5528,13.8421,13.8619,13.8619,13.8619,13.8619,13.8619,13.8619,13.8619,13.8619,13.8619,13.8619,13.8619,13.8619,13.8619,13.8619,13.8619,13.8619,13.8619,13.8619,13.8619,13.8619,13.8619,13.8619,13.8619,13.8619,13.8619,13.8619,13.8619,13.8619,13.8619,13.8619,13.8619,13.8619,13.8619,13.8619,13.8619,13.8619,13.8619,13.8619,13.8619,13.8619,13.8619,13.8619,13.8619,13.8947,13.9671,14.1052,14.2498,14.3945,14.5392,14.6444,14.7167,14.7167,14.7167,14.7167,14.7167,14.7167,14.7167,14.7167,14.7167,14.7167,14.7167,14.7167,14.7167,14.7167,14.7167,14.7167,14.7167,14.7167,14.7167,14.7167,14.7167,14.7167,14.7167,14.7167,14.7167,14.7167,14.7167,14.7167,14.7167,14.7167,14.7167,14.7167,14.7167,14.7167,7.7013,7.9398,8.2963,8.535,8.6552,8.789,9.0856,9.4405,9.6266,9.3067,9.6208,9.9814,10.0628,10.1792,10.4002,10.819,11.0429,11.4136,12.1413,12.5388,12.8096,12.9709,12.9873,13.1056,13.4016,13.4344,13.5528,13.8421,13.8619,13.8619,13.8619,13.8619,13.8619,13.8619,13.8619,13.8619,13.8619,13.8619,13.8619,13.8619,13.8619,13.8619,13.8619,13.8619,13.8619,13.8619,13.8619,13.8619,13.8619,13.8619,13.8619,13.8619,13.8619,13.8619,13.8619,13.8619,13.8619,13.8619,13.8619,13.8619,13.8619,13.8619,13.8619,13.8619,13.8619,13.8619,13.8619,13.8619,13.8619,13.8619,13.8619,13.8619,13.9013,14.0394,14.1841,14.3222,14.4734,14.6181,14.7167,14.7167,14.7167,14.7167,14.7167,14.7167,14.7167,14.7167,14.7167,14.7167,14.7167,14.7167,14.7167,14.7167,14.7167,14.7167,14.7167,14.7167,14.7167,14.7167,14.7167,14.7167,14.7167,14.7167,14.7167,14.7167,14.7167,14.7167,14.7167,14.7167,14.7167,14.7167,14.7167,14.7167,7.7594,7.9223,8.2148,8.2672,8.2614,8.4302,9.138,9.138,8.9669,8.9204,9.4086,9.8534,9.8709,9.9698,10.1594,10.4892,10.982,11.5319,12.169,12.6768,12.9873,12.9873,12.9873,13.0991,13.3884,13.4279,13.5462,13.8224,13.8553,13.8619,13.8619,13.8619,13.8619,13.8619,13.8619,13.8619,13.8619,13.8619,13.8619,13.8619,13.8619,13.8619,13.8619,13.8619,13.8619,13.8619,13.8619,13.8619,13.8619,13.8619,13.8619,13.8619,13.8619,13.8619,13.8619,13.8619,13.8619,13.8619,13.8619,13.8619,13.8619,13.8619,13.8619,13.8619,13.8619,13.8619,13.8619,13.8619,13.8619,13.8619,13.8619,13.8619,13.8947,14.0263,14.1644,14.309,14.4537,14.5984,14.7036,14.7102,14.7167,14.7167,14.7167,14.7167,14.7167,14.7167,14.7167,14.7167,14.7167,14.7167,14.7167,14.7167,14.7167,14.7167,14.7167,14.7167,14.7167,14.7167,14.7167,14.7167,14.7167,14.7167,14.7167,14.7167,14.7167,14.7167,14.7167,14.7167,14.7167,14.7167,14.7167,14.7167,7.6896,7.7304,7.9398,8.5272,8.4594,8.2905,8.471,8.6843,8.7134,8.2248,8.4749,8.8332,9.0391,9.0973,9.4565,10.483,11.2606,11.8698,12.3063,12.7213,12.9873,12.9873,12.9873,13.0596,13.2372,13.3621,13.5068,13.6843,13.7961,13.8619,13.8619,13.8619,13.8619,13.8619,13.8619,13.8619,13.8619,13.8619,13.8619,13.8619,13.8619,13.8619,13.8619,13.8619,13.8619,13.8619,13.8619,13.8619,13.8619,13.8619,13.8619,13.8619,13.8619,13.8619,13.8619,13.8619,13.8619,13.8619,13.8619,13.8619,13.8619,13.8619,13.8619,13.8619,13.8619,13.8619,13.8619,13.8619,13.8619,13.8619,13.8619,13.8619,13.8684,13.9079,14.0197,14.1644,14.3025,14.4537,14.5852,14.6904,14.7167,14.7167,14.7167,14.7167,14.7167,14.7167,14.7167,14.7167,14.7167,14.7167,14.7167,14.7167,14.7167,14.7167,14.7167,14.7167,14.7167,14.7167,14.7167,14.7167,14.7167,14.7167,14.7167,14.7167,14.7167,14.7167,14.7167,14.7167,14.7167,14.7167,14.7167,14.7167,7.6535,7.6535,7.806,8.3935,8.2539,8.0154,8.2032,8.2597,8.1841,7.8351,8.1068,8.4788,8.6785,9.0566,9.5186,10.0877,10.8089,11.3827,11.6442,12.2621,12.6914,12.6914,12.8689,13.0465,13.1846,13.3424,13.4936,13.6317,13.7764,13.8619,13.8619,13.8619,13.8619,13.8619,13.8619,13.8619,13.8619,13.8619,13.8619,13.8619,13.8619,13.8619,13.8619,13.8619,13.8619,13.8619,13.8619,13.8619,13.8619,13.8619,13.8619,13.8619,13.8619,13.8619,13.8619,13.8619,13.8619,13.8619,13.8619,13.8619,13.8619,13.8619,13.8619,13.8619,13.8619,13.8619,13.8619,13.8619,13.8619,13.8619,13.8619,13.8619,13.8619,13.8619,13.9671,14.1117,14.2564,14.4011,14.5458,14.6904,14.7167,14.7167,14.7167,14.7167,14.7167,14.7167,14.7167,14.7167,14.7167,14.7167,14.7167,14.7167,14.7167,14.7167,14.7167,14.7167,14.7167,14.7167,14.7167,14.7167,14.7167,14.7167,14.7167,14.7167,14.7167,14.7167,14.7167,14.7167,14.7167,14.7167,14.7167,14.7167,7.6535,7.6535,7.742,8.0751,7.9049,7.7478,8.0809,7.8932,7.6535,7.6535,7.9964,8.3393,8.4749,9.138,9.6382,9.5714,10.0725,10.5784,10.8519,11.7335,12.3494,12.3494,12.7242,13.0333,13.1517,13.3292,13.4805,13.5988,13.7698,13.8619,13.8619,13.8619,13.8619,13.8619,13.8619,13.8619,13.8619,13.8619,13.8619,13.8619,13.8619,13.8619,13.8619,13.8619,13.8619,13.8619,13.8619,13.8619,13.8619,13.8619,13.8619,13.8619,13.8619,13.8619,13.8619,13.8619,13.8619,13.8619,13.8619,13.8619,13.8619,13.8619,13.8619,13.8619,13.8619,13.8619,13.8619,13.8619,13.8619,13.8619,13.8619,13.8619,13.8619,13.8619,13.9539,14.0789,14.2235,14.3682,14.5129,14.6575,14.697,14.7167,14.7167,14.7167,14.7167,14.7167,14.7167,14.7167,14.7167,14.7167,14.7167,14.7167,14.7167,14.7167,14.7167,14.7167,14.7167,14.7167,14.7167,14.7167,14.7167,14.7167,14.7167,14.7167,14.7167,14.7167,14.7167,14.7167,14.7167,14.7167,14.7167,14.7167,7.6535,7.6535,7.671,7.7362,7.7071,7.678,7.7362,7.7071,7.6535,7.6535,7.7175,7.8104,7.9456,8.1724,8.5738,9.295,9.6219,10.1078,11.0573,11.8581,12.3494,12.3494,12.7242,12.9939,13.0202,13.27,13.441,13.4607,13.7106,13.8619,13.8619,13.8619,13.8619,13.8619,13.8619,13.8619,13.8619,13.8619,13.8619,13.8619,13.8619,13.8619,13.8619,13.8619,13.8619,13.8619,13.8619,13.8619,13.8619,13.8619,13.8619,13.8619,13.8619,13.8619,13.8619,13.8619,13.8619,13.8619,13.8619,13.8619,13.8619,13.8619,13.8619,13.8619,13.8619,13.8619,13.8619,13.8619,13.8619,13.8619,13.8619,13.8619,13.8619,13.8619,13.8816,13.9342,14.0723,14.217,14.3616,14.5063,14.6312,14.7167,14.7167,14.7167,14.7167,14.7167,14.7167,14.7167,14.7167,14.7167,14.7167,14.7167,14.7167,14.7167,14.7167,14.7167,14.7167,14.7167,14.7167,14.7167,14.7167,14.7167,14.7167,14.7167,14.7167,14.7167,14.7167,14.7167,14.7167,14.7167,14.7167,14.7167,7.6535,7.6535,7.6535,7.6535,7.6535,7.6535,7.6535,7.6535,7.6535,7.6535,7.6535,7.7013,7.8292,8.1259,8.4785,8.8571,9.2097,9.7466,10.6293,11.6792,12.3494,12.3494,12.7242,12.9873,12.9873,13.2569,13.4344,13.4344,13.6975,13.8619,13.8619,13.8619,13.8619,13.8619,13.8619,13.8619,13.8619,13.8619,13.8619,13.8619,13.8619,13.8619,13.8619,13.8619,13.8619,13.8619,13.8619,13.8619,13.8619,13.8619,13.8619,13.8619,13.8619,13.8619,13.8619,13.8619,13.8619,13.8619,13.8619,13.8619,13.8619,13.8619,13.8619,13.8619,13.8619,13.8619,13.8619,13.8619,13.8619,13.8619,13.8619,13.8619,13.8619,13.8619,13.8619,13.9013,14.0394,14.1249,14.2367,14.4603,14.5523,14.6247,14.7036,14.7167,14.7167,14.7167,14.7167,14.7167,14.7167,14.7167,14.7167,14.7167,14.7167,14.7167,14.7167,14.7167,14.7167,14.7167,14.7167,14.7167,14.7167,14.7167,14.7167,14.7167,14.7167,14.7167,14.7167,14.7167,14.7167,14.7167,14.7167,14.7167,7.7711,0.0,7.8176,7.9107,7.8641,7.7943,0.0,7.7245,7.6535,7.6535,7.6535,7.6955,7.7885,8.2097,8.5564,8.5927,8.9775,9.5519,10.3591,11.3193,12.0009,12.1719,12.573,12.836,12.836,13.1977,13.4344,13.4344,13.6975,13.8619,13.8619,13.8619,13.8619,13.8619,13.8619,13.8619,13.8619,13.8619,13.8619,13.8619,13.8619,13.8619,13.8619,13.8619,13.8619,13.8619,13.8619,13.8619,13.8619,13.8619,13.8619,13.8619,13.8619,13.8619,13.8619,13.8619,13.8619,13.8619,13.8619,13.8619,13.8619,13.8619,13.8619,13.8619,13.8619,13.8619,13.8619,13.8619,13.8619,13.8619,13.8619,13.8619,13.8619,13.8619,13.8619,13.8882,14.0,14.0526,14.1512,14.4011,14.48,14.5458,14.6904,14.7167,14.7167,14.7167,14.7167,14.7167,14.7167,14.7167,14.7167,14.7167,14.7167,14.7167,14.7167,14.7167,14.7167,14.7167,14.7167,14.7167,14.7167,14.7167,14.7167,14.7167,14.7167,14.7167,14.7167,14.7167,14.7167,14.7167,14.7167,14.7167,0.0,8.2032,8.2847,8.6319,8.4574,8.2032,8.2032,7.9165,0.0,7.6535,7.6535,7.6594,7.6652,8.0369,8.4567,8.8058,9.0818,9.6299,10.7106,10.7901,10.9817,11.6524,12.1193,12.3889,12.3889,13.0202,13.4344,13.4344,13.6975,13.8619,13.8619,13.8619,13.8619,13.8619,13.8619,13.8619,13.8619,13.8619,13.8619,13.8619,13.8619,13.8619,13.8619,13.8619,13.8619,13.8619,13.8619,13.8619,13.8619,13.8619,13.8619,13.8619,13.8619,13.8619,13.8619,13.8619,13.8619,13.8619,13.8619,13.8619,13.8619,13.8619,13.8619,13.8619,13.8619,13.8619,13.8619,13.8619,13.8619,13.8619,13.8619,13.8619,13.8619,13.8619,13.8619,13.8619,13.875,13.9802,14.1183,14.2696,14.4077,14.5458,14.6904,14.7167,14.7167,14.7167,14.7167,14.7167,14.7167,14.7167,14.7167,14.7167,14.7167,14.7167,14.7167,14.7167,14.7167,14.7167,14.7167,14.7167,14.7167,14.7167,14.7167,14.7167,14.7167,14.7167,14.7167,14.7167,14.7167,14.7167,14.7167,14.7167,8.2032,8.4128,8.6261,8.7715,8.6959,8.535,8.2963,8.1275,7.9514,7.7129,7.6535,7.6535,7.6535,8.0213,8.404,8.6609,9.0147,9.691,10.9461,11.0573,11.3828,12.3757,12.4086,12.4546,12.7177,12.9084,13.132,13.4081,13.6975,13.8619,13.8619,13.8619,13.8619,13.8619,13.8619,13.8619,13.8619,13.8619,13.8619,13.8619,13.8619,13.8619,13.8619,13.8619,13.8619,13.8619,13.8619,13.8619,0.0,13.8619,13.8619,13.8619,13.8619,13.8619,13.8619,13.8619,13.8619,13.8619,13.8619,13.8619,13.8619,13.8619,13.8619,13.8619,13.8619,13.8619,13.8619,13.8619,13.8619,13.8619,13.8619,13.8619,13.8619,13.8619,13.8619,13.8619,13.8619,13.9079,13.9868,14.1249,14.2696,14.4142,14.5589,14.6575,14.7167,14.7167,14.7167,14.7167,14.7167,14.7167,14.7167,14.7167,14.7167,14.7167,14.7167,14.7167,14.7167,14.7167,14.7167,14.7167,14.7167,14.7167,14.7167,14.7167,14.7167,14.7167,14.7167,14.7167,14.7167,14.7167,14.7167,14.7167,8.5409,8.789,9.0158,9.138,9.0798,8.8879,8.5118,8.3313,8.1333,7.742,7.6535,7.6652,7.7129,8.1007,8.4571,8.627,9.0427,9.7891,11.0729,11.2513,11.6327,12.6651,12.527,12.4612,12.7571,12.9018,13.1056,13.4081,13.6975,13.8619,13.8619,13.8619,13.8619,13.8619,13.8619,13.8619,13.8619,13.8619,13.8619,13.8619,13.8619,13.8619,13.8619,13.8619,13.8619,13.8619,13.8619,13.8619,13.8619,13.8619,13.8619,13.8619,13.8619,13.8619,13.8619,13.8619,13.8619,13.8619,13.8619,13.8619,13.8619,13.8619,13.8619,13.8619,13.8619,13.8619,13.8619,13.8619,13.8619,13.8619,13.8619,13.8619,13.8619,13.8619,13.8619,13.8619,13.8619,13.8619,13.9079,14.046,14.1512,14.2761,14.4734,14.5852,14.6641,14.7102,14.7167,14.7167,14.7167,14.7167,14.7167,14.7167,14.7167,14.7167,14.7167,14.7167,14.7167,14.7167,14.7167,14.7167,14.7167,14.7167,14.7167,14.7167,14.7167,14.7167,14.7167,14.7167,14.7167,14.7167,14.7167,14.7167,9.1729,9.3881,9.4812,9.8593,9.6731,9.2892,8.8937,8.5176,8.1391,7.742,7.6594,7.7013,7.8292,8.2579,8.6343,8.7714,9.2084,9.9361,11.0869,11.2578,11.534,12.2639,12.3494,12.3494,12.3494,13.0004,13.4279,13.4344,13.6975,13.8619,13.8619,13.8619,13.8619,13.8619,13.8619,13.8619,13.8619,13.8619,13.8619,13.8619,13.8619,13.8619,13.8619,13.8619,13.8619,13.8619,13.8619,13.8619,13.8619,13.8619,13.8619,13.8619,13.8619,13.8619,13.8619,13.8619,13.8619,13.8619,13.8619,13.8619,13.8619,13.8619,13.8619,13.8619,13.8619,13.8619,13.8619,13.8619,13.8619,13.8619,13.8619,13.8619,13.8619,13.8619,13.8619,13.8619,13.8619,13.8619,13.9079,14.046,14.0723,14.1644,14.4537,14.4997,14.5523,14.6904,14.7167,14.7167,14.7167,14.7167,14.7167,14.7167,14.7167,14.7167,14.7167,14.7167,14.7167,14.7167,14.7167,14.7167,14.7167,14.7167,14.7167,14.7167,14.7167,14.7167,14.7167,14.7167,14.7167,14.7167,14.7167,14.7167,8.9868,9.3707,9.8127,9.9291,9.8709,9.615,8.9519,8.7192,8.4749,7.9107,7.7943,7.8721,8.1314,8.4803,8.7861,8.9535,9.5361,10.278,11.1329,11.5209,11.9878,12.7111,12.7966,12.6782,12.3757,12.8163,13.2043,13.4147,13.6054,13.7501,13.8553,13.8619,13.8619,13.8619,13.8619,13.8619,13.8619,13.8619,13.8619,13.8619,13.8619,13.8619,13.8619,13.8619,13.8619,13.8619,13.8619,13.8619,13.8619,13.8619,13.8619,13.8619,13.8619,13.8619,13.8619,13.8619,13.8619,13.8619,13.8619,13.8619,13.8619,13.8619,13.8619,13.8619,13.8619,13.8619,13.8619,13.8619,13.8619,13.8619,13.8619,13.8619,13.8619,13.8619,13.8619,13.8619,13.8619,13.8619,13.875,13.9145,14.0065,14.0986,14.1841,14.3682,14.5195,14.5589,14.651,14.7167,14.7167,14.7167,14.7167,14.7167,14.7167,14.7167,14.7167,14.7167,14.7167,14.7167,14.7167,14.7167,14.7167,14.7167,14.7167,14.7167,14.7167,14.7167,14.7167,14.7167,14.7167,14.7167,14.7167,14.7167,9.2834,9.6033,9.9698,10.0221,10.0338,9.8418,9.1264,8.9635,8.7657,8.0735,7.9872,8.1638,8.5733,8.7854,9.0038,9.337,9.6848,10.2254,11.1263,11.4814,11.9812,12.8821,12.9873,12.8886,12.6256,12.836,13.0859,13.3226,13.5265,13.6843,13.7698,13.829,13.8619,13.8619,13.8619,13.8619,13.8619,13.8619,13.8619,13.8619,13.8619,13.8619,13.8619,13.8619,13.8619,13.8619,13.8619,13.8619,13.8619,13.8619,13.8619,13.8619,13.8619,13.8619,13.8619,13.8619,13.8619,13.8619,13.8619,13.8619,13.8619,13.8619,13.8619,13.8619,13.8619,13.8619,13.8619,13.8619,13.8619,13.8619,13.8619,13.8619,13.8619,13.8619,13.8619,13.8619,13.8619,13.8619,13.8619,13.8619,13.9342,14.0065,14.0657,14.217,14.3682,14.4866,14.5786,14.651,14.7102,14.7167,14.7167,14.7167,14.7167,14.7167,14.7167,14.7167,14.7167,14.7167,14.7167,14.7167,14.7167,14.7167,14.7167,14.7167,14.7167,14.7167,14.7167,14.7167,14.7167,14.7167,14.7167,14.7167,9.8185,9.9291,9.9872,10.1152,10.1443,9.9814,9.3416,9.1962,8.9809,8.219,8.2113,8.5162,9.0929,9.1619,9.3243,9.8902,9.8344,10.0939,11.1658,11.3565,11.7905,12.8623,12.9873,12.9873,12.9873,12.9873,13.0399,13.1714,13.441,13.6054,13.6251,13.7764,13.8619,13.8619,13.8619,13.8619,13.8619,13.8619,13.8619,13.8619,13.8619,13.8619,13.8619,13.8619,13.8619,13.8619,13.8619,13.8619,13.8619,13.8619,13.8619,13.8619,13.8619,13.8619,13.8619,13.8619,13.8619,13.8619,13.8619,13.8619,13.8619,13.8619,13.8619,13.8619,13.8619,13.8619,13.8619,13.8619,13.8619,13.8619,13.8619,13.8619,13.8619,13.8619,13.8619,13.8619,13.8619,13.8619,13.8619,13.8619,13.8619,13.9013,14.0328,14.0657,14.1644,14.4274,14.4866,14.5523,14.6773,14.7102,14.7167,14.7167,14.7167,14.7167,14.7167,14.7167,14.7167,14.7167,14.7167,14.7167,14.7167,14.7167,14.7167,14.7167,14.7167,14.7167,14.7167,14.7167,14.7167,14.7167,14.7167,14.7167,9.5684,9.7255,9.9872,10.1152,10.1443,9.9814,9.3416,9.1962,9.0042,8.3371,8.3478,8.6849,9.3973,9.6294,9.9172,10.5261,10.9674,11.3499,11.7247,12.1587,12.5796,12.9478,12.9873,12.9873,12.9873,12.9873,13.0004,13.0267,13.1977,13.349,13.4739,13.7238,13.8619,13.8619,13.8619,13.8619,13.8619,13.8619,13.8619,13.8619,13.8619,13.8619,13.8619,13.8619,13.8619,13.8619,13.8619,13.8619,13.8619,13.8619,13.8619,13.8619,13.8619,13.8619,13.8619,13.8619,13.8619,13.8619,13.8619,13.8619,13.8619,13.8619,13.8619,13.8619,13.8619,13.8619,13.8619,13.8619,13.8619,13.8619,13.8619,13.8619,13.8619,13.8619,13.8619,13.8619,13.8619,13.8619,13.8619,13.8619,13.8619,13.875,13.9013,14.0,14.092,14.1578,14.3616,14.5129,14.5458,14.6444,14.7167,14.7167,14.7167,14.7167,14.7167,14.7167,14.7167,14.7167,14.7167,14.7167,14.7167,14.7167,14.7167,14.7167,14.7167,14.7167,14.7167,14.7167,14.7167,14.7167,14.7167,14.7167,9.7138,9.8069,9.9989,10.1908,10.2373,10.1696,9.8838,9.6558,9.3965,8.9863,8.8157,8.9495,9.6266,9.8335,10.0981,10.7309,11.1329,11.5011,11.8628,12.2311,12.5927,12.9478,12.9873,12.9873,12.9873,12.9873,12.9873,12.9873,13.1188,13.2372,13.3161,13.5331,13.7172,13.8619,13.8619,13.8619,13.8619,13.8619,13.8619,13.8619,13.8619,13.8619,13.8619,13.8619,13.8619,13.8619,13.8619,13.8619,13.8619,13.8619,13.8619,13.8619,13.8619,13.8619,13.8619,13.8619,13.8619,13.8619,13.8619,13.8619,13.8619,13.8619,13.8619,13.8619,13.8619,13.8619,13.8619,13.8619,13.8619,13.8619,13.8619,13.8619,13.8619,13.8619,13.8619,13.8619,13.8619,13.8619,13.8619,13.8619,13.8619,13.8619,13.8619,13.9211,13.9934,14.0657,14.2038,14.3485,14.4866,14.5063,14.5063,14.5063,14.5721,14.6115,14.6115,14.6773,14.7167,14.7167,14.7167,14.7167,14.7167,14.7167,14.7167,14.7167,14.7167,14.6838,14.6115,14.6115,14.5786,14.5063,14.5063,14.5063,9.9407,9.9581,10.0105,10.249,10.3565,10.4203,10.4554,10.2303,9.9717,9.7839,9.4733,9.4368,10.0158,10.1479,10.3721,10.9937,11.2118,11.4814,11.9943,12.185,12.4546,12.9281,12.9873,12.9873,12.9873,12.9873,12.9873,12.9873,13.0925,13.1714,13.1977,13.3226,13.5265,13.8158,13.8224,13.8356,13.8619,13.8619,13.8619,13.8619,13.8619,13.8619,13.8619,13.8619,13.8619,13.8619,13.8619,13.8619,13.8619,13.8619,13.8619,13.8619,13.8619,13.8619,13.8619,13.8619,13.8619,13.8619,13.8619,13.8619,13.8619,13.8619,13.8619,13.8619,13.8619,13.8619,13.8619,13.8619,13.8619,13.8619,13.8619,13.8619,13.8619,13.8619,13.8619,13.8619,13.8619,13.8619,13.8619,13.8619,13.8619,13.8619,13.8619,13.8619,13.9013,14.0197,14.0591,14.1578,14.4011,14.3222,14.2564,14.2827,14.3945,14.4668,14.4668,14.5721,14.6378,14.6378,14.6378,14.6378,14.6378,14.6378,14.6378,14.6378,14.6378,14.5852,14.4668,14.4668,14.4011,14.2827,14.2827,14.2827,9.8651,9.9581,9.993,10.1326,10.4099,10.5876,10.3787,10.5285,10.6174,10.2689,10.2713,10.4842,10.9448,11.1541,11.4524,12.0459,12.2639,12.4283,12.6256,12.7834,12.9018,12.9807,12.9873,12.9873,12.9873,12.9873,12.9873,12.9873,13.007,13.0728,13.1911,13.2174,13.3621,13.6646,13.6712,13.7304,13.8619,13.8619,13.8619,13.8619,13.8619,13.8619,13.8619,13.8619,13.8619,13.8619,13.8619,13.8619,13.8619,13.8619,13.8619,13.8619,13.8619,13.8619,13.8619,13.8619,13.8619,13.8619,13.8619,13.8619,13.8619,13.8619,13.8619,13.8619,13.8619,13.8619,13.8619,13.8619,13.8619,13.8619,13.8619,13.8619,13.8619,13.8619,13.8619,13.8619,13.8619,13.8619,13.8619,13.8619,13.8619,13.8619,13.8619,13.8619,13.8684,13.8882,13.9934,14.0854,14.1249,14.1117,14.1512,14.2696,14.3025,14.3156,14.3156,14.3288,14.3419,14.3419,14.3419,14.3419,14.3419,14.3419,14.3419,14.3419,14.3419,14.3288,14.3156,14.3156,14.3025,14.2827,14.2827,14.2827,9.8534,9.9581,9.9872,10.1152,10.3572,10.6163,10.7797,10.8494,10.8966,10.9384,10.7335,10.645,10.9331,11.1679,11.43,11.7953,12.2508,12.5796,12.6388,12.8426,12.9873,12.9873,12.9873,12.9873,12.9873,12.9873,12.9873,12.9873,12.9873,13.0136,13.0793,13.1583,13.2569,13.3884,13.5528,13.6777,13.7369,13.8224,13.8619,13.8619,13.8619,13.8619,13.8619,13.8619,13.8619,13.8619,13.8619,13.8619,13.8619,13.8619,13.8619,13.8619,13.8619,13.8619,13.8619,13.8619,13.8619,13.8619,13.8619,13.8619,13.8619,13.8619,13.8619,13.8619,13.8619,13.8619,13.8619,13.8619,13.8619,13.8619,13.8619,13.8619,13.8619,13.8619,13.8619,13.8619,13.8619,13.8619,13.8619,13.8619,13.8619,13.8619,13.8619,13.8619,13.8619,13.8619,13.9145,13.9539,13.9539,13.9539,13.9802,14.0394,14.1183,14.1644,14.1644,14.2367,14.2827,14.2827,14.2827,14.2827,14.2827,14.2827,14.2827,14.2827,14.2827,14.2433,14.1644,14.1644,14.1823,14.2099,14.1009,14.1655,9.6789,9.8516,9.9372,10.1309,10.4138,10.7487,11.1303,11.1856,11.2371,11.5238,11.2493,10.9965,11.1381,11.3072,11.491,11.6631,12.1456,12.527,12.5993,12.7966,12.9478,12.9807,12.9873,12.9873,12.9873,12.9873,12.9873,12.9873,12.9873,12.9873,12.9873,13.0859,13.1583,13.1977,13.4147,13.566,13.6449,13.7501,13.8224,13.8619,13.8619,13.8619,13.8619,13.8619,13.8619,13.8619,13.8619,13.8619,13.8619,13.8619,13.8619,13.8619,13.8619,13.8619,13.8619,13.8619,13.8619,13.8619,13.8619,13.8619,13.8619,13.8619,13.8619,13.8619,13.8619,13.8619,13.8619,13.8619,13.8619,13.8619,13.8619,13.8619,13.8619,13.8619,13.8619,13.8619,13.8619,13.8619,13.8619,13.8619,13.8619,13.8619,13.8619,13.8619,13.8619,13.8619,13.8619,13.8619,13.8619,13.8619,13.8619,13.8619,13.9539,14.0197,14.0197,14.1183,14.1775,14.1775,14.1775,14.1775,14.1775,14.1775,14.1775,14.1775,14.1775,14.1249,14.0197,14.0197,14.041,14.0746,13.9265,14.0149,9.2078,9.5636,9.8071,10.1816,10.7005,11.1324,11.153,11.5212,11.8675,11.8891,11.9736,12.0525,12.0601,12.0722,12.1313,12.2694,12.3363,12.4481,12.7177,12.7703,12.8295,12.9741,12.9873,12.9873,12.9873,12.9873,12.9873,12.9873,12.9873,12.9873,12.9873,12.9939,13.0596,13.1977,13.2109,13.3555,13.6383,13.6514,13.7238,13.8619,13.8619,13.8619,13.8619,13.8619,13.8619,13.8619,13.8619,13.8619,13.8619,13.8619,13.8619,13.8619,13.8619,13.8619,13.8619,13.8619,13.8619,13.8619,13.8619,13.8619,13.8619,13.8619,13.8619,13.8619,13.8619,13.8619,13.8619,13.8619,13.8619,13.8619,13.8619,13.8619,13.8619,13.8619,13.8619,13.8619,13.8619,13.8619,13.8619,13.8619,13.8619,13.8619,13.8619,13.8619,13.8619,13.8619,13.8619,13.8619,13.8619,13.8619,13.8619,13.8619,13.8684,13.875,13.875,13.8816,13.8816,13.8816,13.8816,13.8816,13.8816,13.8816,13.8816,13.8816,13.8816,13.8816,13.875,13.875,13.8684,13.8793,13.8619,13.8706,9.1787,9.5424,9.7933,10.1806,10.6504,11.0276,11.1378,11.4,11.659,11.7444,11.8891,11.9878,11.9878,12.0667,12.1456,12.1982,12.2837,12.3823,12.4809,12.6519,12.79,12.8426,12.9281,12.9873,12.9873,12.9873,12.9873,12.9873,12.9873,12.9873,12.9873,12.9873,13.0136,13.0596,13.1517,13.2503,13.3555,13.4542,13.5791,13.7238,13.8158,13.8619,13.8619,13.8619,13.8619,13.8619,13.8619,13.8619,13.8619,13.8619,13.8619,13.8619,13.8619,13.8619,13.8619,13.8619,13.8619,13.8619,13.8619,13.8619,13.8619,13.8619,13.8619,13.8619,13.8619,13.8619,13.8619,13.8619,13.8619,13.8619,13.8619,13.8619,13.8619,13.8619,13.8619,13.8619,13.8619,13.8619,13.8619,13.8619,13.8619,13.8619,13.8619,13.8619,13.8619,13.8619,13.8619,13.8619,13.8619,13.8619,13.8619,13.8619,13.8619,13.8619,13.8619,13.8619,13.8619,13.8619,13.8619,13.8619,13.8619,13.8619,13.8619,13.8619,13.8619,13.8619,13.8619,13.8619,13.988,14.2301,14.1007,14.2469,8.8239,9.2541,9.6182,10.0833,10.563,10.9736,11.1509,11.3341,11.5011,11.5932,11.7313,11.8562,11.9088,11.9943,12.0732,12.1193,12.2113,12.2902,12.3428,12.5072,12.6585,12.7571,12.8558,12.9347,12.9807,12.9873,12.9873,12.9873,12.9873,12.9873,12.9873,12.9873,12.9873,12.9873,13.0793,13.1517,13.1977,13.3029,13.4279,13.5725,13.6712,13.7435,13.7895,13.8421,13.8619,13.8619,13.8619,13.8619,13.8619,13.8619,13.8619,13.8619,13.8619,13.8619,13.8619,13.8619,13.8619,13.8619,13.8619,13.8619,13.8619,13.8619,13.8619,13.8619,13.8619,13.8619,13.8619,13.8619,13.8619,13.8619,13.8619,13.8619,13.8619,13.8619,13.8619,13.8619,13.8619,13.8619,13.8619,13.8619,13.8619,13.8619,13.8619,13.8619,13.8619,13.8619,13.8619,13.8619,13.8619,13.8619,13.8619,13.8619,13.8619,13.8619,13.8619,13.8619,13.8619,13.8619,13.8619,13.8619,13.8619,13.8619,13.8901,13.9541,13.9541,13.9964,14.0498,14.0498,14.1906,14.4373,14.3088,14.4594,8.1566,8.6819,9.266,9.887,10.4703,10.9576,11.1948,11.3559,11.4545,11.461,11.5801,11.7247,11.876,11.9088,11.9615,12.0995,12.1258,12.1785,12.3231,12.3428,12.4481,12.7242,12.7637,12.8229,12.961,12.9807,12.9807,12.9807,12.9873,12.9873,12.9873,12.9873,12.9873,12.9873,12.9873,13.053,13.1911,13.1911,13.27,13.4279,13.4279,13.5002,13.6449,13.783,13.8553,13.8553,13.8553,13.8619,13.8619,13.8619,13.8619,13.8619,13.8619,13.8619,13.8619,13.8619,13.8619,13.8619,13.8619,13.8619,13.8619,13.8619,13.8619,13.8619,13.8619,13.8619,13.8619,13.8619,13.8619,13.8619,13.8619,13.8619,13.8619,13.8619,13.8619,13.8619,13.8619,13.8619,13.8619,13.8619,13.8619,13.8619,13.8619,13.8619,13.8619,13.8619,13.8619,13.8619,13.8619,13.8619,13.8619,13.8619,13.8619,13.8619,13.8619,13.8619,13.8619,13.8619,13.8619,13.8706,13.8706,13.8793,13.9626,14.1586,14.1506,14.2469,14.4373,14.4373,14.4373,14.452,14.452,14.452,8.5447,8.6803,8.9567,9.9636,10.2448,10.4071,10.9062,11.0466,11.1236,11.2818,11.4288,11.5406,11.5866,11.7708,11.9286,11.968,12.0601,12.139,12.1785,12.2771,12.3757,12.4546,12.6453,12.744,12.6848,12.7703,12.8295,12.8295,12.9281,12.9873,12.9873,12.9873,12.9873,12.9873,12.9873,13.007,13.0465,13.0465,13.1188,13.2635,13.2635,13.3424,13.4936,13.5331,13.6054,13.704,13.704,13.7632,13.8619,13.8619,13.8619,13.8619,13.8619,13.8619,13.8619,13.8619,13.8619,13.8619,13.8619,13.8619,13.8619,13.8619,13.8619,13.8619,13.8619,13.8619,13.8619,13.8619,13.8619,13.8619,13.8619,13.8619,13.8619,13.8619,13.8619,13.8619,13.8619,13.8619,13.8619,13.8619,13.8619,13.8619,13.8619,13.8619,13.8619,13.8619,13.8619,13.8619,13.8619,13.8619,13.8619,13.8619,13.8619,13.8619,13.8619,13.8619,13.8619,13.8619,13.9897,14.0746,14.0746,14.2065,14.3088,14.3553,14.2234,14.2469,14.4373,14.3011,14.3779,14.6575,14.6575,14.7321,8.2248,8.3351,8.6088,9.3674,9.6074,9.8386,10.5371,10.6848,10.7941,11.1763,11.3236,11.3959,11.4617,11.6129,11.751,11.8102,11.9417,12.0404,12.0404,12.1653,12.2771,12.3363,12.4941,12.5599,12.4744,12.5993,12.7045,12.7637,12.8492,12.9215,12.9807,12.9873,12.9873,12.9873,12.9873,12.9873,12.9873,12.9873,13.0267,13.1122,13.1122,13.1911,13.3358,13.3358,13.4147,13.5528,13.5528,13.6054,13.6843,13.6843,13.7172,13.7698,13.7698,13.8093,13.8487,13.7304,13.6843,13.6909,13.7501,13.7698,13.783,13.8421,13.8619,13.8619,13.8619,13.8619,13.8619,13.8619,13.8619,13.8619,13.8619,13.8619,13.8619,13.8619,13.8619,13.8619,13.8619,13.8619,13.8619,13.8619,13.8619,13.8619,13.8619,13.8619,13.8619,13.8619,13.8619,13.8619,13.8619,13.8619,13.8619,13.8619,13.8619,13.8619,13.8619,13.8619,13.8619,13.8619,13.9626,14.0249,14.0249,14.2223,14.3553,14.4373,14.4078,14.4885,14.6848,14.5671,14.6369,14.8502,14.8502,14.9211,7.5442,7.8131,8.2554,8.4822,8.7602,9.2045,0.0,10.2015,10.3596,10.9374,11.0649,11.1249,11.2425,11.3421,11.442,11.5669,11.7576,11.8957,11.9154,12.0272,12.1522,12.2837,12.2968,12.3034,12.3231,12.4481,12.5862,12.7111,12.7374,12.8032,12.9347,12.9544,12.961,12.961,12.9807,12.9873,12.9873,12.9873,12.9873,12.9873,12.9873,13.053,13.178,13.178,13.2503,13.3818,13.4016,13.4081,13.4081,13.4279,13.5068,13.6186,13.6186,13.6975,13.783,13.5265,13.4344,13.4476,13.5791,13.6186,13.6383,13.7698,13.8158,13.8158,13.8158,13.8224,13.8356,13.8356,13.8487,13.8619,13.8619,13.8619,13.8619,13.8619,13.8619,13.8619,13.8619,13.8619,13.8619,13.8619,13.8619,13.8619,13.8619,13.8619,13.8619,13.8619,13.8619,13.8619,13.8619,13.8619,13.8619,13.8619,13.8619,13.8619,13.8619,13.8619,13.8619,13.8619,13.8793,13.9074,13.918,14.1088,14.3088,14.5029,14.6575,14.8309,15.0208,15.0027,15.0027,15.0208,15.0208,15.0065,0.0,0.0,0.0,0.0,0.0,0.0,0.0,9.2133,9.3271,9.7353,9.9134,10.0148,10.0407,10.5453,10.9619,10.9882,11.4091,11.7708,11.9023,11.9417,11.968,11.9943,12.0009,12.0469,12.1587,12.3034,12.3955,12.4283,12.5335,12.6125,12.6388,12.7506,12.8097,12.8097,12.9281,12.9873,12.9873,12.9873,12.9873,12.9873,12.9873,13.0004,13.0267,13.0267,13.0465,13.0793,13.1977,13.2437,13.2569,13.3818,13.4476,13.4739,13.4739,13.4936,13.5068,13.4542,13.4344,13.4344,13.4607,13.4739,13.4805,13.5068,13.5133,13.5133,13.5133,13.5923,13.6843,13.6843,13.7698,13.8619,13.8619,13.8619,13.8619,13.8619,13.8619,13.8619,13.8619,13.8619,13.8619,13.8619,13.8619,13.8619,13.8619,13.8619,13.8619,13.8619,13.8619,13.8619,13.8619,13.8619,13.8619,13.8619,13.8619,13.8619,13.8619,13.8619,13.8619,13.8619,14.0065,14.1667,14.3241,14.5173,14.7117,14.9086,14.7915,14.8309,15.0208,14.87,14.8763,15.0208,15.0208,14.8924,0.0,0.0,0.0,0.0,0.0,0.0,0.0,0.0,0.0,0.0,0.0,9.5335,9.6709,0.0,10.6167,10.7051,11.2052,11.6064,11.6853,11.7576,11.7971,11.7971,11.8694,11.9417,12.0141,12.1522,12.2705,12.3428,12.4152,12.4809,12.5533,12.6256,12.6651,12.6651,12.8032,12.8755,12.8755,12.9544,12.9873,12.9873,12.9873,12.9873,12.9873,12.9873,12.9873,12.9939,13.0596,13.0925,13.0991,13.178,13.2503,13.3095,13.2372,13.2109,13.2109,13.2109,13.2109,13.2174,13.2898,13.3161,13.3292,13.4081,13.4344,13.4344,13.4344,13.4805,13.5397,13.5397,13.5923,13.6449,13.6449,13.6975,13.7501,13.7501,13.8093,13.8619,13.8619,13.8619,13.8619,13.8619,13.8619,13.8619,13.8619,13.8619,13.8619,13.8619,13.8619,13.8619,13.8619,13.8619,13.7764,13.5528,13.7304,13.7698,13.5528,13.7369,13.8619,13.8619,13.9456,14.0498,14.1493,14.43,14.5951,14.6129,14.711,14.7712,14.7925,14.6931,14.6931,14.7925,14.7925,14.7069,0.0,0.0,0.0,0.0,0.0,0.0,0.0,0.0,0.0,0.0,0.0,0.0,0.0,0.0,0.0,10.4423,10.9488,11.3433,11.4551,11.5472,11.6129,11.6392,11.751,11.8431,11.8694,11.9746,12.1061,12.2508,12.2639,12.3231,12.4678,12.5007,12.5138,12.5138,12.6519,12.7308,12.7308,12.8426,12.9018,12.9084,12.9347,0.0,12.9478,12.9741,12.9873,12.9873,12.9873,12.9873,12.9873,12.9873,13.053,13.1385,12.9741,12.9018,12.9018,12.9018,12.9215,12.961,13.0793,13.132,13.178,13.3029,13.349,13.349,13.349,13.3621,0.0,13.3884,13.4081,13.4344,13.4344,13.5199,13.6054,13.6054,13.6909,13.7764,13.7764,13.7764,13.7895,13.8158,13.8224,13.829,13.8553,13.7694,13.6763,13.6169,13.6103,13.6066,13.6054,13.6843,13.6093,13.2885,13.6536,13.7895,13.4666,13.659,13.8235,13.9094,13.8023,13.7476,13.7905,14.0637,14.1491,14.0123,14.3141,14.4631,14.4274,14.4274,14.4644,14.5558,14.2191,14.1151,0.0,0.0,0.0,0.0,0.0,0.0,0.0,0.0,0.0,0.0,0.0,0.0,0.0,0.0,0.0,0.0,10.4096,10.8896,11.4025,11.3762,11.3499,11.4814,11.5077,11.5735,11.6984,11.7247,11.7971,11.9549,11.968,12.0272,12.1719,12.2968,0.0,0.0,0.0,12.5796,12.5796,12.5993,12.6059,12.6059,12.7308,12.79,12.7966,12.9281,12.9873,12.9873,12.9873,12.9873,12.9873,12.9873,13.0004,12.9873,12.7111,12.6059,12.6059,12.6059,12.6848,12.7966,12.8097,0.0,0.0,13.0333,13.0399,13.0399,13.0399,13.1254,13.224,13.224,13.3226,13.4344,13.4344,13.441,13.4542,13.4542,13.4673,13.4805,13.4805,13.4805,13.5199,13.6449,13.6646,13.7106,13.8421,13.4334,13.0105,12.7428,12.7026,12.7036,12.7007,13.0399,13.3182,13.4577,13.863,0.0,14.2944,13.8373,13.7084,14.0901,13.5829,13.3544,13.5404,13.4711,13.3764,13.2816,13.3239,13.5426,13.9366,13.9366,14.1562,14.5215,13.0057,12.5199,0.0,0.0,0.0,0.0,0.0,0.0,0.0,0.0,0.0,0.0,0.0,0.0,0.0,0.0,0.0,0.0,10.2128,10.666,10.8238,10.8699,10.9948,11.3039,11.4222,11.4946,11.5537,11.6327,11.7116,11.7773,11.7773,11.8102,11.8694,12.0141,12.093,12.093,12.3165,12.4349,12.4349,12.5138,12.5599,12.5599,12.619,12.6453,12.6453,12.7111,12.7374,12.7374,12.7374,12.7374,12.7374,12.7374,12.7374,12.7242,0.0,0.0,0.0,0.0,12.5927,12.6453,12.6453,12.6848,12.7374,12.7374,12.7374,12.7374,12.7374,12.7769,12.8229,12.8229,12.9347,13.0465,13.0465,13.1714,13.2963,13.2963,13.3687,13.4344,13.4344,13.4344,13.4476,13.5068,13.5199,0.0,13.8801,13.6387,13.4047,13.3805,13.2936,13.2608,13.3666,13.5354,13.5818,13.3904,13.76,13.9315,13.7329,13.6395,0.0,0.0,0.0,13.5797,13.7705,13.6185,0.0,0.0,0.0,13.2104,13.0493,12.875,0.0,0.0,12.305,11.9473,0.0,0.0,0.0,0.0,0.0,0.0,0.0,0.0,0.0,0.0,0.0,0.0,0.0,0.0,0.0,0.0,9.763,10.1408,10.1604,10.3898,10.6857,11.0343,11.2776,11.4091,11.4091,11.5011,11.5801,11.6195,11.6261,11.6392,11.6787,11.7905,11.8497,11.8497,12.0535,12.185,12.2245,12.3297,12.402,12.4415,12.4809,12.5007,12.5007,12.5401,12.5599,12.5599,12.5599,12.5599,12.5599,12.5599,12.5599,12.5467,12.4678,12.4415,12.4415,12.4415,12.4415,12.4415,12.4875,12.527,12.5599,12.5599,12.5599,12.5599,12.5599,12.5599,12.5599,12.5599,12.6322,12.7111,12.7111,12.8623,13.0202,13.0202,13.1122,13.2043,13.2437,13.2503,13.2867,13.4174,13.3462,13.3192,13.5075,13.4639,13.4422,13.5361,13.4807,13.4722,13.605,13.7289,13.6939,13.4039,13.7569,13.8965,13.5962,13.6154,13.7309,13.9234,13.7289,13.6491,13.7606,13.6152,13.3829,13.085,13.0751,12.8837,0.0,0.0,0.0,0.0,0.0,0.0,0.0,0.0,0.0,0.0,0.0,0.0,0.0,0.0,0.0,0.0,0.0,0.0,0.0,0.0,0.0,0.0,0.0,0.0,9.4916,10.0429,10.4622,10.6134,11.0014,11.2578,11.2578,11.2644,11.3236,11.4683,11.4748,11.5406,11.6721,11.6853,11.6918,11.6918,11.6984,11.7773,11.9286,11.9351,12.0075,12.1456,12.2837,12.3494,12.356,12.4941,12.5599,12.5599,12.5599,12.5599,12.5599,12.5599,12.5599,12.5335,12.2508,12.139,12.139,12.139,12.139,12.1587,12.3034,12.4415,12.5599,12.5599,12.5599,12.5599,12.5599,12.5599,12.5599,12.5599,12.5599,12.5664,12.5664,12.573,12.5796,12.5796,12.5796,12.6256,12.7571,12.79,12.9333,13.3963,13.1313,12.7452,12.4805,12.554,12.6179,12.5005,12.6132,0.0,12.7134,13.0882,13.417,13.5962,14.0029,14.3276,14.5019,13.9691,13.7297,13.9767,13.5845,13.3125,13.2242,13.1397,12.9522,12.6237,12.3751,12.3889,12.6855,0.0,0.0,0.0,0.0,0.0,0.0,0.0,0.0,0.0,0.0,0.0,0.0,0.0,0.0,0.0,0.0,0.0,0.0,0.0,0.0,0.0,0.0,0.0,0.0,9.3911,9.9821,10.4161,10.6003,10.7252,10.8173,10.8238,10.8501,10.8962,11.1658,11.3499,11.3959,11.488,11.5406,11.5406,11.6327,11.705,11.7576,11.7642,11.7839,11.8365,11.8825,11.9088,11.9088,12.0667,12.1324,12.139,12.2311,12.2705,12.2705,12.2705,12.1587,11.968,11.8694,11.8365,11.8365,11.8365,11.8365,11.8365,11.8891,11.9351,11.9812,11.9812,11.9812,11.9812,11.9812,11.9812,11.9812,11.9812,12.1193,12.2705,12.2705,12.4152,12.5599,12.5599,12.5599,12.6058,12.756,12.7996,12.849,13.0103,13.0121,12.9669,12.8694,12.9936,13.0879,13.0633,13.1874,13.3246,13.4397,13.6856,13.8462,13.8892,14.0239,14.0855,13.9978,13.8189,13.7496,13.8391,13.6236,13.5426,13.6337,13.3969,13.2713,13.28,12.7536,12.3382,12.0585,0.0,0.0,0.0,0.0,0.0,0.0,0.0,0.0,0.0,0.0,0.0,0.0,0.0,0.0,0.0,0.0,0.0,0.0,0.0,0.0,0.0,0.0,0.0,0.0,0.0,0.0,10.2452,10.4556,0.0,10.5345,10.5345,10.495,10.3832,10.6331,10.8567,11.0145,11.1132,11.2315,11.3894,11.4814,11.5537,11.6064,11.6064,11.6327,11.6853,11.6853,11.6853,11.6853,11.7905,11.8299,11.8365,11.9286,11.968,11.968,11.968,11.8562,11.6655,11.5143,11.4551,11.4551,11.4551,11.4551,11.4748,11.6327,11.6853,11.6853,11.6853,11.6853,11.6524,11.5011,11.4551,11.4222,11.271,11.4748,11.7379,11.7379,11.9878,12.2442,12.2442,12.2442,12.309,12.5162,12.566,12.5694,12.5909,12.6799,12.717,12.5713,12.9039,13.1464,13.0013,13.3389,13.6442,13.7616,13.8637,13.9386,13.9691,13.9711,13.9334,13.8465,13.8176,13.767,13.7074,13.6383,13.5962,13.5844,13.3928,13.2787,13.2729,12.6484,12.1125,0.0,0.0,0.0,0.0,0.0,0.0,0.0,0.0,0.0,0.0,0.0,0.0,0.0,0.0,0.0,0.0,0.0,0.0,0.0,0.0,0.0,0.0,0.0,0.0,0.0,0.0,0.0,10.061,10.5016,0.0,0.0,0.0,0.0,9.9167,9.9167,10.1136,10.5345,10.5608,10.7646,11.1987,11.2184,11.2973,11.4617,11.4617,11.5274,11.659,11.659,11.659,11.659,11.6721,11.6721,11.6721,11.6787,11.6853,11.6787,11.6458,11.6261,11.5866,11.1789,11.008,10.9882,10.9882,10.9882,11.0474,11.4551,11.6129,11.6261,11.6261,11.6261,11.5537,11.146,11.0014,0.0,0.0,10.6792,11.0014,11.0211,11.3367,11.6524,11.6787,11.6853,11.7576,12.0555,12.1148,12.1273,12.133,12.1407,12.0025,11.5671,0.0,12.675,12.2759,12.9833,13.5658,13.5817,13.6086,13.6853,13.8352,13.8494,13.901,14.0452,13.9295,13.7681,13.5874,13.602,13.4513,13.0885,13.1134,12.9598,12.5862,12.0527,0.0,0.0,0.0,0.0,0.0,0.0,0.0,0.0,0.0,0.0,0.0,0.0,0.0,0.0,0.0,0.0,0.0,0.0,0.0,0.0,0.0,0.0,0.0,0.0,0.0,0.0,8.2311,8.9239,9.7462,9.6665,9.5941,0.0,0.0,0.0,0.0,0.0,0.0,9.798,9.9032,10.1597,10.6068,10.7186,10.9488,11.3039,11.3104,11.3302,11.3631,11.3631,11.3631,11.3631,11.4748,11.5274,11.534,11.6392,11.6853,11.6392,11.1066,10.883,10.8764,10.7646,10.5213,10.232,10.232,10.232,10.2517,10.3569,10.6134,10.883,10.883,10.883,10.8633,10.7515,0.0,0.0,0.0,0.0,10.4687,10.7975,11.0474,11.2841,11.6064,11.6853,11.7424,11.9521,12.0005,11.866,11.424,11.4301,11.3462,10.7896,11.095,0.0,11.5231,12.1531,12.7291,13.0529,13.4044,13.6425,13.6853,13.6853,13.6484,13.5491,13.6331,13.6047,13.4199,13.4333,13.297,12.9655,12.8467,12.4966,11.8507,0.0,0.0,0.0,0.0,0.0,0.0,0.0,0.0,0.0,0.0,0.0,0.0,0.0,0.0,0.0,0.0,0.0,0.0,0.0,0.0,0.0,0.0,0.0,0.0,0.0,0.0,0.0,7.5491,8.2566,9.0008,8.8777,8.7619,0.0,0.0,0.0,0.0,0.0,0.0,0.0,0.0,0.0,10.0019,10.1531,10.4359,10.8764,10.9422,11.0671,11.2513,11.2513,11.2513,11.2578,11.3367,11.3762,11.3696,11.2578,11.2118,11.1789,10.7778,10.6134,10.5739,0.0,0.0,0.0,0.0,9.5415,9.5152,9.6994,10.0545,10.3832,10.1991,0.0,0.0,0.0,0.0,0.0,0.0,0.0,10.0347,10.2846,10.7383,11.1921,11.4354,11.4946,11.5366,11.7098,11.3374,10.9236,10.7179,10.7063,10.575,10.1102,10.4591,0.0,0.0,0.0,12.1939,12.5524,13.0172,13.3714,13.5069,13.5212,13.5101,13.477,13.5007,13.4477,13.2861,13.2163,13.0759,12.8249,12.4087,11.9576,0.0,0.0,0.0,0.0,0.0,0.0,0.0,0.0,0.0,0.0,0.0,0.0,0.0,0.0,0.0,0.0,0.0,0.0,0.0,0.0,0.0,0.0,0.0,0.0,0.0,0.0,0.0,0.0,0.0,7.5099,8.1334,0.0,0.0,0.0,0.0,0.0,0.0,0.0,0.0,0.0,0.0,0.0,0.0,0.0,9.8375,10.278,10.4096,10.6529,11.0277,11.0474,11.054,11.054,11.0737,11.0803,11.0606,10.6463,0.0,10.5411,10.4293,0.0,0.0,0.0,0.0,0.0,0.0,0.0,0.0,0.0,0.0,0.0,0.0,0.0,0.0,0.0,0.0,0.0,0.0,0.0,0.0,0.0,0.0,11.0474,11.1197,11.1395,11.1526,11.2052,10.4227,9.7743,9.9866,9.9333,9.7513,0.0,0.0,0.0,0.0,0.0,0.0,12.0497,12.5593,13.0003,13.2715,13.3,13.3571,13.4927,13.3785,13.2429,13.1074,12.8973,12.6915,12.5196,11.8817,0.0,0.0,0.0,0.0,0.0,0.0,0.0,0.0,0.0,0.0,0.0,0.0,0.0,0.0,0.0,0.0,0.0,0.0,0.0,0.0,0.0,0.0,0.0,0.0,0.0,0.0,0.0,0.0,0.0,0.0,0.0,0.0,0.0,0.0,0.0,0.0,0.0,0.0,0.0,0.0,0.0,0.0,0.0,0.0,0.0,0.0,0.0,0.0,0.0,0.0,9.9427,10.0019,10.0019,10.1268,10.1794,10.1662,9.8506,9.9164,10.186,9.4758,0.0,0.0,0.0,0.0,0.0,0.0,0.0,0.0,0.0,0.0,0.0,0.0,0.0,0.0,0.0,0.0,0.0,0.0,0.0,0.0,0.0,0.0,9.9492,10.4359,10.5476,10.4227,9.9624,0.0,0.0,0.0,0.0,0.0,0.0,0.0,0.0,0.0,0.0,0.0,11.4204,12.2079,12.7577,12.8148,12.8148,12.8291,12.8576,12.8362,12.8077,12.7792,12.2849,11.8628,0.0,0.0,0.0,0.0,0.0,0.0,0.0,0.0,0.0,0.0,0.0,0.0,0.0,0.0,0.0,0.0,0.0,0.0,0.0,0.0,0.0,0.0,0.0,0.0,0.0,0.0,0.0,0.0,0.0,0.0,0.0,0.0,0.0,0.0,0.0,0.0,0.0,0.0,0.0,0.0,0.0,0.0,0.0,0.0,0.0,0.0,0.0,0.0,0.0,0.0,0.0,0.0,0.0,0.0,0.0,0.0,0.0,0.0,9.581,9.2654,0.0,0.0,0.0,0.0,0.0,0.0,0.0,0.0,0.0,0.0,0.0,0.0,0.0,0.0,0.0,0.0,0.0,0.0,0.0,0.0,0.0,0.0,0.0,0.0,0.0,0.0,0.0,0.0,0.0,0.0,0.0,0.0,0.0,0.0,0.0,0.0,0.0,0.0,0.0,0.0,11.0282,11.9548,12.6079,12.6864,12.6935,12.6935,12.6935,12.6935,12.5508,12.2226,11.9246,0.0,0.0,0.0,0.0,0.0,0.0,0.0,0.0,0.0,0.0,0.0,0.0,0.0,0.0,0.0,0.0,0.0,0.0,0.0,0.0,0.0,0.0,0.0,0.0,0.0,0.0,0.0,0.0,0.0,0.0,0.0,0.0,0.0,0.0,0.0,0.0,0.0,0.0,0.0,0.0,0.0,0.0,0.0,0.0,0.0,0.0,0.0,0.0,0.0,0.0,0.0,0.0,0.0,0.0,0.0,0.0,0.0,0.0,0.0,9.2456,8.6341,0.0,0.0,0.0,0.0,0.0,0.0,0.0,0.0,0.0,0.0,0.0,0.0,0.0,0.0,0.0,0.0,0.0,0.0,0.0,0.0,0.0,0.0,0.0,0.0,0.0,0.0,0.0,0.0,0.0,0.0,0.0,0.0,0.0,0.0,0.0,0.0,0.0,0.0,0.0,0.0,10.7326,11.7249,12.4509,12.5794,12.5936,12.5936,12.5936,12.5936,12.3198,11.6902,11.5361,0.0,0.0,0.0,0.0,0.0,0.0,0.0,0.0,0.0,0.0,0.0,0.0,0.0,0.0,0.0,0.0,0.0,0.0,0.0,0.0,0.0,0.0,0.0,0.0,0.0,0.0,0.0,0.0,0.0,0.0,0.0,0.0,0.0,0.0,0.0,0.0,0.0,0.0,0.0,0.0,0.0,0.0,0.0,0.0,0.0,0.0,0.0,0.0,0.0,0.0,0.0,0.0,0.0,0.0,0.0,0.0,0.0,0.0,0.0,0.0,0.0,0.0,0.0,0.0,0.0,0.0,0.0,0.0,0.0,0.0,0.0,0.0,0.0,0.0,0.0,0.0,0.0,0.0,0.0,0.0,0.0,0.0,0.0,0.0,0.0,0.0,0.0,0.0,0.0,0.0,0.0,0.0,0.0,0.0,0.0,0.0,0.0,0.0,0.0,0.0,0.0,10.4572,11.5057,12.2369,12.2463,12.2463,12.2463,12.2463,12.2463,11.9935,11.4111,0.0,0.0,0.0,0.0,0.0,0.0,0.0,0.0,0.0,0.0,0.0,0.0,0.0,0.0,0.0,0.0,0.0,0.0,0.0,0.0,0.0,0.0,0.0,0.0,0.0,0.0,0.0,0.0,0.0,0.0,0.0,0.0,0.0,0.0,0.0,0.0,0.0,0.0,0.0,0.0,0.0,0.0,0.0,0.0,0.0,0.0,0.0,0.0,0.0,0.0,0.0,0.0,0.0,0.0,0.0,0.0,0.0,0.0,0.0,0.0,0.0,0.0,0.0,0.0,0.0,0.0,0.0,0.0,0.0,0.0,0.0,0.0,0.0,0.0,0.0,0.0,0.0,0.0,0.0,0.0,0.0,0.0,0.0,0.0,0.0,0.0,0.0,0.0,0.0,0.0,0.0,0.0,0.0,0.0,0.0,0.0,0.0,0.0,0.0,0.0,0.0,0.0,10.2947,11.416,12.2035,12.2035,12.2035,12.2035,12.2035,12.2035,11.8322,10.9568,0.0,0.0,0.0,0.0,0.0,0.0,0.0,0.0,0.0,0.0,0.0,0.0,0.0,0.0,0.0,0.0,0.0,0.0,0.0,0.0,0.0,0.0,0.0,0.0,0.0,0.0,0.0,0.0,0.0,0.0,0.0,0.0,0.0,0.0,0.0,0.0,0.0,0.0,0.0,0.0,0.0,0.0,0.0,0.0,0.0,0.0,0.0,0.0,0.0,0.0,0.0,0.0,0.0,0.0,0.0,0.0,0.0,0.0,0.0,0.0,0.0,0.0,0.0,0.0,0.0,0.0,0.0,0.0,0.0,0.0,0.0,0.0,0.0,0.0,0.0,0.0,0.0,0.0,0.0,0.0,0.0,0.0,0.0,0.0,0.0,0.0,0.0,0.0,0.0,0.0,0.0,0.0,0.0,0.0,0.0,0.0,0.0,0.0,0.0,0.0,0.0,0.0,10.2047,11.3857,12.2035,12.2035,12.2035,12.2035,12.2035,12.0751,11.5835,10.6073,0.0,0.0,0.0,0.0,0.0,0.0,0.0,0.0,0.0,0.0,0.0,0.0,0.0,0.0,0.0,0.0,0.0,0.0,0.0,0.0,0.0,0.0,0.0,0.0,0.0,0.0,0.0,0.0,0.0,0.0,0.0,0.0,0.0,0.0,0.0,0.0,0.0,0.0,0.0,0.0,0.0,0.0,0.0,0.0,0.0,0.0,0.0,0.0,0.0,0.0,0.0,0.0,0.0,0.0,0.0,0.0,0.0,0.0,0.0,0.0,0.0,0.0,0.0,0.0,0.0,0.0,0.0,0.0,0.0,0.0,0.0,0.0,0.0,0.0,0.0,0.0,0.0,0.0,0.0,0.0,0.0,0.0,0.0,0.0,0.0,0.0,0.0,0.0,0.0,0.0,0.0,0.0,0.0,0.0,0.0,0.0,0.0,0.0,0.0,0.0,0.0,0.0,10.2047,11.3857,12.2035,12.2035,12.2035,12.2035,12.2035,11.7827,11.1927,0.0,0.0,0.0,0.0,0.0,0.0,0.0,0.0,0.0,0.0,0.0,0.0,0.0,0.0,0.0,0.0,0.0,0.0,0.0,0.0,0.0,0.0,0.0,0.0,0.0,0.0,0.0,0.0,0.0,0.0,0.0,0.0,0.0,0.0,0.0,0.0,0.0,0.0,0.0,0.0,0.0,0.0,0.0,0.0,0.0,0.0,0.0,0.0,0.0,0.0,0.0,0.0,0.0,0.0,0.0,0.0,0.0,0.0,0.0,0.0,0.0,0.0,0.0,0.0,0.0,0.0,0.0,0.0,0.0,0.0,0.0,0.0,0.0,0.0,0.0,0.0,0.0,0.0,0.0,0.0,0.0,0.0,0.0,0.0,0.0,0.0,0.0,0.0,0.0,0.0,0.0,0.0,0.0,0.0,0.0,0.0,0.0,0.0,0.0,0.0,0.0,0.0,0.0,10.0207,10.948,11.7374,12.1655,12.2035,12.2035,12.2035,12.068,11.5267,10.4455,0.0,0.0,0.0,0.0,0.0,0.0,0.0,0.0,0.0,0.0,0.0,0.0,0.0,0.0,0.0,0.0,0.0,0.0,0.0,0.0,0.0,0.0,0.0,0.0,0.0,0.0,0.0,0.0,0.0,0.0,0.0,0.0,0.0,0.0,0.0,0.0,0.0,0.0,0.0,0.0,0.0,0.0,0.0,0.0,0.0,0.0,0.0,0.0,0.0,0.0,0.0,0.0,0.0,0.0,0.0,0.0,0.0,0.0,0.0,0.0,0.0,0.0,0.0,0.0,0.0,0.0,0.0,0.0,0.0,0.0,0.0,0.0,0.0,0.0,0.0,0.0,0.0,0.0,0.0,0.0,0.0,0.0,0.0,0.0,0.0,0.0,0.0,0.0,0.0,0.0,0.0,0.0,0.0,0.0,0.0,0.0,0.0,0.0,0.0,0.0,0.0,0.0,0.0,10.8371,11.6232,12.0728,12.1227,12.1227,12.1227,11.9586,11.4031,10.349,0.0,0.0,0.0,0.0,0.0,0.0,0.0,0.0,0.0,0.0,0.0,0.0,0.0,0.0,0.0,0.0,0.0,0.0,0.0,0.0,0.0,0.0,0.0,0.0,0.0,0.0,0.0,0.0,0.0,0.0,0.0,0.0,0.0,0.0,0.0,0.0,0.0,0.0,0.0,0.0,0.0,0.0,0.0,0.0,0.0,0.0,0.0,0.0,0.0,0.0,0.0,0.0,0.0,0.0,0.0,0.0,0.0,0.0,0.0,0.0,0.0,0.0,0.0,0.0,0.0,0.0,0.0,0.0,0.0,0.0,0.0,0.0,0.0,0.0,0.0,0.0,0.0,0.0,0.0,0.0,0.0,0.0,0.0,0.0,0.0,0.0,0.0,0.0,0.0,0.0,0.0,0.0,0.0,0.0,0.0,0.0,0.0,0.0,0.0,0.0,0.0,0.0,0.0,10.9517,11.7517,11.9372,11.9586,11.9586,11.9586,11.559,10.9597,10.1605,9.5839,0.0,0.0,0.0,0.0,0.0,0.0,0.0,0.0,0.0,0.0,0.0,0.0,0.0,0.0,0.0,0.0,0.0,0.0,0.0,0.0,0.0,0.0,0.0,0.0,0.0,0.0,0.0,0.0,0.0,0.0,0.0,0.0,0.0,0.0,0.0,0.0,0.0,0.0,0.0,0.0,0.0,0.0,0.0,0.0,0.0,0.0,0.0,0.0,0.0,0.0,0.0,0.0,0.0,0.0,0.0,0.0,0.0,0.0,0.0,0.0,0.0,0.0,0.0,0.0,0.0,0.0,0.0,0.0,0.0,0.0,0.0,0.0,0.0,0.0,0.0,0.0,0.0,0.0,0.0,0.0,0.0,0.0,0.0,0.0,0.0,0.0,0.0,0.0,0.0,0.0,0.0,0.0,0.0,0.0,0.0,0.0,0.0,0.0,0.0,0.0,0.0,0.0,10.524,11.2237,11.7445,11.7945,11.7945,11.7945,11.6946,11.1951,10.1677,9.8204,0.0,0.0,0.0,0.0,0.0,0.0,0.0,0.0,0.0,0.0,0.0,0.0,0.0,0.0,0.0,0.0,0.0,0.0,0.0,0.0,0.0,0.0,0.0,0.0,0.0,0.0,0.0,0.0,0.0,0.0,0.0,0.0,0.0,0.0,0.0,0.0,0.0,0.0,0.0,0.0,0.0,0.0,0.0,0.0,0.0,0.0,0.0,0.0,0.0,0.0,0.0,0.0,0.0,0.0,0.0,0.0,0.0,0.0,0.0,0.0,0.0,0.0,0.0,0.0,0.0,0.0,0.0,0.0,0.0,0.0,0.0,0.0,0.0,0.0,0.0,0.0,0.0,0.0,0.0,0.0,0.0,0.0,0.0,0.0,0.0,0.0,0.0,0.0,0.0,0.0,0.0,0.0,0.0,0.0,0.0,0.0,0.0,0.0,0.0,0.0,0.0,0.0,9.7161,10.4685,11.434,11.5977,11.6375,11.6375,11.6375,11.1488,9.9923,9.6944,0.0,0.0,0.0,0.0,0.0,0.0,0.0,0.0,0.0,0.0,0.0,0.0,0.0,0.0,0.0,0.0,0.0,0.0,0.0,0.0,0.0,0.0,0.0,0.0,0.0,0.0,0.0,0.0,0.0,0.0,0.0,0.0,0.0,0.0,0.0,0.0,0.0,0.0,0.0,0.0,0.0,0.0,0.0,0.0,0.0,0.0,0.0,0.0,0.0,0.0,0.0,0.0,0.0,0.0,0.0,0.0,0.0,0.0,0.0,0.0,0.0,0.0,0.0,0.0,0.0,0.0,0.0,0.0,0.0,0.0,0.0,0.0,0.0,0.0,0.0,0.0,0.0,0.0,0.0,0.0,0.0,0.0,0.0,0.0,0.0,0.0,0.0,0.0,0.0,0.0,0.0,0.0,0.0,0.0,0.0,0.0,0.0,0.0,0.0,0.0,0.0,0.0,0.0,9.8335,11.0348,11.3421,11.4688,11.4688,11.4688,10.9626,9.7789,0.0,0.0,0.0,0.0,0.0,0.0,0.0,0.0,0.0,0.0,0.0,0.0,0.0,0.0,0.0,0.0,0.0,0.0,0.0,0.0,0.0,0.0,0.0,0.0,0.0,0.0,0.0,0.0,0.0,0.0,0.0,0.0,0.0,0.0,0.0,0.0,0.0,0.0,0.0,0.0,0.0,0.0,0.0,0.0,0.0,0.0,0.0,0.0,0.0,0.0,0.0,0.0,0.0,0.0,0.0,0.0,0.0,0.0,0.0,0.0,0.0,0.0,0.0,0.0,0.0,0.0,0.0,0.0,0.0,0.0,0.0,0.0,0.0,0.0,0.0,0.0,0.0,0.0,0.0,0.0,0.0,0.0,0.0,0.0,0.0,0.0,0.0,0.0,0.0,0.0,0.0,0.0,0.0,0.0,0.0,0.0,0.0,0.0,0.0,0.0,0.0,0.0,0.0,0.0,10.0401,10.4854,11.0014,11.3093,11.3093,11.3093,10.8489,9.7675,0.0,0.0,0.0,0.0,0.0,0.0,0.0,0.0,0.0,0.0,0.0,0.0,0.0,0.0]}]]]